[[{"header":{"parameterUnit":"m.s-1","parameterCategory":1,"la1":31.0,"la2":29.5877,"lo1":-88.7671,"lo2":-86.6584,"dy":0.0162,"dx":0.0185,"nx":115,"ny":88,"refTime":"2023-08-04T00:00:00:Z","depth":0,"parameterNumber":2,"parameterNumberName":"U-component_of_WINDS"},"data":[0.0,0.0,0.0,0.0,0.0,0.0,0.0,0.0,0.0,0.0,0.0,0.0,0.0,0.0,0.0,0.0,0.0,0.0,0.0,0.0,0.0,0.0,0.0,0.0,0.0,0.0,0.0,0.0,0.0,0.0,0.0,0.0,0.0,0.0,0.0,0.0,0.0,0.0,0.0,0.0,0.0,0.0,0.0,0.0,0.0,0.0,0.0,0.0,0.0,0.0,0.0,0.0,0.0,0.0,0.0,0.0,0.0,0.0,0.0,0.0,0.0,0.0,0.0,0.0,0.0,0.0,0.0,0.0,0.0,0.0,0.0,0.0,0.0,0.0,0.0,0.0,0.0,0.0,0.0,0.0,0.0,0.0,0.0,0.0,0.0,0.0,0.0,0.0,0.0,0.0,0.0,0.0,0.0,0.0,0.0,0.0,0.0,0.0,0.0,0.0,0.0,0.0,0.0,0.0,0.0,0.0,0.0,0.0,0.0,0.0,0.0,0.0,0.0,0.0,0.0,0.0,0.0,0.0,0.0,0.0,0.0,0.0,0.0,0.0,0.0,0.0,0.0,0.0,0.0,0.0,0.0,0.0,0.0,0.0,0.0,0.0,0.0,0.0,0.0,0.0,0.0,0.0,0.0,0.0,0.0,0.0,0.0,0.0,0.0,0.0,0.0,0.0,0.0,0.0,0.0,0.0,0.0,0.0,0.0,0.0,0.0,0.0,0.0,0.0,0.0,0.0,0.0,0.0,0.0,0.0,0.0,0.0,0.0,0.0,0.0,0.0,0.0,0.0,0.0,0.0,0.0,0.0,0.0,0.0,0.0,0.0,0.0,0.0,0.0,0.0,0.0,0.0,0.0,0.0,0.0,0.0,0.0,0.0,0.0,0.0,0.0,0.0,0.0,0.0,0.0,0.0,0.0,0.0,0.0,0.0,0.0,0.0,0.0,0.0,0.0,0.0,0.0,0.0,0.0,0.0,0.0,0.0,0.0,0.0,0.0,0.0,0.0,0.0,0.0,0.0,0.0,0.0,0.0,0.0,0.0,0.0,0.0,0.0,0.0,0.0,0.0,0.0,0.0,0.0,0.0,0.0,0.0,0.0,0.0,0.0,0.0,0.0,0.0,0.0,0.0,0.0,0.0,0.0,0.0,0.0,0.0,0.0,0.0,0.0,0.0,0.0,0.0,0.0,0.0,0.0,0.0,0.0,0.0,0.0,0.0,0.0,0.0,0.0,0.0,0.0,0.0,0.0,0.0,0.0,0.0,0.0,0.0,0.0,0.0,0.0,0.0,0.0,0.0,0.0,0.0,0.0,0.0,0.0,0.0,0.0,0.0,0.0,0.0,0.0,0.0,0.0,0.0,0.0,0.0,0.0,0.0,0.0,0.0,0.0,0.0,0.0,0.0,0.0,0.0,0.0,0.0,0.0,0.0,0.0,0.0,0.0,0.0,0.0,0.0,0.0,0.0,0.0,0.0,0.0,0.0,0.0,0.0,0.0,0.0,0.0,0.0,0.0,0.0,0.0,0.0,0.0,0.0,0.0,0.0,0.0,0.0,0.0,0.0,0.0,0.0,0.0,0.0,0.0,0.0,0.0,0.0,0.0,0.0,0.0,0.0,0.0,0.0,0.0,0.0,0.0,0.0,0.0,0.0,0.0,0.0,0.0,0.0,0.0,0.0,0.0,0.0,0.0,0.0,0.0,0.0,0.0,0.0,0.0,0.0,0.0,0.0,0.0,0.0,0.0,0.0,0.0,0.0,0.0,0.0,0.0,0.0,0.0,0.0,0.0,0.0,0.0,0.0,0.0,0.0,0.0,0.0,0.0,0.0,0.0,0.0,0.0,0.0,0.0,0.0,0.0,0.0,0.0,0.0,0.0,0.0,0.0,0.0,0.0,0.0,0.0,0.0,0.0,0.0,0.0,0.0,0.0,0.0,0.0,0.0,0.0,0.0,0.0,0.0,0.0,0.0,0.0,0.0,0.0,0.0,0.0,0.0,0.0,0.0,0.0,0.0,0.0,0.0,0.0,0.0,0.0,0.0,0.0,0.0,0.0,0.0,0.0,0.0,0.0,0.0,0.0,0.0,0.0,0.0,0.0,0.0,0.0,0.0,0.0,0.0,0.0,0.0,0.0,0.0,0.0,0.0,0.0,0.0,0.0,0.0,0.0,0.0,0.0,0.0,0.0,0.0,0.0,0.0,0.0,0.0,0.0,0.0,0.0,0.0,0.0,0.0,0.0,0.0,0.0,0.0,0.0,0.0,0.0,0.0,0.0,0.0,0.0,0.0,0.0,0.0,0.0,0.0,0.0,0.0,0.0,0.0,0.0,0.0,0.0,0.0,0.0,0.0,0.0,0.0,0.0,0.0,0.0,0.0,0.0,0.0,0.0,0.0,0.0,0.0,0.0,0.0,0.0,0.0,0.0,0.0,0.0,0.0,0.0,0.0,0.0,0.0,0.0,0.0,0.0,0.0,0.0,0.0,0.0,0.0,0.0,0.0,0.0,0.0,0.0,0.0,0.0,0.0,0.0,0.0,0.0,0.0,0.0,0.0,0.0,0.0,0.0,0.0,0.0,0.0,0.0,0.0,0.0,0.0,0.0,0.0,0.0,0.0,0.0,0.0,0.0,0.0,0.0,0.0,0.0,0.0,0.0,0.0,0.0,0.0,0.0,0.0,0.0,0.0,0.0,0.0,0.0,0.0,0.0,0.0,0.0,0.0,0.0,0.0,0.0,0.0,0.0,0.0,0.0,0.0,0.0,0.0,0.0,0.0,0.0,0.0,0.0,0.0,0.0,0.0,0.0,0.0,0.0,0.0,0.0,0.0,0.0,0.0,0.0,0.0,0.0,0.0,0.0,0.0,0.0,0.0,0.0,0.0,0.0,0.0,0.0,0.0,0.0,0.0,0.0,0.0,0.0,0.0,0.0,0.0,0.0,0.0,0.0,0.0,0.0,0.0,0.0,0.0,0.0,0.0,0.0,0.0,0.0,0.0,0.0,0.0,0.0,0.0,0.0,0.0,0.0,0.0,0.0,0.0,0.0,0.0,0.0,0.0,0.0,0.0,0.0,0.0,0.0,0.0,0.0,0.0,0.0,0.0,0.0,0.0,0.0,0.0,0.0,0.0,0.0,0.0,0.0,0.0,0.0,0.0,0.0,0.0,0.0,0.0,0.0,0.0,0.0,0.0,0.0,0.0,0.0,0.0,0.0,0.0,0.0,0.0,0.0,0.0,0.0,0.0,0.0,0.0,0.0,0.0,0.0,0.0,0.0,0.0,0.0,0.0,0.0,0.0,0.0,0.0,0.0,0.0,0.0,0.0,0.0,0.0,0.0,0.0,0.0,0.0,0.0,0.0,0.0,0.0,0.0,0.0,0.0,0.0,0.0,0.0,0.0,0.0,0.0,0.0,0.0,0.0,0.0,0.0,0.0,0.0,0.0,0.0,0.0,0.0,0.0,0.0,0.0,0.0,0.0,0.0,0.0,0.0,0.0,0.0,0.0,0.0,0.0,0.0,0.0,0.0,0.0,0.0,0.0,0.0,0.0,0.0,0.0,0.0,0.0,0.0,0.0,0.0,0.0,0.0,0.0,0.0,0.0,0.0,0.0,0.0,0.0,0.0,0.0,0.0,0.0,0.0,0.0,0.0,0.0,0.0,0.0,0.0,0.0,0.0,0.0,0.0,0.0,0.0,0.0,0.0,0.0,0.0,0.0,0.0,0.0,0.0,0.0,0.0,0.0,0.0,0.0,0.0,0.0,0.0,0.0,0.0,0.0,0.0,0.0,0.0,0.0,0.0,0.0,0.0,0.0,0.0,0.0,0.0,0.0,0.0,0.0,0.0,0.0,0.0,0.0,0.0,0.0,0.0,0.0,0.0,0.0,0.0,0.0,0.0,0.0,0.0,0.0,0.0,0.0,0.0,0.0,0.0,0.0,0.0,0.0,0.0,0.0,0.0,0.0,0.0,0.0,0.0,0.0,0.0,0.0,0.0,0.0,0.0,0.0,0.0,0.0,0.0,0.0,0.0,0.0,0.0,0.0,0.0,0.0,0.0,0.0,0.0,0.0,0.0,0.0,0.0,0.0,0.0,0.0,0.0,0.0,0.0,0.0,0.0,0.0,0.0,0.0,0.0,0.0,0.0,0.0,0.0,0.0,0.0,0.0,0.0,0.0,0.0,0.0,0.0,0.0,0.0,0.0,0.0,0.0,0.0,0.0,0.0,0.0,0.0,0.0,0.0,0.0,0.0,0.0,0.0,0.0,0.0,0.0,-2.7267,0.0,0.0,0.0,0.0,0.0,0.0,0.0,0.0,0.0,0.0,0.0,0.0,0.0,0.0,0.0,0.0,0.0,0.0,0.0,0.0,0.0,0.0,0.0,0.0,0.0,0.0,0.0,0.0,0.0,0.0,0.0,0.0,0.0,0.0,0.0,0.0,0.0,0.0,0.0,0.0,0.0,0.0,0.0,0.0,0.0,0.0,0.0,0.0,0.0,0.0,0.0,0.0,0.0,0.0,0.0,0.0,0.0,0.0,0.0,0.0,0.0,0.0,0.0,0.0,0.0,0.0,0.0,0.0,0.0,0.0,0.0,0.0,0.0,0.0,0.0,0.0,0.0,0.0,0.0,0.0,0.0,0.0,0.0,0.0,0.0,0.0,0.0,0.0,0.0,0.0,0.0,0.0,0.0,0.0,0.0,0.0,0.0,0.0,0.0,0.0,0.0,0.0,0.0,0.0,0.0,0.0,0.0,0.0,0.0,0.0,-2.694,-2.7185,-2.694,-2.6816,-2.6816,0.0,0.0,0.0,0.0,0.0,0.0,0.0,0.0,0.0,0.0,0.0,0.0,0.0,0.0,0.0,0.0,0.0,0.0,0.0,0.0,0.0,0.0,0.0,0.0,0.0,0.0,0.0,0.0,0.0,0.0,0.0,0.0,0.0,0.0,0.0,0.0,0.0,0.0,0.0,0.0,0.0,0.0,0.0,0.0,0.0,0.0,0.0,0.0,0.0,0.0,0.0,0.0,0.0,0.0,0.0,0.0,0.0,0.0,0.0,0.0,0.0,0.0,0.0,0.0,0.0,0.0,0.0,0.0,0.0,0.0,0.0,0.0,0.0,0.0,0.0,0.0,0.0,0.0,0.0,0.0,0.0,0.0,0.0,0.0,0.0,0.0,0.0,0.0,0.0,0.0,0.0,0.0,0.0,0.0,0.0,0.0,0.0,0.0,0.0,0.0,0.0,0.0,0.0,0.0,0.0,0.0,0.0,0.0,0.0,0.0,0.0,0.0,-2.6569,-2.6362,-2.6362,0.0,0.0,0.0,0.0,0.0,0.0,0.0,0.0,0.0,0.0,0.0,0.0,0.0,0.0,0.0,0.0,0.0,0.0,0.0,0.0,0.0,0.0,0.0,0.0,0.0,0.0,0.0,0.0,0.0,0.0,0.0,0.0,0.0,0.0,0.0,0.0,0.0,0.0,0.0,0.0,0.0,0.0,0.0,0.0,0.0,0.0,0.0,0.0,0.0,0.0,0.0,0.0,0.0,0.0,0.0,0.0,0.0,0.0,0.0,0.0,0.0,0.0,0.0,0.0,0.0,0.0,0.0,0.0,0.0,0.0,0.0,0.0,0.0,0.0,0.0,0.0,0.0,0.0,0.0,0.0,0.0,0.0,0.0,0.0,0.0,0.0,0.0,0.0,0.0,0.0,0.0,0.0,0.0,0.0,0.0,0.0,0.0,0.0,0.0,0.0,0.0,0.0,0.0,0.0,0.0,0.0,0.0,0.0,0.0,0.0,-2.5968,-2.601,-2.599,0.0,-2.5948,0.0,0.0,0.0,0.0,0.0,0.0,0.0,0.0,0.0,0.0,0.0,0.0,0.0,0.0,0.0,0.0,0.0,0.0,0.0,0.0,0.0,0.0,0.0,0.0,0.0,0.0,0.0,0.0,0.0,0.0,0.0,0.0,0.0,0.0,0.0,0.0,0.0,0.0,0.0,0.0,0.0,0.0,0.0,0.0,0.0,0.0,0.0,0.0,0.0,0.0,0.0,0.0,0.0,0.0,0.0,0.0,0.0,0.0,0.0,0.0,0.0,0.0,0.0,0.0,0.0,0.0,0.0,0.0,0.0,0.0,0.0,0.0,0.0,0.0,0.0,0.0,0.0,0.0,0.0,0.0,0.0,0.0,0.0,0.0,0.0,0.0,0.0,0.0,0.0,0.0,0.0,0.0,0.0,0.0,0.0,0.0,0.0,0.0,0.0,0.0,0.0,0.0,0.0,0.0,0.0,0.0,0.0,0.0,0.0,0.0,-2.485,-2.5295,-2.5295,-2.5126,0.0,0.0,0.0,0.0,0.0,0.0,0.0,0.0,0.0,0.0,0.0,0.0,0.0,0.0,0.0,0.0,0.0,0.0,0.0,0.0,0.0,0.0,0.0,0.0,0.0,0.0,0.0,0.0,0.0,0.0,0.0,0.0,0.0,0.0,0.0,0.0,0.0,0.0,0.0,0.0,0.0,0.0,0.0,0.0,0.0,0.0,0.0,0.0,0.0,0.0,0.0,0.0,0.0,0.0,0.0,0.0,0.0,0.0,0.0,0.0,0.0,0.0,0.0,0.0,0.0,0.0,0.0,0.0,0.0,0.0,0.0,0.0,0.0,0.0,0.0,0.0,0.0,0.0,0.0,0.0,0.0,0.0,0.0,0.0,0.0,0.0,0.0,0.0,0.0,0.0,0.0,0.0,0.0,0.0,0.0,0.0,0.0,0.0,0.0,0.0,0.0,0.0,0.0,0.0,0.0,0.0,0.0,0.0,0.0,0.0,-2.4102,-2.4466,-2.5126,-2.5168,-2.485,-2.4145,0.0,0.0,0.0,0.0,0.0,0.0,0.0,0.0,0.0,0.0,0.0,0.0,0.0,0.0,0.0,0.0,0.0,0.0,0.0,0.0,0.0,0.0,0.0,0.0,0.0,0.0,0.0,0.0,0.0,0.0,0.0,0.0,0.0,0.0,0.0,0.0,0.0,0.0,0.0,0.0,0.0,0.0,0.0,0.0,0.0,0.0,0.0,0.0,0.0,0.0,0.0,0.0,0.0,0.0,0.0,0.0,0.0,0.0,0.0,0.0,0.0,0.0,0.0,0.0,0.0,0.0,0.0,0.0,0.0,0.0,0.0,0.0,0.0,0.0,0.0,0.0,0.0,0.0,0.0,0.0,0.0,0.0,0.0,0.0,0.0,0.0,0.0,0.0,0.0,0.0,0.0,0.0,0.0,0.0,0.0,0.0,0.0,0.0,0.0,0.0,0.0,0.0,0.0,0.0,0.0,0.0,0.0,0.0,-2.4722,-2.4807,-2.5168,-2.5738,-2.5864,-2.5506,0.0,0.0,0.0,0.0,0.0,0.0,0.0,0.0,0.0,0.0,0.0,0.0,0.0,0.0,0.0,0.0,0.0,0.0,0.0,0.0,0.0,0.0,0.0,0.0,0.0,0.0,0.0,0.0,0.0,0.0,0.0,0.0,0.0,0.0,0.0,0.0,0.0,0.0,0.0,0.0,0.0,0.0,0.0,0.0,0.0,0.0,0.0,0.0,0.0,0.0,0.0,0.0,0.0,0.0,0.0,0.0,0.0,0.0,0.0,0.0,0.0,0.0,0.0,0.0,0.0,0.0,0.0,0.0,0.0,0.0,0.0,0.0,0.0,0.0,0.0,0.0,0.0,0.0,0.0,0.0,0.0,0.0,0.0,0.0,0.0,0.0,0.0,0.0,0.0,0.0,0.0,0.0,0.0,0.0,0.0,0.0,0.0,0.0,0.0,0.0,0.0,0.0,0.0,0.0,0.0,0.0,0.0,0.0,0.0,-2.2862,-2.3734,-2.3844,-2.3299,-2.4079,-2.3894,0.0,0.0,0.0,0.0,0.0,0.0,0.0,0.0,0.0,0.0,0.0,0.0,0.0,0.0,0.0,0.0,0.0,0.0,0.0,0.0,0.0,0.0,0.0,0.0,0.0,0.0,0.0,0.0,0.0,0.0,0.0,0.0,0.0,0.0,0.0,0.0,0.0,0.0,0.0,0.0,0.0,0.0,0.0,0.0,0.0,0.0,0.0,0.0,0.0,0.0,0.0,0.0,0.0,0.0,0.0,0.0,0.0,0.0,0.0,0.0,0.0,0.0,0.0,0.0,0.0,0.0,0.0,0.0,0.0,0.0,0.0,0.0,0.0,0.0,0.0,0.0,0.0,0.0,0.0,0.0,0.0,0.0,0.0,0.0,0.0,0.0,0.0,0.0,0.0,0.0,0.0,0.0,0.0,0.0,0.0,0.0,0.0,0.0,0.0,0.0,0.0,0.0,0.0,0.0,0.0,0.0,0.0,0.0,0.0,-2.2087,0.0,-2.3323,-2.2467,-2.3185,-2.2945,0.0,0.0,0.0,0.0,0.0,0.0,0.0,0.0,0.0,0.0,0.0,0.0,0.0,0.0,0.0,0.0,0.0,0.0,0.0,0.0,0.0,0.0,0.0,0.0,0.0,0.0,0.0,0.0,0.0,0.0,0.0,0.0,0.0,0.0,0.0,0.0,0.0,0.0,0.0,0.0,0.0,0.0,0.0,0.0,0.0,0.0,0.0,0.0,0.0,0.0,0.0,0.0,0.0,0.0,0.0,0.0,0.0,0.0,0.0,0.0,0.0,0.0,0.0,0.0,0.0,0.0,0.0,0.0,0.0,0.0,0.0,0.0,0.0,0.0,0.0,0.0,0.0,0.0,0.0,0.0,0.0,0.0,0.0,0.0,0.0,0.0,0.0,0.0,0.0,0.0,0.0,0.0,0.0,0.0,0.0,0.0,0.0,0.0,0.0,0.0,0.0,0.0,0.0,0.0,0.0,0.0,0.0,0.0,-2.1998,-2.275,-2.343,-2.3714,-2.3737,-2.3355,-2.2862,0.0,0.0,0.0,0.0,0.0,0.0,0.0,0.0,0.0,0.0,0.0,0.0,0.0,0.0,0.0,0.0,0.0,0.0,0.0,0.0,0.0,0.0,0.0,0.0,0.0,0.0,0.0,0.0,0.0,0.0,0.0,0.0,0.0,0.0,0.0,0.0,0.0,0.0,0.0,0.0,0.0,0.0,0.0,0.0,0.0,0.0,0.0,0.0,0.0,0.0,0.0,0.0,0.0,0.0,0.0,0.0,0.0,0.0,0.0,0.0,0.0,0.0,0.0,0.0,0.0,0.0,0.0,0.0,0.0,0.0,0.0,0.0,0.0,0.0,0.0,0.0,0.0,0.0,0.0,0.0,0.0,0.0,0.0,0.0,0.0,0.0,0.0,0.0,0.0,0.0,0.0,0.0,0.0,0.0,0.0,0.0,0.0,0.0,0.0,0.0,0.0,0.0,0.0,0.0,0.0,0.0,0.0,0.0,0.0,-2.1579,-2.2599,-2.2862,-2.2359,-2.2457,-2.2182,0.0,0.0,0.0,0.0,0.0,0.0,0.0,0.0,0.0,0.0,0.0,0.0,0.0,0.0,0.0,0.0,0.0,0.0,0.0,0.0,0.0,0.0,0.0,0.0,0.0,0.0,0.0,0.0,0.0,0.0,0.0,0.0,0.0,0.0,0.0,0.0,0.0,0.0,0.0,0.0,0.0,0.0,0.0,0.0,0.0,0.0,0.0,0.0,0.0,0.0,0.0,0.0,0.0,0.0,0.0,0.0,0.0,0.0,0.0,0.0,0.0,0.0,0.0,0.0,0.0,0.0,0.0,0.0,0.0,0.0,0.0,0.0,0.0,0.0,0.0,0.0,0.0,0.0,0.0,0.0,0.0,0.0,0.0,0.0,0.0,0.0,0.0,0.0,0.0,0.0,0.0,0.0,0.0,0.0,0.0,0.0,0.0,0.0,0.0,0.0,0.0,0.0,0.0,0.0,0.0,0.0,0.0,0.0,0.0,-2.1042,-2.1909,-2.2251,-2.1906,-2.1839,-2.1583,-2.1089,0.0,0.0,0.0,0.0,0.0,0.0,0.0,0.0,0.0,0.0,0.0,0.0,0.0,0.0,0.0,0.0,0.0,0.0,0.0,0.0,0.0,0.0,0.0,0.0,0.0,0.0,0.0,0.0,0.0,0.0,0.0,0.0,0.0,0.0,0.0,0.0,0.0,0.0,0.0,0.0,0.0,0.0,0.0,0.0,0.0,0.0,0.0,0.0,0.0,0.0,0.0,0.0,0.0,0.0,0.0,0.0,0.0,0.0,0.0,0.0,0.0,0.0,0.0,0.0,0.0,0.0,0.0,0.0,0.0,0.0,0.0,0.0,0.0,0.0,0.0,0.0,0.0,0.0,0.0,0.0,0.0,0.0,0.0,0.0,0.0,0.0,0.0,0.0,0.0,0.0,0.0,0.0,0.0,0.0,0.0,0.0,0.0,0.0,0.0,0.0,0.0,0.0,0.0,0.0,0.0,0.0,0.0,0.0,-2.1068,-2.1455,-2.1888,-2.2217,-2.1467,-2.1083,0.0,0.0,0.0,0.0,0.0,0.0,0.0,0.0,0.0,0.0,0.0,0.0,0.0,0.0,0.0,0.0,0.0,0.0,0.0,0.0,0.0,0.0,0.0,0.0,0.0,0.0,0.0,0.0,0.0,0.0,0.0,0.0,0.0,0.0,0.0,0.0,0.0,0.0,0.0,0.0,0.0,0.0,0.0,0.0,0.0,0.0,0.0,0.0,0.0,0.0,0.0,0.0,0.0,0.0,0.0,0.0,0.0,0.0,0.0,0.0,0.0,0.0,0.0,0.0,0.0,0.0,0.0,0.0,0.0,0.0,0.0,0.0,0.0,0.0,0.0,0.0,0.0,0.0,0.0,0.0,0.0,0.0,0.0,0.0,0.0,0.0,0.0,0.0,0.0,0.0,0.0,0.0,0.0,0.0,0.0,0.0,0.0,0.0,0.0,0.0,0.0,0.0,0.0,0.0,0.0,0.0,0.0,0.0,0.0,-2.1766,-2.1628,-2.1671,-2.1851,-2.1031,-2.0729,0.0,0.0,0.0,0.0,0.0,0.0,0.0,0.0,0.0,0.0,0.0,0.0,0.0,0.0,0.0,0.0,0.0,0.0,0.0,0.0,0.0,0.0,0.0,0.0,0.0,0.0,0.0,0.0,0.0,0.0,0.0,0.0,0.0,0.0,0.0,0.0,0.0,0.0,0.0,0.0,0.0,0.0,0.0,0.0,0.0,0.0,0.0,0.0,0.0,0.0,0.0,0.0,0.0,0.0,0.0,0.0,0.0,0.0,0.0,0.0,0.0,0.0,0.0,0.0,0.0,0.0,0.0,0.0,0.0,0.0,0.0,0.0,0.0,0.0,0.0,0.0,0.0,0.0,0.0,0.0,0.0,0.0,0.0,0.0,0.0,0.0,0.0,0.0,0.0,0.0,0.0,0.0,0.0,0.0,0.0,0.0,0.0,0.0,0.0,0.0,0.0,0.0,0.0,0.0,0.0,0.0,0.0,0.0,-2.0627,-2.1543,-2.1334,-2.1333,-2.154,-2.1263,-2.1058,0.0,0.0,0.0,0.0,0.0,0.0,0.0,0.0,0.0,0.0,0.0,0.0,0.0,0.0,0.0,0.0,0.0,0.0,0.0,0.0,0.0,0.0,0.0,0.0,0.0,0.0,0.0,0.0,0.0,0.0,0.0,0.0,0.0,0.0,0.0,0.0,0.0,0.0,0.0,0.0,0.0,0.0,0.0,0.0,0.0,0.0,0.0,0.0,0.0,0.0,0.0,0.0,0.0,0.0,0.0,0.0,0.0,0.0,0.0,0.0,0.0,0.0,0.0,0.0,0.0,0.0,0.0,0.0,0.0,0.0,0.0,0.0,0.0,0.0,0.0,0.0,0.0,0.0,0.0,0.0,0.0,0.0,0.0,0.0,0.0,0.0,0.0,0.0,0.0,0.0,0.0,0.0,0.0,0.0,0.0,0.0,0.0,0.0,0.0,0.0,0.0,0.0,0.0,0.0,0.0,0.0,0.0,0.0,-2.0329,-2.0836,-2.087,-2.1087,-2.1394,-2.1739,-2.1637,0.0,0.0,0.0,0.0,0.0,0.0,0.0,0.0,0.0,0.0,0.0,0.0,0.0,0.0,0.0,0.0,0.0,0.0,0.0,0.0,0.0,0.0,0.0,0.0,0.0,0.0,0.0,0.0,0.0,0.0,0.0,0.0,0.0,0.0,0.0,0.0,0.0,0.0,0.0,0.0,0.0,0.0,0.0,0.0,0.0,0.0,0.0,0.0,0.0,0.0,0.0,0.0,0.0,0.0,0.0,0.0,0.0,0.0,0.0,0.0,0.0,0.0,0.0,0.0,0.0,0.0,0.0,0.0,0.0,0.0,0.0,0.0,0.0,0.0,0.0,0.0,0.0,0.0,0.0,0.0,0.0,0.0,0.0,0.0,0.0,0.0,0.0,0.0,0.0,0.0,0.0,0.0,0.0,0.0,0.0,0.0,0.0,0.0,0.0,0.0,0.0,0.0,0.0,0.0,0.0,0.0,0.0,0.0,-2.0436,-2.1015,-2.1329,-2.1712,-2.2228,-2.1134,-2.061,0.0,0.0,0.0,0.0,0.0,0.0,0.0,0.0,0.0,0.0,0.0,0.0,0.0,0.0,0.0,0.0,0.0,0.0,0.0,0.0,0.0,0.0,0.0,0.0,0.0,0.0,0.0,0.0,0.0,0.0,0.0,0.0,0.0,0.0,0.0,0.0,0.0,0.0,0.0,0.0,0.0,0.0,0.0,0.0,0.0,0.0,0.0,0.0,-1.7844,0.0,0.0,0.0,0.0,0.0,0.0,0.0,0.0,0.0,0.0,0.0,0.0,0.0,0.0,0.0,0.0,0.0,0.0,0.0,0.0,0.0,0.0,0.0,0.0,0.0,0.0,0.0,0.0,0.0,0.0,0.0,0.0,0.0,0.0,0.0,0.0,0.0,0.0,0.0,0.0,0.0,0.0,0.0,0.0,0.0,0.0,0.0,0.0,0.0,0.0,0.0,0.0,0.0,0.0,0.0,0.0,0.0,0.0,0.0,-2.0313,-2.0976,-2.1221,-2.1655,-2.235,-2.108,-2.0604,0.0,0.0,0.0,0.0,0.0,0.0,0.0,0.0,0.0,0.0,0.0,0.0,0.0,0.0,0.0,0.0,0.0,0.0,0.0,0.0,0.0,0.0,0.0,0.0,0.0,0.0,0.0,0.0,0.0,0.0,0.0,0.0,0.0,0.0,0.0,0.0,0.0,0.0,0.0,0.0,0.0,0.0,0.0,0.0,0.0,0.0,0.0,0.0,0.0,0.0,0.0,0.0,0.0,0.0,0.0,0.0,0.0,0.0,0.0,0.0,0.0,0.0,0.0,0.0,0.0,0.0,0.0,0.0,0.0,0.0,0.0,0.0,0.0,0.0,0.0,0.0,0.0,0.0,0.0,0.0,0.0,0.0,0.0,0.0,0.0,0.0,0.0,0.0,0.0,0.0,0.0,0.0,0.0,0.0,0.0,0.0,0.0,0.0,0.0,0.0,0.0,0.0,0.0,0.0,0.0,0.0,0.0,-1.9717,-2.0257,-2.0893,-2.102,-2.1486,-2.23,-2.1362,-2.1004,-2.1567,0.0,0.0,0.0,0.0,0.0,0.0,0.0,0.0,0.0,0.0,0.0,0.0,0.0,0.0,0.0,0.0,0.0,0.0,0.0,0.0,0.0,0.0,0.0,0.0,0.0,0.0,0.0,0.0,0.0,0.0,0.0,0.0,0.0,0.0,0.0,0.0,0.0,0.0,-1.8118,-1.8797,0.0,0.0,0.0,0.0,0.0,0.0,0.0,0.0,-1.8519,0.0,0.0,0.0,0.0,0.0,0.0,0.0,0.0,0.0,0.0,0.0,0.0,0.0,0.0,0.0,0.0,0.0,0.0,0.0,0.0,0.0,0.0,0.0,0.0,0.0,0.0,0.0,0.0,0.0,0.0,0.0,0.0,0.0,0.0,0.0,0.0,0.0,0.0,0.0,0.0,0.0,0.0,0.0,0.0,0.0,0.0,0.0,0.0,0.0,0.0,0.0,0.0,0.0,0.0,0.0,0.0,-1.8923,-1.9828,-2.0512,-2.0909,-2.1497,-2.2135,-2.2679,-2.1973,-2.1478,-2.1432,0.0,0.0,0.0,0.0,0.0,0.0,0.0,0.0,0.0,0.0,0.0,0.0,0.0,0.0,0.0,0.0,0.0,0.0,0.0,0.0,0.0,0.0,0.0,0.0,0.0,0.0,0.0,0.0,0.0,0.0,0.0,0.0,0.0,0.0,0.0,0.0,0.0,0.0,0.0,-1.8724,-1.8926,0.0,0.0,0.0,0.0,0.0,0.0,0.0,0.0,-1.8789,0.0,0.0,0.0,0.0,0.0,0.0,0.0,0.0,0.0,0.0,0.0,0.0,0.0,0.0,0.0,0.0,0.0,0.0,0.0,0.0,0.0,0.0,0.0,0.0,0.0,0.0,0.0,0.0,0.0,0.0,0.0,0.0,0.0,0.0,0.0,0.0,0.0,0.0,0.0,0.0,0.0,0.0,0.0,0.0,0.0,0.0,0.0,0.0,0.0,0.0,0.0,0.0,0.0,0.0,0.0,-1.9383,-2.0226,-2.0845,-2.1143,-2.1703,-2.2146,-2.2551,-2.2096,-2.1776,0.0,0.0,0.0,0.0,0.0,0.0,0.0,0.0,0.0,0.0,0.0,0.0,0.0,0.0,0.0,0.0,0.0,0.0,0.0,0.0,0.0,0.0,0.0,0.0,0.0,0.0,0.0,0.0,0.0,0.0,0.0,0.0,0.0,0.0,0.0,0.0,0.0,0.0,0.0,0.0,-1.9072,-1.9402,-1.9604,0.0,0.0,0.0,0.0,0.0,0.0,-1.9112,-1.914,0.0,0.0,0.0,0.0,0.0,0.0,0.0,0.0,0.0,0.0,0.0,0.0,0.0,0.0,0.0,0.0,0.0,0.0,0.0,0.0,0.0,0.0,0.0,0.0,0.0,0.0,0.0,0.0,0.0,0.0,0.0,0.0,0.0,0.0,0.0,0.0,0.0,0.0,0.0,0.0,0.0,0.0,0.0,0.0,0.0,0.0,0.0,0.0,0.0,0.0,0.0,0.0,0.0,0.0,0.0,-1.9765,-2.0527,-2.1068,-2.1301,-2.1687,-2.1932,-2.2078,-2.1845,-2.171,0.0,0.0,0.0,0.0,0.0,0.0,0.0,0.0,0.0,0.0,0.0,0.0,0.0,0.0,0.0,0.0,0.0,0.0,0.0,0.0,0.0,0.0,0.0,0.0,0.0,0.0,0.0,0.0,0.0,0.0,0.0,0.0,0.0,0.0,0.0,0.0,0.0,0.0,0.0,0.0,0.0,-1.988,-1.9898,-1.9733,0.0,0.0,0.0,0.0,-1.8793,-1.9168,0.0,0.0,0.0,0.0,0.0,0.0,0.0,0.0,0.0,0.0,0.0,0.0,0.0,0.0,0.0,0.0,0.0,0.0,0.0,0.0,0.0,0.0,0.0,0.0,0.0,0.0,0.0,0.0,0.0,0.0,0.0,0.0,0.0,0.0,0.0,0.0,0.0,0.0,0.0,0.0,0.0,0.0,0.0,0.0,0.0,0.0,0.0,0.0,0.0,0.0,0.0,0.0,0.0,0.0,0.0,0.0,-1.9511,-2.0416,-2.0941,-2.0937,-2.127,-2.1481,-2.1501,-2.1171,-2.087,0.0,0.0,0.0,0.0,0.0,0.0,0.0,0.0,0.0,0.0,0.0,0.0,0.0,0.0,0.0,0.0,0.0,0.0,0.0,0.0,0.0,0.0,0.0,0.0,0.0,0.0,0.0,0.0,0.0,0.0,0.0,0.0,0.0,0.0,0.0,0.0,0.0,0.0,0.0,0.0,0.0,-1.9791,-1.9833,-1.9469,-1.9316,0.0,0.0,-1.9144,-1.905,-1.8768,0.0,0.0,0.0,0.0,0.0,0.0,0.0,0.0,0.0,0.0,0.0,0.0,0.0,0.0,0.0,0.0,0.0,0.0,0.0,0.0,0.0,0.0,0.0,0.0,0.0,0.0,0.0,0.0,0.0,0.0,0.0,0.0,0.0,0.0,0.0,0.0,0.0,0.0,0.0,0.0,0.0,0.0,0.0,0.0,0.0,0.0,0.0,0.0,0.0,0.0,0.0,0.0,0.0,0.0,0.0,-1.9511,-1.9718,-2.0496,-2.1078,-2.1334,-2.1362,-2.1599,-2.2024,-2.191,-2.1912,0.0,0.0,0.0,0.0,0.0,0.0,0.0,0.0,0.0,0.0,0.0,0.0,0.0,0.0,0.0,0.0,0.0,0.0,0.0,0.0,0.0,0.0,0.0,0.0,0.0,0.0,0.0,0.0,0.0,0.0,0.0,0.0,0.0,0.0,0.0,0.0,0.0,0.0,0.0,0.0,0.0,0.0,-2.0138,-1.9922,0.0,0.0,0.0,-1.924,-1.8715,0.0,0.0,0.0,0.0,0.0,0.0,0.0,0.0,0.0,0.0,0.0,0.0,0.0,0.0,0.0,0.0,0.0,0.0,0.0,0.0,0.0,0.0,0.0,0.0,0.0,0.0,0.0,0.0,0.0,0.0,0.0,0.0,0.0,0.0,0.0,0.0,0.0,0.0,0.0,0.0,0.0,0.0,0.0,0.0,0.0,0.0,0.0,0.0,0.0,0.0,0.0,0.0,0.0,0.0,0.0,0.0,0.0,-2.0003,-2.0607,-2.1113,-2.1487,-2.1334,-2.1558,-2.208,-2.208,0.0,0.0,0.0,0.0,0.0,0.0,0.0,0.0,0.0,0.0,0.0,0.0,0.0,0.0,0.0,0.0,0.0,0.0,0.0,0.0,0.0,0.0,0.0,0.0,0.0,0.0,0.0,-2.004,0.0,0.0,0.0,0.0,0.0,0.0,0.0,0.0,0.0,0.0,0.0,0.0,0.0,0.0,-2.0263,-2.0351,-2.0121,-1.9872,0.0,0.0,-1.919,-1.8507,-1.8972,-1.9288,0.0,0.0,0.0,0.0,0.0,0.0,0.0,0.0,0.0,0.0,0.0,0.0,0.0,0.0,0.0,0.0,0.0,0.0,0.0,0.0,0.0,0.0,0.0,0.0,0.0,0.0,0.0,0.0,0.0,0.0,0.0,0.0,0.0,0.0,0.0,0.0,0.0,0.0,0.0,0.0,0.0,0.0,0.0,0.0,0.0,0.0,0.0,0.0,0.0,0.0,0.0,0.0,0.0,0.0,-2.0052,-2.0353,-2.0734,-2.0925,-2.0976,-2.0941,-2.0941,-2.1027,-2.1011,-2.1267,0.0,0.0,0.0,0.0,0.0,0.0,0.0,0.0,0.0,0.0,0.0,0.0,0.0,0.0,0.0,0.0,0.0,0.0,0.0,0.0,0.0,0.0,0.0,0.0,0.0,0.0,0.0,0.0,0.0,0.0,0.0,0.0,0.0,0.0,0.0,0.0,0.0,0.0,0.0,0.0,0.0,-1.9832,-2.0257,-1.95,-1.9088,0.0,-1.9163,-1.8812,-1.8796,-1.8812,-1.8827,-1.8781,0.0,0.0,0.0,0.0,0.0,0.0,0.0,0.0,0.0,0.0,0.0,0.0,0.0,0.0,0.0,0.0,0.0,0.0,0.0,0.0,0.0,0.0,0.0,0.0,0.0,0.0,0.0,0.0,0.0,0.0,0.0,0.0,0.0,0.0,0.0,0.0,0.0,0.0,0.0,0.0,0.0,0.0,0.0,0.0,0.0,0.0,0.0,0.0,0.0,0.0,0.0,0.0,0.0,-2.0257,-2.04,-2.1038,-2.1534,-2.1762,-2.1762,-2.2072,-2.2741,-2.2433,-2.2571,0.0,0.0,0.0,0.0,0.0,0.0,0.0,0.0,0.0,0.0,0.0,0.0,0.0,0.0,0.0,0.0,0.0,0.0,0.0,0.0,0.0,0.0,0.0,0.0,0.0,0.0,0.0,0.0,-2.0869,-2.1034,-2.1394,0.0,0.0,0.0,0.0,0.0,0.0,0.0,0.0,0.0,0.0,-2.0546,-2.0682,-2.0138,0.0,0.0,-1.9317,-1.8781,-1.8781,-1.8781,-1.8781,-1.8781,-1.8781,0.0,0.0,0.0,0.0,0.0,0.0,0.0,0.0,0.0,0.0,0.0,0.0,0.0,0.0,0.0,0.0,0.0,0.0,0.0,0.0,0.0,0.0,0.0,0.0,0.0,0.0,0.0,0.0,0.0,0.0,0.0,0.0,0.0,0.0,0.0,0.0,0.0,0.0,0.0,0.0,0.0,0.0,0.0,0.0,0.0,0.0,0.0,0.0,0.0,0.0,0.0,0.0,-2.0448,-2.0559,-2.1251,-2.1868,-2.227,-2.2386,-2.2873,-2.3633,-2.3306,-2.3389,0.0,0.0,0.0,0.0,0.0,0.0,0.0,0.0,0.0,0.0,0.0,0.0,0.0,0.0,0.0,0.0,0.0,0.0,0.0,0.0,0.0,0.0,0.0,0.0,0.0,0.0,0.0,0.0,-2.1248,-2.1313,-2.1472,0.0,0.0,0.0,0.0,0.0,0.0,0.0,0.0,0.0,0.0,-2.0862,-2.0952,-2.0501,-2.0065,-2.011,-1.9379,-1.8781,-1.8781,-1.8781,-1.8781,-1.8781,0.0,0.0,0.0,0.0,0.0,0.0,0.0,0.0,0.0,0.0,0.0,0.0,0.0,0.0,0.0,0.0,0.0,0.0,0.0,0.0,0.0,0.0,0.0,0.0,0.0,0.0,0.0,-1.9909,0.0,0.0,-1.9941,0.0,0.0,0.0,0.0,0.0,0.0,0.0,0.0,0.0,0.0,0.0,0.0,0.0,0.0,0.0,0.0,0.0,0.0,0.0,0.0,0.0,0.0,-2.0575,-2.0909,-2.1242,-2.1748,-2.2339,-2.267,-2.3003,-2.3169,-2.3135,-2.3168,-2.3356,0.0,0.0,0.0,0.0,0.0,0.0,0.0,0.0,0.0,0.0,0.0,0.0,0.0,0.0,0.0,0.0,0.0,0.0,0.0,0.0,0.0,0.0,0.0,0.0,0.0,0.0,-2.1668,-2.1668,-2.1535,0.0,0.0,0.0,0.0,0.0,0.0,0.0,0.0,0.0,0.0,-2.088,-2.0473,-2.0907,-2.0184,-1.9637,-1.9637,-1.915,-1.8781,-1.8781,-1.8781,-1.8781,0.0,0.0,0.0,0.0,0.0,0.0,0.0,0.0,0.0,0.0,0.0,0.0,0.0,0.0,0.0,0.0,0.0,0.0,0.0,0.0,0.0,0.0,0.0,0.0,0.0,0.0,0.0,-2.0575,-2.0575,0.0,0.0,0.0,0.0,0.0,0.0,0.0,0.0,0.0,0.0,0.0,-2.075,-2.0861,0.0,0.0,0.0,0.0,0.0,0.0,0.0,0.0,0.0,0.0,0.0,0.0,-2.1113,-2.1813,-2.2291,-2.2869,-2.3623,-2.4081,-2.4365,-2.4456,-2.4439,-2.4193,-2.3713,0.0,0.0,0.0,0.0,0.0,0.0,0.0,0.0,0.0,0.0,0.0,0.0,0.0,0.0,0.0,0.0,0.0,0.0,0.0,0.0,0.0,0.0,0.0,0.0,0.0,-2.1687,0.0,0.0,0.0,0.0,0.0,0.0,0.0,0.0,0.0,0.0,0.0,-2.0862,-2.1177,-2.0952,-2.0682,-2.0564,-2.0002,-1.9592,0.0,0.0,0.0,0.0,0.0,0.0,0.0,0.0,0.0,0.0,0.0,0.0,0.0,0.0,-1.8796,-1.8669,-1.8099,-1.7582,-1.752,0.0,0.0,0.0,0.0,0.0,0.0,0.0,0.0,0.0,0.0,0.0,0.0,0.0,0.0,-2.1052,0.0,-2.102,0.0,0.0,0.0,0.0,0.0,0.0,0.0,0.0,-2.0941,-2.1048,-2.1064,-2.1227,-2.129,0.0,-2.1163,-2.1219,0.0,0.0,0.0,0.0,0.0,0.0,0.0,0.0,-2.1444,-2.2549,-2.2908,-2.3544,-2.4591,-2.5073,-2.5361,-2.5433,-2.5129,-2.4734,-2.4215,-2.4172,-2.3876,0.0,0.0,0.0,0.0,0.0,0.0,0.0,0.0,0.0,0.0,0.0,0.0,0.0,0.0,0.0,0.0,0.0,0.0,0.0,0.0,0.0,0.0,0.0,-2.1687,0.0,0.0,0.0,0.0,0.0,0.0,0.0,0.0,0.0,-2.0925,-2.0862,-2.0915,-2.1401,-2.1311,-2.1095,-2.0783,0.0,0.0,0.0,0.0,0.0,0.0,0.0,-1.9193,-1.9193,-1.9193,-1.9193,-1.9193,-1.9193,-1.9193,-1.9193,0.0,0.0,-1.8829,-1.8271,-1.7842,-1.7842,-1.707,-1.638,-1.6109,-1.5753,-1.5264,0.0,0.0,0.0,0.0,0.0,0.0,0.0,0.0,-2.102,-2.137,0.0,-2.1258,0.0,0.0,0.0,0.0,0.0,-2.0905,0.0,0.0,-2.1285,-2.1428,-2.1476,-2.1846,-2.2043,-2.2027,-2.1655,-2.176,-2.2267,-2.1441,0.0,0.0,0.0,0.0,0.0,0.0,-2.1667,-2.31,-2.3089,-2.3727,-2.5201,-2.5611,-2.5846,-2.5986,-2.5252,-2.4849,-2.4794,-2.4459,-2.422,-2.4202,-2.4202,0.0,0.0,0.0,0.0,0.0,0.0,0.0,0.0,0.0,0.0,0.0,0.0,0.0,0.0,0.0,0.0,0.0,0.0,0.0,0.0,-2.1705,0.0,0.0,0.0,0.0,0.0,0.0,0.0,0.0,0.0,0.0,-2.1103,-2.0661,-2.0828,-2.2117,0.0,0.0,0.0,0.0,-2.028,-2.0168,-1.9699,-1.9542,-1.9861,-1.9893,-1.9893,-1.9893,0.0,0.0,-1.9909,-1.9909,-1.9893,-1.9909,-1.9877,-1.9702,-1.9002,-1.8845,-1.8829,-1.8829,-1.821,-1.7481,-1.6824,-1.5986,-1.5006,-2.2799,0.0,0.0,0.0,0.0,-2.2037,-2.218,-2.2418,-2.2418,-2.2243,-2.1995,-2.1804,0.0,0.0,0.0,0.0,0.0,0.0,-2.156,-2.2037,-2.2148,-2.2323,-2.2577,-2.2656,-2.272,-2.2704,-2.2792,-2.29,-2.3046,-2.2948,-2.26,-2.2046,0.0,0.0,0.0,0.0,-2.3014,-2.414,-2.4701,-2.55,-2.6591,-2.6718,-2.6646,-2.6408,-2.5947,-2.5543,-2.5267,-2.4863,-2.4514,-2.422,-2.4202,0.0,0.0,0.0,0.0,0.0,0.0,0.0,0.0,0.0,0.0,0.0,0.0,0.0,0.0,0.0,0.0,0.0,0.0,0.0,-2.1687,-2.1943,-2.2108,0.0,0.0,0.0,0.0,0.0,0.0,0.0,0.0,0.0,-2.1848,-2.169,-2.1725,0.0,0.0,-2.1508,-2.1535,-2.1307,-2.1006,-2.0583,-2.0408,0.0,-1.9957,-1.9909,-1.9909,-1.9909,-1.9909,-1.9909,-1.9909,-1.9909,-1.9909,-1.9909,-1.9909,-1.9845,-1.967,-1.9622,-1.9606,-1.951,-1.8933,-1.829,-1.8047,-1.7343,-1.6459,-2.5108,-2.3829,-2.3127,-2.2967,-2.3101,-2.3158,-2.3228,-2.3419,-2.3419,-2.334,-2.3181,-2.2768,-2.2625,-2.2656,-2.2125,0.0,0.0,0.0,-2.2379,-2.2704,-2.2831,-2.3085,-2.3419,-2.3435,-2.3671,-2.4014,-2.3868,-2.4067,-2.4565,-2.4299,-2.4208,-2.407,0.0,0.0,-2.3357,-2.3496,-2.421,-2.5326,-2.5827,-2.6513,-2.7398,-2.7307,-2.7068,-2.6811,-2.6315,-2.5911,-2.5653,-2.5267,-2.4882,-2.4477,-2.4459,-2.4167,0.0,0.0,0.0,0.0,0.0,0.0,0.0,0.0,0.0,0.0,0.0,-2.1925,-2.1925,0.0,0.0,0.0,-2.2181,-2.2181,-2.2181,-2.2382,0.0,0.0,0.0,0.0,0.0,0.0,0.0,-2.2715,-2.2464,-2.2469,-2.2901,-2.2774,-2.2509,-2.2433,-2.197,-2.16,-2.1434,0.0,-2.1209,-2.0868,-2.0865,-2.0863,-2.0546,-2.0496,-2.0448,-2.0305,-2.0289,-2.0289,-2.0273,-2.0289,-2.0323,-2.0289,-2.0289,-2.0289,-2.0289,-2.0273,-2.0227,-1.9972,-1.947,-1.9014,-1.872,-1.798,-1.72,-2.7615,-2.6869,-2.527,-2.4487,-2.4241,-2.4241,-2.4257,-2.4273,-2.4273,-2.4547,-2.5024,-2.4102,-2.3991,-2.4499,-2.3912,0.0,-2.3149,-2.3524,-2.354,-2.3285,-2.3677,-2.4013,-2.4451,-2.4467,-2.4925,-2.5817,-2.5119,-2.54,-2.6332,-2.5643,-2.5765,-2.661,-2.4932,-2.4332,-2.4703,-2.4612,-2.5251,-2.6646,-2.6605,-2.7001,-2.7801,-2.7453,-2.7251,-2.7178,-2.6499,-2.6094,-2.6002,-2.5672,-2.5286,-2.4849,-2.4831,-2.4698,-2.433,0.0,0.0,0.0,0.0,0.0,0.0,0.0,0.0,0.0,0.0,0.0,0.0,0.0,0.0,0.0,-2.2913,0.0,-2.2913,-2.2931,0.0,0.0,0.0,-2.3004,-2.3004,-2.3004,-2.3151,-2.3499,0.0,0.0,-2.4165,-2.3737,-2.3214,-2.2796,-2.2408,-2.1996,-2.1511,-2.1429,-2.1261,-2.1162,-2.1294,-2.1433,-2.1338,-2.127,-2.1127,-2.0909,-2.0925,-2.0877,-2.0877,-2.0893,-2.0909,-2.0877,-2.0909,-2.0909,-2.0909,-2.0877,-2.0718,-2.0132,-1.9922,-1.9613,-1.8954,-1.8174,-1.7438,-2.9173,-2.8809,-2.8925,-2.7567,-2.5262,-2.5262,-2.5405,-2.5706,-2.5706,-2.5437,-2.5103,-2.4849,-2.4531,-2.4241,-2.4293,-2.4277,-2.4213,-2.4827,-2.5359,-2.5863,-2.6415,-2.6895,-2.7311,-2.7328,-2.7441,-2.7679,-2.7661,-2.7639,-2.7594,-2.7629,-2.7573,-2.7508,-2.7373,-2.6879,-2.619,-2.6354,-2.6663,-2.7087,-2.7633,-2.8034,-2.8242,-2.815,-2.7801,-2.7196,-2.6995,-2.6646,-2.6039,-2.5929,-2.5637,-2.5252,-2.5234,-2.5231,-2.5139,-2.4845,0.0,0.0,0.0,0.0,0.0,0.0,0.0,0.0,0.0,-2.2748,-2.2748,0.0,-2.2693,0.0,-2.2913,-2.2913,-2.2913,-2.3187,0.0,0.0,-2.3675,-2.3908,-2.3877,-2.3908,-2.3914,-2.4005,-2.4055,-2.4091,-2.4183,-2.4102,-2.3727,-2.3097,-2.3003,-2.3047,-2.3232,-2.3251,-2.3032,-2.2468,-2.2225,-2.1921,-2.1501,-2.1159,-2.0968,-2.0889,-2.0925,-2.0925,-2.0925,-2.0925,-2.0925,-2.0925,-2.0925,-2.0925,-2.0925,-2.0925,-2.0877,-2.0651,-2.0163,-1.9704,-1.9499,-1.8817,-1.8147,-3.1101,-3.0116,-3.0769,-2.9581,-2.7311,-2.7149,-2.6906,-2.6678,-2.7003,-2.6923,-2.655,-2.6687,-2.6496,-2.5984,-2.6331,-2.6414,-2.6265,-2.6414,-2.6877,-2.7423,-2.7469,-2.786,-2.8489,-2.8381,-2.8507,-2.8916,-2.9083,-2.9199,-2.9231,-2.938,-2.925,-2.8865,-2.8883,-2.8498,-2.771,-2.804,-2.8168,-2.7985,-2.8773,-2.9104,-2.892,-2.8572,-2.8095,-2.7509,-2.7105,-2.6701,-2.6261,-2.6296,-2.6113,-2.5708,-2.5672,-2.5525,-2.5176,-2.4904,-2.4702,0.0,0.0,0.0,0.0,0.0,0.0,0.0,0.0,0.0,0.0,0.0,-2.2986,-2.3151,-2.3334,-2.3492,-2.3492,-2.3694,-2.3822,-2.3822,-2.4073,-2.4202,-2.4202,-2.4202,-2.4202,-2.4202,-2.4202,-2.4202,-2.4202,-2.4202,-2.4026,-2.3657,-2.363,-2.3651,-2.3497,-2.367,-2.3599,-2.3158,-2.3046,-2.2666,-2.1857,-2.1242,-2.0925,-2.0925,-2.0925,-2.0925,-2.0925,-2.0925,-2.0925,-2.0925,-2.0925,-2.0925,-2.0925,-2.0925,-2.0925,-2.0873,-2.0565,-2.0308,-2.0205,-1.9569,-1.8997,-3.2989,-3.1415,-3.187,-3.1147,-2.9658,-2.9428,-2.8658,-2.7662,-2.8212,-2.8444,-2.8511,-2.8881,-2.8781,-2.8484,-2.8781,-2.8747,-2.8403,-2.8135,-2.8246,-2.8513,-2.7989,-2.8222,-2.9107,-2.8858,-2.913,-2.9875,-3.001,-3.0329,-3.0864,-3.0919,-3.0736,-3.0351,-2.9984,-2.9659,-2.925,-2.9599,-2.958,-2.9159,-2.9782,-2.9947,-2.9562,-2.8847,-2.8242,-2.7822,-2.7105,-2.6683,-2.6591,-2.6591,-2.6426,-2.6113,-2.6094,-2.5782,-2.5069,-2.4959,-2.4826,0.0,-2.4385,0.0,0.0,0.0,0.0,0.0,0.0,0.0,0.0,-2.3389,-2.337,-2.37,-2.4097,-2.433,-2.4275,-2.4275,-2.4257,-2.4202,-2.4202,-2.4202,-2.4202,-2.4202,-2.4202,-2.4202,-2.4202,-2.4202,-2.4202,-2.4202,-2.4202,-2.4113,-2.4108,-2.3943,-2.3389,-2.3595,-2.3698,-2.3424,-2.347,-2.2901,-2.1937,-2.129,-2.0925,-2.0925,-2.0925,-2.0925,-2.0925,-2.0925,-2.0925,-2.0925,-2.0925,-2.0925,-2.0925,-2.0925,-2.0925,-2.0925,-2.0873,-2.0822,-2.0822,-2.0359,-1.9879,-3.4189,-3.3828,-3.3875,-3.2879,-3.1249,-3.1444,-3.0907,-2.9851,-2.941,-2.9378,-2.9645,-3.0001,-2.9793,-2.9145,-2.9553,-2.9453,-2.9158,-2.9618,-2.9877,-2.9936,-3.037,-3.0727,-3.0864,-3.0856,-3.092,-3.1093,-3.1421,-3.1468,-3.1267,-3.1616,-3.1579,-3.1194,-3.1084,-3.0846,-3.0479,0.0,0.0,0.0,-2.9782,-2.9654,-2.9562,-2.9122,-2.8517,-2.7858,-2.7618,0.0,-2.6628,-2.6591,-2.6554,-2.6481,-2.6481,0.0,0.0,0.0,0.0,0.0,0.0,0.0,0.0,0.0,0.0,0.0,-2.5032,-2.4886,-2.4592,-2.4776,-2.4941,-2.5014,-2.5157,-2.5065,-2.4753,-2.4666,-2.4569,-2.4257,-2.4202,-2.4202,-2.4202,-2.4202,-2.4202,-2.4202,-2.4202,-2.4202,-2.422,-2.4202,-2.4131,-2.4014,-2.4104,-2.418,-2.4175,-2.4211,-2.3964,-2.3074,-2.251,-2.1799,-2.1179,-2.102,-2.0925,-2.0925,-2.0925,-2.0925,-2.0925,-2.0925,-2.0925,-2.0925,-2.0925,-2.0925,-2.0925,-2.0925,-2.0925,-2.0925,-2.0925,-2.0925,-2.0925,-2.0755,-2.0668,-3.5442,0.0,-3.4902,-3.4126,0.0,-3.2703,-3.2523,-3.2063,-3.0925,-3.0783,-3.123,-3.1407,-3.1283,-3.0928,-3.1123,-3.1105,-3.0928,-3.0733,-3.0841,-3.1103,-3.0952,-3.1055,-3.1377,-3.1377,-3.1377,-3.1396,-3.1799,-3.1891,-3.1726,-3.2093,-3.2093,-3.1708,-3.1488,-3.1176,-3.0809,-3.0992,-3.0992,-3.0791,-3.0571,-3.0277,-2.9892,-2.9489,-2.8792,-2.7801,-2.762,0.0,0.0,0.0,0.0,0.0,0.0,0.0,0.0,-2.6131,0.0,-2.5727,-2.5543,-2.5362,-2.5362,-2.5362,-2.5362,-2.5381,-2.5598,-2.5561,-2.5157,-2.5304,-2.5362,-2.5362,-2.5362,-2.5341,-2.5087,-2.4904,-2.4702,-2.4532,-2.433,-2.4202,-2.422,-2.4385,-2.4514,-2.4514,-2.4514,-2.4514,-2.4514,-2.4312,-2.4194,-2.4058,-2.4149,-2.4249,-2.4329,-2.453,-2.4296,-2.3366,-2.2148,-2.1349,-2.1159,-2.102,-2.0925,-2.0925,-2.0925,-2.0925,-2.0925,-2.0925,-2.0925,-2.0925,-2.0925,-2.0925,-2.0925,-2.0925,-2.0925,-2.0925,-2.0925,-2.0925,-2.0925,-2.0925,-2.0925,-3.6749,-3.5556,-3.5623,-3.5121,-3.4197,-3.3679,-3.3621,-3.3692,0.0,0.0,0.0,-3.2808,-3.2771,-3.2698,-3.2698,-3.2698,-3.2612,-3.1625,-3.1475,-3.1917,-3.0929,-3.0797,-3.1377,-3.1377,-3.1377,-3.1396,-3.1873,-3.2111,-3.2129,-3.257,-3.2643,-3.2313,-3.1909,-3.1506,-3.1121,-3.1102,-3.1267,-3.1561,-3.1377,-3.0956,-3.0314,-2.9819,-2.9067,-2.8003,-2.76,-2.7196,-2.6811,-2.6738,-2.6683,-2.6683,-2.6628,-2.6426,-2.6149,-2.6131,-2.5984,-2.5672,-2.5582,-2.5582,-2.5635,-2.5582,-2.5635,-2.5582,-2.5947,-2.5931,-2.5653,-2.5635,-2.5582,-2.5635,-2.5635,-2.5617,-2.5472,-2.5197,-2.4959,-2.4886,-2.4624,-2.4422,-2.444,-2.4716,-2.4867,-2.4812,-2.4757,-2.4739,-2.4629,-2.4404,-2.4202,-2.4202,-2.422,-2.4202,-2.4238,-2.4313,-2.4215,-2.353,-2.2317,-2.1426,-2.1254,-2.1064,-2.0941,-2.0925,-2.0925,-2.0925,-2.0925,-2.0925,-2.0925,-2.0925,-2.0925,-2.0925,-2.0925,-2.0925,-2.0925,-2.0925,-2.0925,-2.0925,-2.0925,-2.0925,-2.0925,-3.7769,-3.7522,-3.6547,-3.5815,-3.5321,-3.4591,-3.4043,-3.3798,-3.355,-3.3564,-3.3633,-3.3633,-3.345,-3.3138,-3.3138,-3.3138,-3.3083,-3.2217,-3.1935,-3.1983,-3.1431,-3.1313,-3.1377,-3.1377,-3.1377,-3.1433,-3.2148,-3.2514,-3.2588,-3.3266,-3.3615,-3.3505,-3.3156,-3.2735,-3.2368,-3.2349,-3.2368,-3.2404,-3.1396,-3.0809,-3.0699,-2.9965,-2.9384,-2.8828,-2.8425,-2.8022,-2.7618,-2.727,-2.7086,-2.7086,-2.6774,-2.6554,-2.6499,-2.6499,-2.6481,-2.6426,-2.6408,-2.6426,-2.6408,-2.6426,-2.6408,-2.6426,-2.6463,-2.6481,-2.6426,-2.6426,-2.6408,-2.6426,-2.6371,-2.6261,-2.5984,-2.5855,-2.5672,-2.5344,-2.5286,-2.5249,-2.5212,-2.5286,-2.5161,-2.4849,-2.4845,-2.4647,-2.4422,-2.4275,-2.4202,-2.4202,-2.4202,-2.4202,-2.4121,-2.3791,-2.3467,-2.3117,-2.2331,-2.1517,-2.1226,-2.0972,-2.0976,-2.0925,-2.0925,-2.0925,-2.0925,-2.0925,-2.0925,-2.0925,-2.0925,-2.0925,-2.0925,-2.0925,-2.0925,-2.0925,-2.0925,-2.0925,-2.0925,-2.0925,-2.0925,-3.8144,-3.8199,-3.7044,-3.6439,-3.6182,-3.4935,-3.4312,-3.411,-3.3908,-3.3945,-3.4147,-3.4367,-3.4367,-3.4183,-3.3963,-3.4,-3.4165,-3.3138,-3.279,-3.2936,-3.2331,-3.2038,-3.2038,-3.2038,-3.2038,-3.2074,-3.2404,-3.2606,-3.2661,-3.3211,-3.3486,-3.3486,-3.3303,-3.3028,-3.2625,-3.2606,-3.2496,-3.2276,-3.1726,-3.1341,-3.1102,-3.0332,-2.9617,-2.9012,-2.8608,-2.8187,-2.784,-2.76,-2.749,-2.7546,-2.7123,-2.6903,-2.6903,-2.6701,-2.6591,-2.6591,-2.6591,-2.6591,-2.6591,-2.6591,-2.6591,-2.6591,-2.6591,-2.6591,-2.6591,-2.6591,-2.6591,-2.6591,-2.6591,-2.6518,-2.637,-2.6096,-2.5929,-2.5764,-2.5561,-2.5381,-2.5451,-2.5635,-2.558,-2.5179,-2.5106,-2.4941,-2.4537,-2.4349,-2.4202,-2.4202,-2.4202,-2.4202,-2.4202,-2.4003,-2.3641,-2.323,-2.257,-2.2148,-2.1776,-2.1522,-2.1369,-2.1318,-2.1078,-2.0925,-2.0925,-2.0925,-2.0925,-2.0925,-2.0925,-2.0925,-2.0925,-2.0925,-2.0925,-2.0925,-2.0925,-2.0925,-2.0925,-2.0925,-2.0925,-3.8199,-3.8401,-3.7191,-3.6549,-3.6182,-3.4844,-3.4275,-3.4238,-3.4037,-3.4165,-3.455,-3.4788,-3.4935,-3.499,-3.4678,-3.477,-3.4972,-3.4,-3.3651,-3.3853,-3.3101,-3.2735,-3.2716,-3.2643,-3.2606,-3.2606,-3.268,-3.2735,-3.279,-3.3156,-3.3358,-3.3358,-3.3358,-3.3193,-3.2881,-3.2863,-3.2716,-3.2423,-3.2221,-3.1891,-3.1377,-3.0699,-3.002,-2.9415,-2.892,-2.8498,-2.8244,-2.8061,-2.7969,-2.795,-2.7509,-2.7178,-2.716,-2.6793,-2.6591,-2.6591,-2.6591,-2.6591,-2.6591,-2.6591,-2.6591,-2.6591,-2.6591,-2.6591,-2.6591,-2.6591,-2.6591,-2.6591,-2.6591,-2.6573,-2.6536,-2.6316,-2.6149,-2.6078,-2.5892,-2.5693,-2.5745,-2.5913,-2.5947,-2.5491,-2.5362,-2.5249,-2.4771,-2.4404,-2.422,-2.4202,-2.4202,-2.4202,-2.4202,-2.4202,-2.4003,-2.3587,-2.302,-2.2636,-2.2518,-2.2182,-2.1928,-2.1878,-2.1573,-2.142,-2.1318,-2.1216,-2.1078,-2.113,-2.0976,-2.0925,-2.0925,-2.0925,-2.0925,-2.0925,-2.0925,-2.0925,-2.0925,-2.0925,-2.0925,-3.8034,-3.7888,-3.6787,-3.5614,-3.4697,-3.4128,-3.389,-3.3927,-3.4183,-3.4587,-3.4862,-3.4623,-3.4697,-3.499,-3.499,-3.5174,-3.5467,-3.4678,-3.4293,-3.4238,-3.3523,-3.3175,-3.312,-3.279,-3.2606,-3.2661,-3.2991,-3.3156,-3.3156,-3.3541,-3.3743,-3.3762,-3.3762,-3.3725,-3.3688,-3.3688,-3.367,-3.3633,-3.2918,-3.2166,-3.1414,-3.0956,-3.0699,-3.0626,-2.9855,-2.9512,-2.9324,-2.8718,-2.8333,-2.8278,-2.76,-2.7178,-2.716,-2.6811,-2.6591,-2.6591,-2.6591,-2.6591,-2.6591,-2.6591,-2.6591,-2.6591,-2.6591,-2.6591,-2.6591,-2.6591,-2.6591,-2.6591,-2.6591,-2.6591,-2.6591,-2.6536,-2.6481,-2.6463,-2.6426,-2.6481,-2.6426,-2.6499,-2.6243,-2.5506,-2.5451,-2.5139,-2.4514,-2.4257,-2.422,-2.4202,-2.4202,-2.4202,-2.4202,-2.4202,-2.4202,-2.4003,-2.3587,-2.307,-2.2719,-2.2485,-2.2434,-2.2417,-2.2367,-2.2182,-2.203,-2.1776,-2.1623,-2.1267,-2.1181,-2.0925,-2.0925,-2.0925,-2.0925,-2.0925,-2.0925,-2.0925,-2.0925,-2.0925,-2.0925,-3.7521,-3.7301,-3.7044,-3.6237,-3.5119,-3.444,-3.4037,-3.3835,-3.3982,-3.4147,-3.4312,-3.4367,-3.4899,-3.5687,-3.5485,-3.5467,-3.5559,-3.477,-3.4403,-3.4348,-3.3817,-3.3578,-3.356,-3.3413,-3.3211,-3.301,-3.3376,-3.345,-3.3321,-3.3633,-3.3817,-3.3817,-3.3817,-3.3817,-3.3817,-3.3817,-3.3578,-3.3101,-3.2771,-3.2203,-3.1433,-3.0992,-3.0791,-3.0699,-2.9984,-2.958,-2.9525,-2.903,-2.8737,-2.8718,-2.8205,-2.7893,-2.7893,-2.7508,-2.7178,-2.6958,-2.6719,-2.6591,-2.6591,-2.6591,-2.6591,-2.6591,-2.6591,-2.6591,-2.6591,-2.6591,-2.6591,-2.6591,-2.6591,-2.6591,-2.6591,-2.6591,-2.6591,-2.6591,-2.6591,-2.6591,-2.6591,-2.6591,-2.6334,-2.5855,-2.5561,-2.5179,-2.4679,-2.4349,-2.422,-2.4202,-2.4202,-2.4202,-2.4202,-2.4202,-2.4202,-2.4202,-2.4003,-2.3786,-2.3488,-2.3188,-2.3038,-2.2937,-2.2686,-2.2485,-2.2131,-2.1928,-2.1623,-2.1334,-2.1078,-2.0925,-2.0925,-2.0925,-2.0925,-2.0909,-2.0925,-2.0925,-2.0925,-2.0925,-2.0925,-3.7099,-3.6842,-3.673,-3.6146,-3.5082,-3.4495,-3.4073,-3.3835,-3.3817,-3.3872,-3.4,-3.4275,-3.4935,-3.576,-3.5577,-3.5449,-3.5375,-3.4844,-3.4568,-3.4532,-3.4165,-3.3963,-3.3963,-3.3853,-3.367,-3.3468,-3.367,-3.367,-3.345,-3.3651,-3.3817,-3.3817,-3.3817,-3.3817,-3.3817,-3.3817,-3.3523,-3.2973,-3.2735,-3.2294,-3.1744,-3.1212,-3.0956,-3.0882,-3.0277,-2.9855,-2.9727,-2.936,-2.9085,-2.8975,-2.8608,-2.8407,-2.8388,-2.8003,-2.7581,-2.7196,-2.6811,-2.6591,-2.6591,-2.6591,-2.6591,-2.6591,-2.6591,-2.6591,-2.6591,-2.6591,-2.6591,-2.6591,-2.6591,-2.6591,-2.6591,-2.6591,-2.6591,-2.6591,-2.6591,-2.6591,-2.6591,-2.6591,-2.648,-2.6058,-2.5653,-2.5212,-2.4735,-2.4385,-2.4202,-2.4202,-2.4202,-2.4202,-2.4202,-2.4202,-2.4202,-2.4202,-2.4202,-2.4152,-2.4152,-2.3836,-2.3587,-2.3488,-2.3238,-2.2937,-2.2384,-2.2232,-2.1928,-2.1827,-2.1283,-2.0925,-2.0925,-2.0925,-2.0829,-2.0813,-2.0813,-2.0829,-2.075,-2.0829,-2.0909,-3.6785,-3.6659,-3.5614,-3.4733,-3.3908,-3.389,-3.3853,-3.3817,-3.3817,-3.4,-3.4293,-3.4385,-3.466,-3.4992,-3.5045,-3.5045,-3.5045,-3.499,-3.4882,-3.4899,-3.455,-3.4385,-3.4348,-3.4,-3.3817,-3.3798,-3.389,-3.3872,-3.3798,-3.3817,-3.3817,-3.3817,-3.3817,-3.3817,-3.3817,-3.3798,-3.378,-3.3578,-3.2918,-3.2533,-3.2404,-3.1726,-3.1322,-3.1286,-3.0937,-3.0497,-3.0167,-2.9764,-2.9379,-2.8993,-2.8627,-2.8407,-2.837,-2.8022,-2.7675,-2.7215,-2.683,-2.6591,-2.6591,-2.6591,-2.6591,-2.6591,-2.6591,-2.6591,-2.6591,-2.6591,-2.6591,-2.6591,-2.6591,-2.6591,-2.6591,-2.6591,-2.6591,-2.6591,-2.6591,-2.6591,-2.6591,-2.6591,-2.6408,-2.6094,-2.569,-2.512,-2.4385,-2.422,-2.4202,-2.4202,-2.4202,-2.4202,-2.4202,-2.4202,-2.4202,-2.4202,-2.4202,-2.4202,-2.4202,-2.4053,-2.4102,-2.4003,-2.3904,-2.3904,-2.3687,-2.3338,-2.2787,-2.2182,-2.1522,-2.1062,-2.0976,-2.0829,-2.0655,-2.0623,-2.067,-2.0655,-2.0448,-2.0718,-2.0782,-3.6292,-3.5944,-3.4752,-3.422,-3.4165,-3.3927,-3.3817,-3.3817,-3.3817,-3.389,-3.4055,-3.4275,-3.4348,-3.4257,-3.4513,-3.4623,-3.4642,-3.4917,-3.488,-3.466,-3.4733,-3.4807,-3.4788,-3.4642,-3.444,-3.4257,-3.4458,-3.4458,-3.4202,-3.4183,-3.4055,-3.3835,-3.3817,-3.3817,-3.378,-3.356,-3.3431,-3.3358,-3.2625,-3.2221,-3.2184,-3.1671,-3.1377,-3.1359,-3.0992,-3.0607,-3.0222,-2.98,-2.9397,-2.8993,-2.8847,-2.8773,-2.8737,-2.8388,-2.7985,-2.7581,-2.7178,-2.6848,-2.6628,-2.6591,-2.6591,-2.6591,-2.6591,-2.6591,-2.6591,-2.6591,-2.6591,-2.6591,-2.6591,-2.6591,-2.6591,-2.6591,-2.6591,-2.6591,-2.6591,-2.6591,-2.6591,-2.6591,-2.6518,-2.6298,-2.5855,-2.5102,-2.4459,-2.4202,-2.4202,-2.4202,-2.4202,-2.4202,-2.4202,-2.4202,-2.4202,-2.4202,-2.4202,-2.4053,-2.3637,-2.4003,-2.4202,-2.4202,-2.4102,-2.3836,-2.3587,-2.3384,-2.2885,-2.2399,-2.176,-2.129,-2.1174,-2.0596,-2.0452,-2.0241,-2.0305,-2.0337,-2.0083,-2.0384,-2.0416,-3.5981,-3.5504,-3.4605,-3.4275,-3.4348,-3.3982,-3.3817,-3.3817,-3.3817,-3.3817,-3.3872,-3.4092,-3.4055,-3.389,-3.4092,-3.4202,-3.4238,-3.4513,-3.455,-3.444,-3.4697,-3.4899,-3.5009,-3.5027,-3.488,-3.4642,-3.4733,-3.4678,-3.4422,-3.4275,-3.4073,-3.3835,-3.3817,-3.3817,-3.3762,-3.3541,-3.3358,-3.312,-3.2533,-3.2148,-3.1983,-3.1598,-3.1377,-3.1341,-3.1121,-3.0736,-3.0222,-2.991,-2.9525,-2.9067,-2.8975,-2.8975,-2.8938,-2.848,-2.8058,-2.7822,-2.727,-2.6885,-2.6646,-2.6591,-2.6591,-2.6591,-2.6591,-2.6591,-2.6591,-2.6591,-2.6591,-2.6591,-2.6591,-2.6591,-2.6591,-2.6591,-2.6591,-2.6591,-2.6591,-2.6591,-2.6591,-2.6591,-2.6444,-2.6133,-2.5745,-2.5084,-2.4404,-2.4238,-2.4202,-2.4202,-2.4202,-2.4202,-2.4202,-2.4202,-2.4202,-2.4202,-2.4202,-2.3904,-2.3538,-2.3637,-2.3587,-2.3555,-2.3854,-2.3637,-2.3534,-2.3349,-2.3029,-2.2613,-2.2146,-2.1695,-2.1114,-2.0523,-2.015,-1.9909,-1.9988,-2.0084,-1.9987,-2.0067,-2.0067,-3.5944,-3.554,-3.5174,-3.466,-3.4312,-3.3963,-3.3817,-3.3817,-3.3817,-3.3817,-3.3817,-3.3872,-3.3927,-3.3872,-3.4,-3.3908,-3.3982,-3.4018,-3.4183,-3.4458,-3.4532,-3.477,-3.5119,-3.5155,-3.5155,-3.5082,-3.4678,-3.4477,-3.444,-3.4165,-3.3963,-3.3835,-3.3817,-3.3817,-3.3817,-3.3725,-3.356,-3.3193,-3.2735,-3.2349,-3.2019,-3.1598,-3.1377,-3.1377,-3.1341,-3.0974,-3.0241,-3.0185,-2.9782,-2.9085,-2.8975,-2.8975,-2.8883,-2.8333,-2.782,-2.7748,-2.7068,-2.6683,-2.6591,-2.6591,-2.6591,-2.6591,-2.6591,-2.6591,-2.6591,-2.6591,-2.6591,-2.6591,-2.6591,-2.6591,-2.6591,-2.6591,-2.6591,-2.6591,-2.6591,-2.6591,-2.6591,-2.6591,-2.6298,-2.5674,-2.547,-2.5084,-2.4477,-2.422,-2.4202,-2.4202,-2.4202,-2.4202,-2.4202,-2.4202,-2.4202,-2.4202,-2.4152,-2.3954,-2.3587,-2.3288,-2.2937,-2.2787,-2.3238,-2.337,-2.348,-2.3377,-2.318,-2.2765,-2.1948,-2.1487,-2.0834,-2.0265,-1.9878,-1.9685,-1.9797,-1.975,-1.9685,-1.9685,-1.9765,-3.532,-3.5137,-3.4477,-3.4128,-3.4,-3.3872,-3.3817,-3.3817,-3.3817,-3.3817,-3.3872,-3.4092,-3.422,-3.4293,-3.4513,-3.4642,-3.4623,-3.4385,-3.444,-3.4825,-3.51,-3.5412,-3.5742,-3.5815,-3.5852,-3.5815,-3.5705,-3.5339,-3.488,-3.4697,-3.4403,-3.3927,-3.3817,-3.3817,-3.3798,-3.3541,-3.3321,-3.3156,-3.2533,-3.2129,-3.1983,-3.1598,-3.1377,-3.1377,-3.1377,-3.1011,-3.0277,-3.0204,-2.98,-2.903,-2.8975,-2.8975,-2.892,-2.8737,-2.8352,-2.7877,-2.762,-2.716,-2.6664,-2.6591,-2.6591,-2.6591,-2.6591,-2.6591,-2.6591,-2.6591,-2.6591,-2.6591,-2.6591,-2.6591,-2.6591,-2.6591,-2.6591,-2.6591,-2.6591,-2.6591,-2.6591,-2.6591,-2.6334,-2.5929,-2.5598,-2.5194,-2.4735,-2.444,-2.4202,-2.4202,-2.4202,-2.4202,-2.4202,-2.4202,-2.4202,-2.4202,-2.4102,-2.3904,-2.3388,-2.2987,-2.2736,-2.2636,-2.2937,-2.3288,-2.3398,-2.3358,-2.316,-2.2733,-2.1922,-2.1241,-2.0631,-2.0086,-1.9734,-1.9368,-1.9256,-1.9225,-1.9193,-1.9272,-1.9399,-3.5155,-3.4882,-3.4312,-3.4037,-3.4037,-3.4037,-3.3945,-3.3853,-3.3982,-3.4037,-3.4092,-3.4293,-3.4495,-3.466,-3.4917,-3.5027,-3.499,-3.4733,-3.4862,-3.5192,-3.5302,-3.5687,-3.6127,-3.6201,-3.6201,-3.6164,-3.6054,-3.5742,-3.5265,-3.5082,-3.4678,-3.4128,-3.4037,-3.3945,-3.3817,-3.3578,-3.334,-3.2973,-3.2496,-3.2074,-3.1781,-3.1524,-3.1377,-3.1359,-3.1231,-3.0827,-3.0259,-3.0057,-2.9654,-2.9122,-2.8975,-2.8975,-2.8975,-2.8828,-2.8535,-2.8095,-2.7691,-2.7306,-2.6866,-2.6683,-2.6591,-2.6591,-2.6591,-2.6591,-2.6591,-2.6591,-2.6591,-2.6591,-2.6591,-2.6591,-2.6591,-2.6591,-2.6591,-2.6591,-2.6591,-2.6591,-2.6591,-2.6591,-2.6443,-2.6039,-2.5672,-2.5267,-2.4882,-2.4477,-2.422,-2.4202,-2.4202,-2.4202,-2.4202,-2.4202,-2.4202,-2.4202,-2.4152,-2.3755,-2.3038,-2.2736,-2.2535,-2.2585,-2.2787,-2.3138,-2.3402,-2.3226,-2.3074,-2.2499,-2.179,-2.1238,-2.0587,-1.9989,-1.9511,-1.9193,-1.9002,-1.9225,-1.9368,-1.9129,-1.9177,-3.5357,-3.4954,-3.4532,-3.4312,-3.4312,-3.4348,-3.4147,-3.3908,-3.4202,-3.433,-3.433,-3.4293,-3.4587,-3.4935,-3.5009,-3.5082,-3.51,-3.5009,-3.5174,-3.5357,-3.5265,-3.5394,-3.6109,-3.6201,-3.6201,-3.6146,-3.5889,-3.5687,-3.554,-3.5265,-3.4825,-3.4403,-3.433,-3.4183,-3.3872,-3.3798,-3.3395,-3.2735,-3.2588,-3.2184,-3.1488,-3.1377,-3.1377,-3.1359,-3.1066,-3.0699,-3.0241,-2.9782,-2.9379,-2.903,-2.8975,-2.8975,-2.892,-2.8627,-2.848,-2.8333,-2.7636,-2.7306,-2.716,-2.6793,-2.6591,-2.6591,-2.6591,-2.6591,-2.6591,-2.6591,-2.6591,-2.6591,-2.6591,-2.6591,-2.6591,-2.6591,-2.6591,-2.6591,-2.6591,-2.6591,-2.6591,-2.6591,-2.648,-2.6131,-2.5708,-2.5323,-2.4922,-2.4551,-2.433,-2.4202,-2.4202,-2.4202,-2.4202,-2.4202,-2.4202,-2.4202,-2.4202,-2.3786,-2.3188,-2.2937,-2.2787,-2.2837,-2.2953,-2.315,-2.3273,-2.3123,-2.2748,-2.2178,-2.1678,-2.1142,-2.056,-1.9952,-1.9526,-1.932,-1.9336,-1.9542,-1.9463,-1.9225,-1.9082,-3.4935,-3.4532,-3.4128,-3.3963,-3.4018,-3.4275,-3.4183,-3.389,-3.4238,-3.4293,-3.4055,-3.3963,-3.4403,-3.499,-3.5045,-3.532,-3.5577,-3.5265,-3.5247,-3.5449,-3.488,-3.5229,-3.6017,-3.6201,-3.6201,-3.6182,-3.6072,-3.5889,-3.5632,-3.5522,-3.51,-3.4422,-3.4422,-3.4202,-3.3872,-3.3817,-3.3395,-3.2716,-3.2606,-3.2203,-3.1524,-3.1377,-3.1377,-3.1359,-3.1249,-3.0827,-3.0204,-2.9507,-2.9104,-2.9012,-2.8975,-2.8975,-2.8975,-2.8865,-2.8682,-2.8388,-2.793,-2.7471,-2.7178,-2.6811,-2.6609,-2.6591,-2.6591,-2.6591,-2.6591,-2.6591,-2.6591,-2.6591,-2.6591,-2.6591,-2.6591,-2.6591,-2.6591,-2.6591,-2.6591,-2.6591,-2.6591,-2.6591,-2.6591,-2.6443,-2.6094,-2.5672,-2.5304,-2.4849,-2.4551,-2.4312,-2.422,-2.4202,-2.4202,-2.4202,-2.4202,-2.4202,-2.4152,-2.3836,-2.3488,-2.3288,-2.3138,-2.3188,-2.3217,-2.3242,-2.3214,-2.2928,-2.2455,-2.1871,-2.1485,-2.0977,-2.0445,-1.9849,-1.968,-1.9511,-1.9558,-1.9622,-1.9558,-1.932,-1.9193,-3.4788,-3.4367,-3.3982,-3.3817,-3.389,-3.4422,-3.444,-3.4202,-3.4477,-3.466,-3.4513,-3.4183,-3.4513,-3.521,-3.5119,-3.5265,-3.5595,-3.5229,-3.5265,-3.554,-3.5339,-3.5522,-3.5925,-3.6091,-3.6201,-3.6201,-3.6201,-3.6072,-3.5907,-3.587,-3.543,-3.4825,-3.466,-3.4367,-3.3835,-3.3798,-3.3413,-3.2753,-3.257,-3.2203,-3.1451,-3.1377,-3.1377,-3.1286,-3.1084,-3.0516,-2.9727,-2.9214,-2.8975,-2.8975,-2.8975,-2.8975,-2.8975,-2.8975,-2.8865,-2.8627,-2.8095,-2.7711,-2.738,-2.6921,-2.6609,-2.6591,-2.6591,-2.6591,-2.6591,-2.6591,-2.6591,-2.6591,-2.6591,-2.6591,-2.6591,-2.6591,-2.6591,-2.6591,-2.6591,-2.6591,-2.6591,-2.6591,-2.6591,-2.6499,-2.6224,-2.5947,-2.5672,-2.5194,-2.4739,-2.4464,-2.4312,-2.4257,-2.4202,-2.422,-2.4202,-2.4202,-2.4202,-2.4003,-2.3737,-2.3538,-2.3538,-2.3538,-2.3462,-2.3466,-2.3166,-2.2913,-2.2584,-2.2089,-2.1445,-2.0934,-2.053,-2.0105,-1.9829,-1.9734,-1.9734,-1.9797,-1.9749,-1.9638,-1.9447,-3.4788,-3.4367,-3.3982,-3.3835,-3.4,-3.4623,-3.4715,-3.4587,-3.4825,-3.5155,-3.5229,-3.4733,-3.4844,-3.5522,-3.5137,-3.5045,-3.5064,-3.4972,-3.5137,-3.543,-3.5669,-3.5889,-3.5705,-3.6054,-3.6182,-3.6201,-3.6201,-3.6182,-3.6109,-3.6127,-3.5724,-3.51,-3.4935,-3.4532,-3.3963,-3.3817,-3.3395,-3.2845,-3.2625,-3.2258,-3.1634,-3.1433,-3.1377,-3.1286,-3.0772,-3.013,-2.9507,-2.9122,-2.9048,-2.8975,-2.8975,-2.8975,-2.8975,-2.8975,-2.8975,-2.881,-2.8223,-2.7803,-2.7693,-2.7013,-2.6591,-2.6591,-2.6591,-2.6591,-2.6591,-2.6591,-2.6591,-2.6591,-2.6591,-2.6591,-2.6591,-2.6591,-2.6591,-2.6591,-2.6591,-2.6591,-2.6591,-2.6591,-2.6591,-2.6573,-2.6296,-2.6113,-2.5837,-2.5451,-2.4904,-2.4867,-2.4698,-2.4587,-2.4496,-2.4422,-2.433,-2.4202,-2.4202,-2.4202,-2.4003,-2.3786,-2.3854,-2.3935,-2.3772,-2.3639,-2.3311,-2.3041,-2.2876,-2.2467,-2.1896,-2.1401,-2.0998,-2.0562,-2.0168,-1.9955,-1.9971,-2.0162,-2.0305,-2.0051,-1.986,-3.4788,-3.4367,-3.3963,-3.3982,-3.4275,-3.4477,-3.4678,-3.4917,-3.499,-3.5137,-3.5119,-3.4954,-3.499,-3.5174,-3.5064,-3.5027,-3.4917,-3.4715,-3.4605,-3.4733,-3.543,-3.5669,-3.5687,-3.5999,-3.6182,-3.6201,-3.6201,-3.6201,-3.6146,-3.5889,-3.5522,-3.5082,-3.4715,-3.4312,-3.389,-3.3798,-3.3596,-3.3101,-3.2771,-3.2349,-3.1891,-3.1524,-3.1359,-3.1304,-3.0882,-3.0424,-2.9984,-2.9617,-2.9305,-2.9067,-2.8975,-2.8975,-2.8975,-2.8975,-2.8975,-2.881,-2.8318,-2.784,-2.7693,-2.7086,-2.6591,-2.6591,-2.6591,-2.6591,-2.6591,-2.6591,-2.6591,-2.6591,-2.6591,-2.6591,-2.6591,-2.6591,-2.6591,-2.6591,-2.6591,-2.6591,-2.6591,-2.6591,-2.6591,-2.6554,-2.6499,-2.6334,-2.6076,-2.5911,-2.5509,-2.5307,-2.5087,-2.4941,-2.479,-2.4587,-2.4422,-2.422,-2.4202,-2.4202,-2.4152,-2.3954,-2.4053,-2.4102,-2.4005,-2.3877,-2.3547,-2.3279,-2.3133,-2.2797,-2.2321,-2.189,-2.1575,-2.0956,-2.0541,-2.0409,-2.0307,-2.04,-2.0464,-2.0305,-2.0273,-3.5174,-3.4917,-3.433,-3.433,-3.466,-3.4715,-3.4935,-3.5247,-3.5302,-3.5412,-3.5467,-3.5229,-3.5027,-3.5009,-3.4825,-3.4642,-3.4495,-3.4458,-3.4403,-3.455,-3.5064,-3.532,-3.543,-3.5742,-3.5999,-3.6146,-3.6201,-3.6201,-3.6109,-3.5797,-3.543,-3.5027,-3.4605,-3.4238,-3.3872,-3.3817,-3.3596,-3.3211,-3.2808,-3.2404,-3.2001,-3.1598,-3.1249,-3.1121,-3.0864,-3.0534,-2.991,-2.969,-2.936,-2.9085,-2.8975,-2.8975,-2.8975,-2.8975,-2.8975,-2.8865,-2.8443,-2.7948,-2.7673,-2.7289,-2.6793,-2.6591,-2.6591,-2.6591,-2.6591,-2.6591,-2.6591,-2.6591,-2.6591,-2.6591,-2.6591,-2.6591,-2.6591,-2.6591,-2.6591,-2.6591,-2.6591,-2.6591,-2.6591,-2.6591,-2.6573,-2.6481,-2.6316,-2.6186,-2.5855,-2.5488,-2.5051,-2.4886,-2.4532,-2.4367,-2.4349,-2.4238,-2.422,-2.4202,-2.4202,-2.4152,-2.4152,-2.4152,-2.4115,-2.4091,-2.3877,-2.3675,-2.351,-2.3123,-2.2823,-2.2588,-2.2236,-2.1588,-2.1032,-2.0867,-2.0766,-2.0694,-2.0623,-2.0607,-2.0591,-3.5849,-3.5593,-3.4836,-3.4692,-3.4899,-3.4844,-3.5045,-3.5467,-3.5522,-3.5577,-3.5889,-3.5339,-3.51,-3.488,-3.4587,-3.4183,-3.4037,-3.4238,-3.4403,-3.4477,-3.488,-3.5082,-3.5192,-3.5485,-3.5797,-3.6109,-3.6182,-3.6201,-3.6091,-3.576,-3.532,-3.4972,-3.4513,-3.4128,-3.3872,-3.3798,-3.367,-3.3358,-3.2863,-3.2478,-3.2093,-3.1671,-3.1249,-3.1047,-3.0937,-3.0552,-2.9984,-2.9709,-2.947,-2.903,-2.8975,-2.8975,-2.8975,-2.8975,-2.8975,-2.8957,-2.8572,-2.8168,-2.7822,-2.7436,-2.6995,-2.6628,-2.6591,-2.6591,-2.6591,-2.6591,-2.6591,-2.6591,-2.6591,-2.6591,-2.6591,-2.6591,-2.6591,-2.6591,-2.6591,-2.6591,-2.6591,-2.6591,-2.6591,-2.6591,-2.6591,-2.6536,-2.6444,-2.6298,-2.5984,-2.5635,-2.5216,-2.4867,-2.4569,-2.4349,-2.4459,-2.4349,-2.4312,-2.422,-2.4202,-2.4202,-2.4202,-2.4202,-2.4202,-2.4183,-2.4146,-2.4018,-2.3785,-2.3651,-2.3401,-2.309,-2.2681,-2.2055,-2.161,-2.1346,-2.1044,-2.0836,-2.0829,-2.0909,-2.0861,-3.7168,-3.5889,-3.5463,-3.4947,-3.4492,-3.4183,-3.4495,-3.5064,-3.5155,-3.5155,-3.5265,-3.5412,-3.5082,-3.4642,-3.4458,-3.4183,-3.3982,-3.4165,-3.4348,-3.4422,-3.4752,-3.4917,-3.4972,-3.5265,-3.5577,-3.5779,-3.5962,-3.6109,-3.5981,-3.5504,-3.5137,-3.488,-3.4293,-3.3872,-3.3853,-3.3798,-3.3725,-3.3468,-3.29,-3.2478,-3.2258,-3.1744,-3.1341,-3.1212,-3.1212,-3.0791,-3.0259,-3.0039,-2.9745,-2.9085,-2.8993,-2.8975,-2.8975,-2.8975,-2.8975,-2.8902,-2.8663,-2.8278,-2.7914,-2.7491,-2.7031,-2.6701,-2.6591,-2.6591,-2.6591,-2.6591,-2.6591,-2.6591,-2.6591,-2.6591,-2.6591,-2.6591,-2.6591,-2.6591,-2.6591,-2.6591,-2.6591,-2.6591,-2.6591,-2.6591,-2.6591,-2.6591,-2.6518,-2.6444,-2.6278,-2.6058,-2.5821,-2.5527,-2.5286,-2.5047,-2.4937,-2.4716,-2.4372,-2.4312,-2.4202,-2.4202,-2.4202,-2.4202,-2.4202,-2.4202,-2.4183,-2.4202,-2.4079,-2.3919,-2.3712,-2.3492,-2.3001,-2.2492,-2.2079,-2.1745,-2.1357,-2.0925,-2.0925,-2.0925,-2.0925,-3.8117,-3.7193,-3.674,-3.6128,-3.5506,-3.5135,-3.4952,-3.4972,-3.5027,-3.5027,-3.5082,-3.5192,-3.499,-3.4513,-3.4403,-3.4183,-3.3963,-3.3982,-3.4092,-3.4165,-3.4312,-3.4403,-3.4477,-3.4825,-3.4954,-3.51,-3.5375,-3.5742,-3.5834,-3.5339,-3.4935,-3.4605,-3.4092,-3.3817,-3.3743,-3.3596,-3.3541,-3.334,-3.2753,-3.2294,-3.2258,-3.1671,-3.1414,-3.1377,-3.1322,-3.0956,-3.0369,-3.0204,-2.98,-2.9159,-2.8975,-2.8975,-2.8975,-2.8975,-2.8975,-2.8938,-2.8792,-2.8517,-2.8113,-2.771,-2.7325,-2.6995,-2.6738,-2.6591,-2.6591,-2.6591,-2.6591,-2.6591,-2.6591,-2.6591,-2.6591,-2.6591,-2.6591,-2.6591,-2.6591,-2.6591,-2.6591,-2.6591,-2.6591,-2.6591,-2.6591,-2.6591,-2.6591,-2.6518,-2.6499,-2.6371,-2.6316,-2.6096,-2.5874,-2.5561,-2.5249,-2.4794,-2.4496,-2.4312,-2.4202,-2.4202,-2.4202,-2.4202,-2.4202,-2.4202,-2.4202,-2.4202,-2.4202,-2.4115,-2.3956,-2.3748,-2.3606,-2.3164,-2.265,-2.2114,-2.1692,-2.1318,-2.1027,-2.0925,-2.0925,-3.9077,-3.8361,-3.8077,-3.745,-3.6635,-3.6085,-3.5686,-3.5373,-3.5272,-3.5163,-3.5074,-3.5129,-3.4873,-3.4419,-3.4238,-3.4092,-3.3817,-3.3835,-3.3853,-3.3853,-3.3872,-3.3853,-3.3927,-3.4165,-3.4477,-3.4623,-3.4935,-3.5192,-3.5375,-3.5064,-3.4715,-3.4422,-3.4018,-3.3743,-3.3615,-3.3413,-3.3248,-3.2973,-3.2441,-3.2019,-3.1799,-3.1561,-3.1377,-3.1377,-3.1359,-3.1011,-3.0296,-3.0204,-2.9764,-2.9232,-2.8975,-2.8975,-2.8975,-2.8975,-2.8975,-2.8975,-2.8975,-2.8755,-2.8407,-2.8113,-2.7728,-2.7325,-2.7013,-2.6848,-2.6683,-2.6683,-2.6591,-2.6591,-2.6591,-2.6591,-2.6591,-2.6591,-2.6591,-2.6591,-2.6591,-2.6591,-2.6591,-2.6591,-2.6591,-2.6591,-2.6591,-2.6591,-2.6591,-2.6573,-2.6499,-2.6481,-2.6408,-2.6334,-2.6041,-2.5653,-2.5304,-2.4882,-2.4532,-2.4312,-2.4202,-2.4202,-2.4202,-2.4202,-2.4202,-2.4202,-2.4202,-2.4202,-2.4202,-2.4202,-2.4183,-2.4011,-2.3935,-2.3687,-2.302,-2.24,-2.2013,-2.1573,-2.1113,-2.0925,-2.0925,-4.0302,-3.867,-3.9072,-3.8335,-3.6989,-3.6025,-3.6006,-3.6601,-3.6078,-3.5635,-3.5494,-3.5692,-3.5167,-3.4399,-3.4117,-3.3923,-3.3886,-3.3955,-3.3955,-3.3817,-3.3817,-3.3817,-3.3872,-3.422,-3.4312,-3.4367,-3.4752,-3.5027,-3.499,-3.466,-3.4477,-3.4293,-3.3982,-3.367,-3.3468,-3.3303,-3.323,-3.3083,-3.2423,-3.1854,-3.1561,-3.1433,-3.1377,-3.1377,-3.1322,-3.1011,-3.0332,-3.0167,-2.98,-2.9104,-2.8975,-2.8975,-2.8975,-2.8975,-2.8975,-2.8975,-2.8938,-2.881,-2.8498,-2.8315,-2.8113,-2.7765,-2.7581,-2.7491,-2.7086,-2.6738,-2.6591,-2.6591,-2.6591,-2.6591,-2.6591,-2.6591,-2.6591,-2.6591,-2.6591,-2.6591,-2.6591,-2.6591,-2.6591,-2.6591,-2.6591,-2.6591,-2.6591,-2.6591,-2.6573,-2.6536,-2.6499,-2.6426,-2.6206,-2.58,-2.5212,-2.4735,-2.4496,-2.4275,-2.4202,-2.4202,-2.4202,-2.4202,-2.4202,-2.4202,-2.4202,-2.4202,-2.4202,-2.4202,-2.4202,-2.4202,-2.4102,-2.3737,-2.3138,-2.2619,-2.2182,-2.1623,-2.1027,-2.0925,-2.0925,-4.0626,-3.9625,-3.9819,-3.9181,-3.795,-3.7461,-3.7106,-3.6964,-3.6717,-3.6493,-3.6355,-3.6493,-3.6221,-3.5587,-3.5636,-3.5295,-3.4815,-3.4677,-3.4283,-3.3886,-3.3817,-3.3817,-3.3853,-3.3982,-3.4055,-3.4147,-3.4238,-3.4275,-3.4312,-3.4403,-3.433,-3.4073,-3.3908,-3.3762,-3.345,-3.3321,-3.3248,-3.2991,-3.2459,-3.1946,-3.1726,-3.1506,-3.1377,-3.1377,-3.1377,-3.0937,-3.0424,-3.0185,-2.98,-2.9159,-2.8975,-2.8975,-2.8975,-2.8975,-2.8975,-2.8975,-2.8975,-2.8902,-2.8737,-2.8535,-2.8315,-2.8113,-2.7911,-2.7563,-2.7215,-2.683,-2.6591,-2.6591,-2.6591,-2.6591,-2.6591,-2.6591,-2.6591,-2.6591,-2.6591,-2.6591,-2.6591,-2.6591,-2.6591,-2.6591,-2.6591,-2.6591,-2.6591,-2.6591,-2.6591,-2.6573,-2.6554,-2.6518,-2.6243,-2.5821,-2.5212,-2.4496,-2.433,-2.422,-2.4202,-2.4202,-2.4202,-2.4202,-2.4202,-2.4202,-2.4202,-2.4202,-2.4202,-2.4202,-2.4202,-2.4202,-2.4152,-2.3954,-2.3538,-2.2937,-2.2333,-2.1725,-2.1165,-2.0925,-2.0925,-4.1109,-4.0799,-4.0541,-3.993,-3.9078,-3.8814,-3.8395,-3.7863,-3.7528,-3.7394,-3.7327,-3.7146,-3.6944,-3.6991,-3.6789,-3.6228,-3.5344,-3.5412,-3.4746,-3.4144,-3.3817,-3.3817,-3.3835,-3.3835,-3.3835,-3.3817,-3.3908,-3.3927,-3.3963,-3.4037,-3.4073,-3.3835,-3.3835,-3.3725,-3.3578,-3.3358,-3.3138,-3.2753,-3.2423,-3.2056,-3.1781,-3.1524,-3.1414,-3.1377,-3.1304,-3.1047,-3.0461,-3.0222,-2.9819,-2.9324,-2.903,-2.8975,-2.8975,-2.8975,-2.8975,-2.8975,-2.8975,-2.8975,-2.8883,-2.8737,-2.8572,-2.8388,-2.8116,-2.7693,-2.7436,-2.6976,-2.6591,-2.6591,-2.6591,-2.6591,-2.6591,-2.6591,-2.6591,-2.6591,-2.6591,-2.6591,-2.6591,-2.6591,-2.6591,-2.6591,-2.6591,-2.6591,-2.6591,-2.6591,-2.6591,-2.6591,-2.6591,-2.6591,-2.6279,-2.5858,-2.5344,-2.4716,-2.4349,-2.4257,-2.422,-2.422,-2.422,-2.4202,-2.4202,-2.4202,-2.4202,-2.4202,-2.4202,-2.4202,-2.4202,-2.4202,-2.4202,-2.4053,-2.3886,-2.3038,-2.2283,-2.1827,-2.1369,-2.1078,-2.0925,-4.2189,-4.2084,-4.1263,-4.0651,-4.0149,-3.9144,-3.9276,-3.9735,-3.9012,-3.8615,-3.8416,-3.7662,-3.7327,-3.7193,-3.7327,-3.6769,-3.5549,-3.5412,-3.4883,-3.4214,-3.3817,-3.3817,-3.3817,-3.3817,-3.3817,-3.3817,-3.3817,-3.3817,-3.3817,-3.3872,-3.3872,-3.3817,-3.3817,-3.3578,-3.345,-3.3376,-3.2973,-3.2643,-3.2423,-3.2111,-3.1726,-3.1433,-3.1377,-3.1377,-3.1341,-3.1176,-3.0754,-3.0387,-2.9984,-2.947,-2.914,-2.8975,-2.8975,-2.8975,-2.8975,-2.8975,-2.8975,-2.8975,-2.8938,-2.892,-2.8938,-2.8718,-2.8373,-2.7895,-2.7767,-2.7013,-2.6664,-2.6628,-2.6646,-2.6591,-2.6591,-2.6591,-2.6591,-2.6591,-2.6591,-2.6591,-2.6591,-2.6591,-2.6591,-2.6591,-2.6591,-2.6591,-2.6591,-2.6591,-2.6591,-2.6591,-2.6573,-2.6573,-2.6298,-2.5913,-2.5601,-2.5069,-2.4569,-2.433,-2.4257,-2.4238,-2.422,-2.4202,-2.4202,-2.4202,-2.4202,-2.4202,-2.422,-2.4202,-2.4202,-2.4202,-2.4202,-2.4102,-2.3805,-2.2937,-2.2283,-2.1878,-2.1471,-2.113,-2.1027,-4.2546,-4.2846,-4.2139,-4.1708,-4.1527,-4.1077,-4.0884,-4.0841,-4.0453,-4.0062,-3.9604,-3.9276,-3.9012,-3.9012,-3.8946,-3.8461,-3.7374,-3.6634,-3.5753,-3.4815,-3.4283,-3.3886,-3.3817,-3.3955,-3.3817,-3.3886,-3.3886,-3.3817,-3.3817,-3.3955,-3.3817,-3.3817,-3.3886,-3.3762,-3.3615,-3.3523,-3.3193,-3.2845,-3.2588,-3.2276,-3.1873,-3.1488,-3.1377,-3.1377,-3.1377,-3.1176,-3.0791,-3.0406,-3.0002,-2.9599,-2.9214,-2.9048,-2.8975,-2.8975,-2.8975,-2.8975,-2.8975,-2.8975,-2.8975,-2.8975,-2.8975,-2.8883,-2.8498,-2.815,-2.8058,-2.7398,-2.7031,-2.6903,-2.6738,-2.6646,-2.6591,-2.6591,-2.6591,-2.6591,-2.6591,-2.6591,-2.6591,-2.6591,-2.6591,-2.6591,-2.6591,-2.6591,-2.6591,-2.6591,-2.6591,-2.6591,-2.6573,-2.6499,-2.6261,-2.6004,-2.5674,-2.5307,-2.4776,-2.4514,-2.4422,-2.433,-2.422,-2.422,-2.422,-2.4275,-2.4312,-2.422,-2.422,-2.422,-2.4238,-2.4238,-2.4238,-2.422,-2.3705,-2.2837,-2.2384,-2.203,-2.1623,-2.1216,-2.1318,-4.3177,-4.349,-4.2888,-4.2534,-4.2333,-4.2293,-4.1934,-4.138,-4.1229,-4.0906,-4.0344,-4.0344,-4.0344,-4.0344,-4.0214,-3.9604,-3.8528,-3.7796,-3.6836,-3.6025,-3.5295,-3.4765,-3.4765,-3.4834,-3.504,-3.4765,-3.4765,-3.4902,-3.4971,-3.449,-3.4421,-3.4283,-3.3937,-3.3798,-3.3798,-3.3798,-3.356,-3.3065,-3.2771,-3.2294,-3.1854,-3.1543,-3.1377,-3.1377,-3.1377,-3.1286,-3.0919,-3.0534,-3.0112,-2.9709,-2.9342,-2.903,-2.8975,-2.8975,-2.8975,-2.8975,-2.8975,-2.8975,-2.8975,-2.8975,-2.8975,-2.892,-2.8608,-2.8407,-2.8223,-2.7746,-2.7417,-2.7123,-2.6903,-2.6719,-2.6646,-2.6591,-2.6591,-2.6591,-2.6591,-2.6591,-2.6591,-2.6591,-2.6591,-2.6591,-2.6591,-2.6591,-2.6591,-2.6591,-2.6591,-2.6591,-2.6573,-2.6518,-2.6389,-2.6096,-2.5766,-2.5399,-2.4959,-2.479,-2.4624,-2.444,-2.4275,-2.4293,-2.433,-2.4459,-2.4477,-2.4422,-2.4422,-2.4477,-2.4477,-2.4349,-2.4275,-2.4238,-2.3555,-2.2736,-2.2333,-2.1979,-2.1878,-2.1573,-2.1827,-4.4199,-4.4213,-4.3647,-4.3018,-4.2391,-4.2333,-4.1906,-4.1264,-4.1117,-4.0753,-4.0257,-4.0214,-4.0257,-4.0257,-4.0344,-3.9801,-3.9078,-3.8615,-3.7929,-3.7059,-3.6519,-3.6702,-3.6654,-3.6519,-3.6248,-3.6789,-3.6519,-3.6384,-3.6654,-3.5753,-3.5412,-3.5089,-3.4558,-3.3955,-3.3817,-3.3817,-3.3395,-3.2753,-3.2661,-3.2166,-3.1689,-3.1469,-3.1377,-3.1377,-3.1377,-3.1304,-3.1139,-3.0644,-3.0259,-3.0002,-2.9415,-2.9104,-2.8993,-2.8993,-2.8975,-2.8975,-2.8975,-2.8975,-2.8975,-2.8975,-2.8975,-2.8957,-2.8682,-2.8517,-2.8352,-2.7985,-2.7638,-2.7343,-2.7086,-2.6885,-2.6738,-2.6591,-2.6591,-2.6591,-2.6591,-2.6591,-2.6591,-2.6591,-2.6591,-2.6591,-2.6591,-2.6591,-2.6591,-2.6591,-2.6591,-2.6591,-2.6591,-2.6536,-2.6444,-2.6298,-2.6058,-2.5819,-2.5399,-2.5194,-2.4992,-2.4532,-2.4349,-2.4367,-2.4496,-2.4716,-2.4882,-2.4955,-2.4937,-2.4794,-2.4739,-2.4735,-2.4477,-2.4189,-2.3541,-2.2906,-2.2232,-2.1928,-2.1878,-2.203,-2.2333,-4.401,-4.4237,-4.3746,-4.3357,-4.2985,-4.2286,-4.1638,-4.0893,-4.01,-3.9684,-3.9819,-3.9863,-4.0082,-4.0257,-4.0257,-4.004,-3.9735,-3.8814,-3.8283,-3.8129,-3.7528,-3.7059,-3.7059,-3.726,-3.7126,-3.6991,-3.6991,-3.7193,-3.6924,-3.6567,-3.6499,-3.618,-3.5226,-3.4471,-3.4006,-3.378,-3.3505,-3.3046,-3.2735,-3.2331,-3.1818,-3.1543,-3.1377,-3.1377,-3.1377,-3.1377,-3.1341,-3.0791,-3.0461,-3.0185,-2.958,-2.925,-2.9048,-2.8975,-2.8975,-2.8975,-2.8975,-2.8975,-2.8975,-2.8975,-2.8975,-2.8938,-2.8865,-2.8737,-2.8737,-2.8132,-2.7783,-2.7508,-2.7196,-2.694,-2.6628,-2.6591,-2.6591,-2.6591,-2.6591,-2.6591,-2.6591,-2.6591,-2.6591,-2.6591,-2.6591,-2.6591,-2.6591,-2.6591,-2.6591,-2.6591,-2.6591,-2.6591,-2.6518,-2.6518,-2.6371,-2.6278,-2.6021,-2.5727,-2.5396,-2.4955,-2.479,-2.4882,-2.501,-2.5176,-2.5271,-2.5451,-2.5249,-2.5014,-2.5051,-2.5051,-2.4702,-2.429,-2.3767,-2.3127,-2.2687,-2.2333,-2.2333,-2.2585,-2.2937,-4.3457,-4.3721,-4.3192,-4.2976,-4.2832,-4.2123,-4.135,-4.037,-3.9339,-3.9034,-3.9253,-3.9296,-3.9449,-3.9733,-3.9952,-4.0104,-3.9974,-3.9626,-3.9276,-3.9144,-3.8594,-3.8395,-3.8262,-3.8063,-3.8461,-3.8129,-3.8129,-3.8196,-3.8329,-3.7796,-3.7327,-3.6789,-3.5976,-3.5089,-3.449,-3.4089,-3.3615,-3.3175,-3.2808,-3.2386,-3.1964,-3.1653,-3.1377,-3.1377,-3.1377,-3.1377,-3.1267,-3.0992,-3.0607,-3.0204,-2.98,-2.9397,-2.9122,-2.8975,-2.8975,-2.8975,-2.8975,-2.8975,-2.8975,-2.8975,-2.8975,-2.8975,-2.8975,-2.8975,-2.8938,-2.8517,-2.8223,-2.7893,-2.7416,-2.7086,-2.6866,-2.683,-2.6719,-2.6719,-2.6591,-2.6591,-2.6591,-2.6591,-2.6591,-2.6591,-2.6591,-2.6591,-2.6591,-2.6591,-2.6591,-2.6591,-2.6591,-2.6591,-2.6591,-2.6591,-2.6591,-2.6425,-2.626,-2.5911,-2.5635,-2.5396,-2.5304,-2.5344,-2.5454,-2.5564,-2.5745,-2.5837,-2.5561,-2.5359,-2.547,-2.5362,-2.4853,-2.4376,-2.4011,-2.3749,-2.3473,-2.3138,-2.2887,-2.3088,-2.3488,-4.2819,-4.2723,-4.2182,-4.2014,-4.1969,-4.1708,-4.0907,-3.9786,-3.9041,-3.875,-3.8816,-3.8816,-3.8925,-3.8991,-3.934,-3.9579,-3.9688,-3.9931,-3.9996,-4.0084,-3.9692,-3.9844,-3.9931,-3.9953,-3.967,-3.9953,-4.0018,-3.9538,-4.0018,-3.921,-3.8196,-3.7394,-3.6634,-3.6025,-3.5568,-3.4838,-3.4004,-3.3311,-3.3077,-3.2736,-3.2394,-3.205,-3.1929,-3.1809,-3.168,-3.1552,-3.1396,-3.1047,-3.0644,-3.0241,-2.9837,-2.9415,-2.914,-2.8993,-2.8975,-2.8975,-2.8975,-2.8975,-2.8975,-2.8975,-2.8975,-2.8975,-2.8975,-2.8975,-2.892,-2.8773,-2.8498,-2.8297,-2.7948,-2.7618,-2.7399,-2.7215,-2.6976,-2.683,-2.6628,-2.6609,-2.6591,-2.6591,-2.6591,-2.6591,-2.6591,-2.6591,-2.6591,-2.6591,-2.6591,-2.6591,-2.6591,-2.6591,-2.6591,-2.6591,-2.6554,-2.6352,-2.6168,-2.5931,-2.5748,-2.5782,-2.5748,-2.5821,-2.5894,-2.6058,-2.6168,-2.6186,-2.5984,-2.5855,-2.5929,-2.5711,-2.5307,-2.4886,-2.4469,-2.424,-2.4126,-2.3791,-2.3459,-2.3655,-2.3954,-4.2482,-4.2771,-4.2241,-4.1966,-4.1825,-4.061,-3.9542,-3.8723,-3.8094,-3.7964,-3.8313,-3.8313,-3.8404,-3.8838,-3.8991,-3.9034,-3.9231,-3.9471,-3.9689,-3.9929,-4.0126,-4.0236,-4.0344,-4.0344,-4.0344,-4.0344,-4.0344,-4.0344,-4.0214,-3.9822,-3.9735,-3.9276,-3.7929,-3.7662,-3.7052,-3.6269,-3.4796,-3.3741,-3.35,-3.3341,-3.3268,-3.3168,-3.2886,-3.2575,-3.232,-3.2065,-3.1497,-3.1313,-3.0864,-3.0259,-3.0094,-2.9745,-2.903,-2.8975,-2.8975,-2.8975,-2.8975,-2.8975,-2.8975,-2.8975,-2.8975,-2.8975,-2.8975,-2.8975,-2.892,-2.8773,-2.859,-2.848,-2.8315,-2.7948,-2.7636,-2.7435,-2.7215,-2.6995,-2.6774,-2.6591,-2.6591,-2.6591,-2.6591,-2.6591,-2.6591,-2.6591,-2.6591,-2.6591,-2.6591,-2.6591,-2.6591,-2.6591,-2.6591,-2.6591,-2.6554,-2.6407,-2.6333,-2.6151,-2.6243,-2.6315,-2.6279,-2.6298,-2.6298,-2.637,-2.6425,-2.6425,-2.6352,-2.6241,-2.6113,-2.5984,-2.5766,-2.5396,-2.4937,-2.4937,-2.4783,-2.4436,-2.4162,-2.4225,-2.422,-4.1846,-4.2086,-4.1564,-4.1128,-4.0705,-3.9482,-3.8656,-3.8238,-3.7676,-3.7571,-3.7789,-3.7811,-3.7986,-3.8226,-3.8423,-3.8554,-3.8619,-3.9338,-3.9666,-3.9776,-4.0061,-4.0214,-4.0344,-4.0344,-4.0344,-4.0279,-4.0279,-4.0344,-4.0323,-4.0344,-4.0279,-4.0084,-3.921,-3.8687,-3.7905,-3.678,-3.5448,-3.458,-3.4204,-3.4232,-3.4285,-3.4309,-3.369,-3.3189,-3.2936,-3.2384,-3.157,-3.1442,-3.1019,-3.0351,-3.0204,-3.0063,-2.9576,-2.9568,-2.9213,-2.9153,-2.8975,-2.8975,-2.8975,-2.8975,-2.8975,-2.8975,-2.8975,-2.8975,-2.8938,-2.8828,-2.8755,-2.8663,-2.8425,-2.8187,-2.793,-2.7673,-2.7435,-2.7178,-2.6903,-2.6609,-2.6591,-2.6591,-2.6591,-2.6591,-2.6591,-2.6591,-2.6591,-2.6591,-2.6591,-2.6591,-2.6591,-2.6591,-2.6591,-2.6591,-2.6591,-2.6554,-2.6554,-2.6499,-2.6591,-2.6591,-2.6518,-2.6463,-2.6481,-2.6499,-2.6591,-2.6554,-2.6499,-2.6333,-2.6149,-2.6058,-2.6002,-2.5764,-2.5433,-2.5433,-2.5341,-2.5014,-2.4597,-2.4335,-2.433,-4.1148,-4.122,-4.0513,-4.0036,-3.9249,-3.8693,-3.8358,-3.8156,-3.7616,-3.7374,-3.7396,-3.7396,-3.7461,-3.7658,-3.7898,-3.8029,-3.8335,-3.8925,-3.9362,-3.9601,-4.0061,-4.0279,-4.0344,-4.0344,-4.0257,-4.0214,-4.017,-4.0147,-4.0192,-4.0236,-4.0279,-4.0214,-3.9366,-3.8737,-3.8289,-3.7304,-3.6309,-3.5817,-3.5402,-3.5326,-3.5055,-3.4687,-3.4133,-3.3316,-3.2936,-3.2619,-3.1744,-3.1313,-3.1138,-3.0604,-3.0525,-3.0615,-3.0265,-3.0216,-2.9804,-2.9272,-2.9035,-2.8975,-2.8975,-2.8975,-2.8975,-2.8975,-2.8975,-2.8975,-2.8938,-2.892,-2.8865,-2.8847,-2.8663,-2.8572,-2.837,-2.804,-2.7765,-2.7416,-2.7068,-2.6774,-2.6591,-2.6591,-2.6591,-2.6591,-2.6591,-2.6591,-2.6591,-2.6591,-2.6591,-2.6591,-2.6591,-2.6591,-2.6591,-2.6591,-2.6591,-2.6591,-2.6591,-2.6591,-2.6591,-2.6591,-2.6591,-2.6573,-2.6591,-2.6591,-2.6591,-2.6591,-2.6591,-2.648,-2.6333,-2.6223,-2.6113,-2.5984,-2.5892,-2.5729,-2.5619,-2.5525,-2.5194,-2.4808,-2.4532,-4.0812,-4.1196,-4.1,-4.0305,-3.9367,-3.9131,-3.8455,-3.7616,-3.7495,-3.7374,-3.7374,-3.7374,-3.7374,-3.7418,-3.7527,-3.7614,-3.7833,-3.8532,-3.8925,-3.9296,-3.9799,-4.0105,-4.0236,-4.0148,-4.0039,-3.9885,-3.9797,-3.9797,-3.9777,-3.9995,-4.0236,-4.0192,-3.9498,-3.9045,-3.8851,-3.7912,-3.7296,-3.6873,-3.6639,-3.6204,-3.5769,-3.6139,-3.5992,-3.4694,-3.3925,-3.3126,-3.2428,-3.2218,-3.1872,-3.1508,-3.2148,-3.1641,-3.0527,-3.047,-2.9922,-2.9213,-2.8975,-2.8975,-2.8975,-2.8975,-2.8975,-2.8975,-2.8975,-2.8975,-2.8975,-2.8975,-2.8975,-2.8975,-2.8957,-2.8902,-2.8755,-2.8407,-2.8077,-2.7673,-2.7326,-2.6958,-2.6664,-2.6609,-2.6609,-2.6591,-2.6591,-2.6591,-2.6591,-2.6591,-2.6591,-2.6591,-2.6591,-2.6591,-2.6591,-2.6591,-2.6591,-2.6591,-2.6591,-2.6591,-2.6591,-2.6591,-2.6591,-2.6591,-2.6591,-2.6591,-2.6591,-2.6591,-2.6591,-2.6573,-2.6481,-2.6371,-2.6388,-2.6462,-2.6298,-2.6114,-2.5986,-2.5911,-2.5745,-2.5414,-2.5065,-4.0355,-4.0755,-4.0263,-3.9628,-3.8885,-3.8371,-3.7836,-3.7473,-3.7374,-3.7374,-3.7374,-3.7374,-3.7374,-3.7374,-3.7374,-3.7374,-3.7505,-3.816,-3.8423,-3.8794,-3.9362,-3.9624,-3.9777,-3.9864,-3.958,-3.934,-3.9253,-3.9253,-3.9318,-3.9406,-3.9558,-3.9646,-3.9362,-3.9122,-3.8925,-3.8335,-3.7964,-3.7706,-3.7505,-3.7093,-3.6502,-3.6868,-3.6685,-3.5438,-3.4757,-3.4007,-3.3568,-3.3296,-3.3051,-3.283,-3.3155,-3.2058,-3.1113,-3.084,-3.0274,-2.945,-2.8975,-2.8975,-2.8975,-2.8975,-2.8975,-2.8975,-2.8975,-2.8975,-2.8975,-2.8975,-2.8975,-2.8975,-2.8975,-2.892,-2.8828,-2.8535,-2.8333,-2.8022,-2.7711,-2.7325,-2.6976,-2.6719,-2.6664,-2.6591,-2.6591,-2.6591,-2.6591,-2.6591,-2.6591,-2.6591,-2.6591,-2.6591,-2.6591,-2.6591,-2.6591,-2.6591,-2.6591,-2.6591,-2.6591,-2.6591,-2.6591,-2.6591,-2.6591,-2.6591,-2.6591,-2.6591,-2.6591,-2.6573,-2.6573,-2.6554,-2.6554,-2.6591,-2.6591,-2.6408,-2.6316,-2.6243,-2.6078,-2.5913,-2.5672,-3.9826,-4.009,-3.9125,-3.8455,-3.8126,-3.7178,-3.6925,-3.7112,-3.7178,-3.7156,-3.7134,-3.7221,-3.7309,-3.7374,-3.7374,-3.7374,-3.7549,-3.8008,-3.8139,-3.8401,-3.9056,-3.9231,-3.9253,-3.9253,-3.9056,-3.8903,-3.8772,-3.8838,-3.8925,-3.9012,-3.9034,-3.8903,-3.8707,-3.8532,-3.8226,-3.7986,-3.7811,-3.7571,-3.7374,-3.7374,-3.7374,-3.7374,-3.6685,-3.6175,-3.5807,-3.5376,-3.4694,-3.4447,-3.4307,-3.4125,-3.3945,-3.2662,-3.1658,-3.1247,-3.0314,-2.9568,-2.8975,-2.8975,-2.8975,-2.8975,-2.8975,-2.8975,-2.8975,-2.9035,-2.9035,-2.8975,-2.8975,-2.8975,-2.8975,-2.8957,-2.8847,-2.8755,-2.8572,-2.8278,-2.793,-2.7638,-2.7196,-2.683,-2.6683,-2.6591,-2.6591,-2.6591,-2.6591,-2.6591,-2.6591,-2.6591,-2.6591,-2.6591,-2.6591,-2.6591,-2.6591,-2.6591,-2.6591,-2.6591,-2.6591,-2.6591,-2.6591,-2.6591,-2.6591,-2.6591,-2.6591,-2.6591,-2.6591,-2.6591,-2.6591,-2.6591,-2.6591,-2.6591,-2.6591,-2.6591,-2.6518,-2.6426,-2.6389,-2.6224,-2.6186,-3.9272,-3.9698,-3.8948,-3.8398,-3.7839,-3.7151,-3.6617,-3.6275,-3.6341,-3.6238,-3.6435,-3.6719,-3.7003,-3.7374,-3.7374,-3.7374,-3.7461,-3.7855,-3.8029,-3.8248,-3.8685,-3.8816,-3.8794,-3.8707,-3.8597,-3.8423,-3.8292,-3.8466,-3.8488,-3.8622,-3.8991,-3.9187,-3.8423,-3.8182,-3.8095,-3.7833,-3.7527,-3.7374,-3.7374,-3.7374,-3.7374,-3.7171,-3.6746,-3.6319,-3.5869,-3.5253,-3.4881,-3.5253,-3.523,-3.5092,-3.4731,-3.3534,-3.2333,-3.1459,-3.0665,-2.9568,-2.8975,-2.8975,-2.8975,-2.9153,-2.9213,-2.9213,-2.9213,-2.9213,-2.9153,-2.9053,-2.9035,-2.8975,-2.8975,-2.8975,-2.892,-2.892,-2.8773,-2.8315,-2.793,-2.762,-2.7215,-2.6866,-2.6609,-2.6591,-2.6591,-2.6591,-2.6591,-2.6591,-2.6591,-2.6591,-2.6591,-2.6591,-2.6591,-2.6591,-2.6591,-2.6591,-2.6591,-2.6591,-2.6591,-2.6591,-2.6591,-2.6591,-2.6591,-2.6591,-2.6591,-2.6591,-2.6591,-2.6591,-2.6591,-2.6591,-2.6591,-2.6591,-2.6591,-2.6591,-2.6591,-2.6554,-2.6554,-2.6518,-2.6371]},{"header":{"parameterUnit":"m.s-1","parameterCategory":1,"la1":31.0,"la2":29.5877,"lo1":-88.7671,"lo2":-86.6584,"dy":0.0162,"dx":0.0185,"nx":115,"ny":88,"refTime":"2023-08-04T00:00:00:Z","depth":0,"parameterNumber":3,"parameterNumberName":"V-component_of_WINDS"},"data":[0.0,0.0,0.0,0.0,0.0,0.0,0.0,0.0,0.0,0.0,0.0,0.0,0.0,0.0,0.0,0.0,0.0,0.0,0.0,0.0,0.0,0.0,0.0,0.0,0.0,0.0,0.0,0.0,0.0,0.0,0.0,0.0,0.0,0.0,0.0,0.0,0.0,0.0,0.0,0.0,0.0,0.0,0.0,0.0,0.0,0.0,0.0,0.0,0.0,0.0,0.0,0.0,0.0,0.0,0.0,0.0,0.0,0.0,0.0,0.0,0.0,0.0,0.0,0.0,0.0,0.0,0.0,0.0,0.0,0.0,0.0,0.0,0.0,0.0,0.0,0.0,0.0,0.0,0.0,0.0,0.0,0.0,0.0,0.0,0.0,0.0,0.0,0.0,0.0,0.0,0.0,0.0,0.0,0.0,0.0,0.0,0.0,0.0,0.0,0.0,0.0,0.0,0.0,0.0,0.0,0.0,0.0,0.0,0.0,0.0,0.0,0.0,0.0,0.0,0.0,0.0,0.0,0.0,0.0,0.0,0.0,0.0,0.0,0.0,0.0,0.0,0.0,0.0,0.0,0.0,0.0,0.0,0.0,0.0,0.0,0.0,0.0,0.0,0.0,0.0,0.0,0.0,0.0,0.0,0.0,0.0,0.0,0.0,0.0,0.0,0.0,0.0,0.0,0.0,0.0,0.0,0.0,0.0,0.0,0.0,0.0,0.0,0.0,0.0,0.0,0.0,0.0,0.0,0.0,0.0,0.0,0.0,0.0,0.0,0.0,0.0,0.0,0.0,0.0,0.0,0.0,0.0,0.0,0.0,0.0,0.0,0.0,0.0,0.0,0.0,0.0,0.0,0.0,0.0,0.0,0.0,0.0,0.0,0.0,0.0,0.0,0.0,0.0,0.0,0.0,0.0,0.0,0.0,0.0,0.0,0.0,0.0,0.0,0.0,0.0,0.0,0.0,0.0,0.0,0.0,0.0,0.0,0.0,0.0,0.0,0.0,0.0,0.0,0.0,0.0,0.0,0.0,0.0,0.0,0.0,0.0,0.0,0.0,0.0,0.0,0.0,0.0,0.0,0.0,0.0,0.0,0.0,0.0,0.0,0.0,0.0,0.0,0.0,0.0,0.0,0.0,0.0,0.0,0.0,0.0,0.0,0.0,0.0,0.0,0.0,0.0,0.0,0.0,0.0,0.0,0.0,0.0,0.0,0.0,0.0,0.0,0.0,0.0,0.0,0.0,0.0,0.0,0.0,0.0,0.0,0.0,0.0,0.0,0.0,0.0,0.0,0.0,0.0,0.0,0.0,0.0,0.0,0.0,0.0,0.0,0.0,0.0,0.0,0.0,0.0,0.0,0.0,0.0,0.0,0.0,0.0,0.0,0.0,0.0,0.0,0.0,0.0,0.0,0.0,0.0,0.0,0.0,0.0,0.0,0.0,0.0,0.0,0.0,0.0,0.0,0.0,0.0,0.0,0.0,0.0,0.0,0.0,0.0,0.0,0.0,0.0,0.0,0.0,0.0,0.0,0.0,0.0,0.0,0.0,0.0,0.0,0.0,0.0,0.0,0.0,0.0,0.0,0.0,0.0,0.0,0.0,0.0,0.0,0.0,0.0,0.0,0.0,0.0,0.0,0.0,0.0,0.0,0.0,0.0,0.0,0.0,0.0,0.0,0.0,0.0,0.0,0.0,0.0,0.0,0.0,0.0,0.0,0.0,0.0,0.0,0.0,0.0,0.0,0.0,0.0,0.0,0.0,0.0,0.0,0.0,0.0,0.0,0.0,0.0,0.0,0.0,0.0,0.0,0.0,0.0,0.0,0.0,0.0,0.0,0.0,0.0,0.0,0.0,0.0,0.0,0.0,0.0,0.0,0.0,0.0,0.0,0.0,0.0,0.0,0.0,0.0,0.0,0.0,0.0,0.0,0.0,0.0,0.0,0.0,0.0,0.0,0.0,0.0,0.0,0.0,0.0,0.0,0.0,0.0,0.0,0.0,0.0,0.0,0.0,0.0,0.0,0.0,0.0,0.0,0.0,0.0,0.0,0.0,0.0,0.0,0.0,0.0,0.0,0.0,0.0,0.0,0.0,0.0,0.0,0.0,0.0,0.0,0.0,0.0,0.0,0.0,0.0,0.0,0.0,0.0,0.0,0.0,0.0,0.0,0.0,0.0,0.0,0.0,0.0,0.0,0.0,0.0,0.0,0.0,0.0,0.0,0.0,0.0,0.0,0.0,0.0,0.0,0.0,0.0,0.0,0.0,0.0,0.0,0.0,0.0,0.0,0.0,0.0,0.0,0.0,0.0,0.0,0.0,0.0,0.0,0.0,0.0,0.0,0.0,0.0,0.0,0.0,0.0,0.0,0.0,0.0,0.0,0.0,0.0,0.0,0.0,0.0,0.0,0.0,0.0,0.0,0.0,0.0,0.0,0.0,0.0,0.0,0.0,0.0,0.0,0.0,0.0,0.0,0.0,0.0,0.0,0.0,0.0,0.0,0.0,0.0,0.0,0.0,0.0,0.0,0.0,0.0,0.0,0.0,0.0,0.0,0.0,0.0,0.0,0.0,0.0,0.0,0.0,0.0,0.0,0.0,0.0,0.0,0.0,0.0,0.0,0.0,0.0,0.0,0.0,0.0,0.0,0.0,0.0,0.0,0.0,0.0,0.0,0.0,0.0,0.0,0.0,0.0,0.0,0.0,0.0,0.0,0.0,0.0,0.0,0.0,0.0,0.0,0.0,0.0,0.0,0.0,0.0,0.0,0.0,0.0,0.0,0.0,0.0,0.0,0.0,0.0,0.0,0.0,0.0,0.0,0.0,0.0,0.0,0.0,0.0,0.0,0.0,0.0,0.0,0.0,0.0,0.0,0.0,0.0,0.0,0.0,0.0,0.0,0.0,0.0,0.0,0.0,0.0,0.0,0.0,0.0,0.0,0.0,0.0,0.0,0.0,0.0,0.0,0.0,0.0,0.0,0.0,0.0,0.0,0.0,0.0,0.0,0.0,0.0,0.0,0.0,0.0,0.0,0.0,0.0,0.0,0.0,0.0,0.0,0.0,0.0,0.0,0.0,0.0,0.0,0.0,0.0,0.0,0.0,0.0,0.0,0.0,0.0,0.0,0.0,0.0,0.0,0.0,0.0,0.0,0.0,0.0,0.0,0.0,0.0,0.0,0.0,0.0,0.0,0.0,0.0,0.0,0.0,0.0,0.0,0.0,0.0,0.0,0.0,0.0,0.0,0.0,0.0,0.0,0.0,0.0,0.0,0.0,0.0,0.0,0.0,0.0,0.0,0.0,0.0,0.0,0.0,0.0,0.0,0.0,0.0,0.0,0.0,0.0,0.0,0.0,0.0,0.0,0.0,0.0,0.0,0.0,0.0,0.0,0.0,0.0,0.0,0.0,0.0,0.0,0.0,0.0,0.0,0.0,0.0,0.0,0.0,0.0,0.0,0.0,0.0,0.0,0.0,0.0,0.0,0.0,0.0,0.0,0.0,0.0,0.0,0.0,0.0,0.0,0.0,0.0,0.0,0.0,0.0,0.0,0.0,0.0,0.0,0.0,0.0,0.0,0.0,0.0,0.0,0.0,0.0,0.0,0.0,0.0,0.0,0.0,0.0,0.0,0.0,0.0,0.0,0.0,0.0,0.0,0.0,0.0,0.0,0.0,0.0,0.0,0.0,0.0,0.0,0.0,0.0,0.0,0.0,0.0,0.0,0.0,0.0,0.0,0.0,0.0,0.0,0.0,0.0,0.0,0.0,0.0,0.0,0.0,0.0,0.0,0.0,0.0,0.0,0.0,0.0,0.0,0.0,0.0,0.0,0.0,0.0,0.0,0.0,0.0,0.0,0.0,0.0,0.0,0.0,0.0,0.0,0.0,0.0,0.0,0.0,0.0,0.0,0.0,0.0,0.0,0.0,0.0,0.0,0.0,0.0,0.0,0.0,0.0,0.0,0.0,0.0,0.0,0.0,0.0,0.0,0.0,0.0,0.0,0.0,0.0,0.0,0.0,0.0,0.0,0.0,0.0,0.0,0.0,0.0,0.0,0.0,0.0,0.0,0.0,0.0,0.0,0.0,0.0,0.0,0.0,0.0,0.0,0.0,0.0,0.0,0.0,0.0,0.0,0.0,0.0,0.0,0.0,0.0,0.0,0.0,0.0,0.0,0.0,0.0,0.0,0.0,0.0,0.0,0.0,0.0,0.0,0.0,0.0,0.0,0.0,0.0,0.0,0.0,0.0,0.0,0.0,0.0,0.0,0.0,0.0,0.0,-3.7358,0.0,0.0,0.0,0.0,0.0,0.0,0.0,0.0,0.0,0.0,0.0,0.0,0.0,0.0,0.0,0.0,0.0,0.0,0.0,0.0,0.0,0.0,0.0,0.0,0.0,0.0,0.0,0.0,0.0,0.0,0.0,0.0,0.0,0.0,0.0,0.0,0.0,0.0,0.0,0.0,0.0,0.0,0.0,0.0,0.0,0.0,0.0,0.0,0.0,0.0,0.0,0.0,0.0,0.0,0.0,0.0,0.0,0.0,0.0,0.0,0.0,0.0,0.0,0.0,0.0,0.0,0.0,0.0,0.0,0.0,0.0,0.0,0.0,0.0,0.0,0.0,0.0,0.0,0.0,0.0,0.0,0.0,0.0,0.0,0.0,0.0,0.0,0.0,0.0,0.0,0.0,0.0,0.0,0.0,0.0,0.0,0.0,0.0,0.0,0.0,0.0,0.0,0.0,0.0,0.0,0.0,0.0,0.0,0.0,0.0,-3.7594,-3.7417,-3.7594,-3.7682,-3.7682,0.0,0.0,0.0,0.0,0.0,0.0,0.0,0.0,0.0,0.0,0.0,0.0,0.0,0.0,0.0,0.0,0.0,0.0,0.0,0.0,0.0,0.0,0.0,0.0,0.0,0.0,0.0,0.0,0.0,0.0,0.0,0.0,0.0,0.0,0.0,0.0,0.0,0.0,0.0,0.0,0.0,0.0,0.0,0.0,0.0,0.0,0.0,0.0,0.0,0.0,0.0,0.0,0.0,0.0,0.0,0.0,0.0,0.0,0.0,0.0,0.0,0.0,0.0,0.0,0.0,0.0,0.0,0.0,0.0,0.0,0.0,0.0,0.0,0.0,0.0,0.0,0.0,0.0,0.0,0.0,0.0,0.0,0.0,0.0,0.0,0.0,0.0,0.0,0.0,0.0,0.0,0.0,0.0,0.0,0.0,0.0,0.0,0.0,0.0,0.0,0.0,0.0,0.0,0.0,0.0,0.0,0.0,0.0,0.0,0.0,0.0,0.0,-3.7857,-3.8001,-3.8001,0.0,0.0,0.0,0.0,0.0,0.0,0.0,0.0,0.0,0.0,0.0,0.0,0.0,0.0,0.0,0.0,0.0,0.0,0.0,0.0,0.0,0.0,0.0,0.0,0.0,0.0,0.0,0.0,0.0,0.0,0.0,0.0,0.0,0.0,0.0,0.0,0.0,0.0,0.0,0.0,0.0,0.0,0.0,0.0,0.0,0.0,0.0,0.0,0.0,0.0,0.0,0.0,0.0,0.0,0.0,0.0,0.0,0.0,0.0,0.0,0.0,0.0,0.0,0.0,0.0,0.0,0.0,0.0,0.0,0.0,0.0,0.0,0.0,0.0,0.0,0.0,0.0,0.0,0.0,0.0,0.0,0.0,0.0,0.0,0.0,0.0,0.0,0.0,0.0,0.0,0.0,0.0,0.0,0.0,0.0,0.0,0.0,0.0,0.0,0.0,0.0,0.0,0.0,0.0,0.0,0.0,0.0,0.0,0.0,0.0,-3.8319,-3.829,-3.8351,0.0,-3.8379,0.0,0.0,0.0,0.0,0.0,0.0,0.0,0.0,0.0,0.0,0.0,0.0,0.0,0.0,0.0,0.0,0.0,0.0,0.0,0.0,0.0,0.0,0.0,0.0,0.0,0.0,0.0,0.0,0.0,0.0,0.0,0.0,0.0,0.0,0.0,0.0,0.0,0.0,0.0,0.0,0.0,0.0,0.0,0.0,0.0,0.0,0.0,0.0,0.0,0.0,0.0,0.0,0.0,0.0,0.0,0.0,0.0,0.0,0.0,0.0,0.0,0.0,0.0,0.0,0.0,0.0,0.0,0.0,0.0,0.0,0.0,0.0,0.0,0.0,0.0,0.0,0.0,0.0,0.0,0.0,0.0,0.0,0.0,0.0,0.0,0.0,0.0,0.0,0.0,0.0,0.0,0.0,0.0,0.0,0.0,0.0,0.0,0.0,0.0,0.0,0.0,0.0,0.0,0.0,0.0,0.0,0.0,0.0,0.0,0.0,-3.9007,-3.8766,-3.8766,-3.8876,0.0,0.0,0.0,0.0,0.0,0.0,0.0,0.0,0.0,0.0,0.0,0.0,0.0,0.0,0.0,0.0,0.0,0.0,0.0,0.0,0.0,0.0,0.0,0.0,0.0,0.0,0.0,0.0,0.0,0.0,0.0,0.0,0.0,0.0,0.0,0.0,0.0,0.0,0.0,0.0,0.0,0.0,0.0,0.0,0.0,0.0,0.0,0.0,0.0,0.0,0.0,0.0,0.0,0.0,0.0,0.0,0.0,0.0,0.0,0.0,0.0,0.0,0.0,0.0,0.0,0.0,0.0,0.0,0.0,0.0,0.0,0.0,0.0,0.0,0.0,0.0,0.0,0.0,0.0,0.0,0.0,0.0,0.0,0.0,0.0,0.0,0.0,0.0,0.0,0.0,0.0,0.0,0.0,0.0,0.0,0.0,0.0,0.0,0.0,0.0,0.0,0.0,0.0,0.0,0.0,0.0,0.0,0.0,0.0,0.0,-3.9428,-3.9249,-3.8876,-3.8849,-3.9007,-3.9401,0.0,0.0,0.0,0.0,0.0,0.0,0.0,0.0,0.0,0.0,0.0,0.0,0.0,0.0,0.0,0.0,0.0,0.0,0.0,0.0,0.0,0.0,0.0,0.0,0.0,0.0,0.0,0.0,0.0,0.0,0.0,0.0,0.0,0.0,0.0,0.0,0.0,0.0,0.0,0.0,0.0,0.0,0.0,0.0,0.0,0.0,0.0,0.0,0.0,0.0,0.0,0.0,0.0,0.0,0.0,0.0,0.0,0.0,0.0,0.0,0.0,0.0,0.0,0.0,0.0,0.0,0.0,0.0,0.0,0.0,0.0,0.0,0.0,0.0,0.0,0.0,0.0,0.0,0.0,0.0,0.0,0.0,0.0,0.0,0.0,0.0,0.0,0.0,0.0,0.0,0.0,0.0,0.0,0.0,0.0,0.0,0.0,0.0,0.0,0.0,0.0,0.0,0.0,0.0,0.0,0.0,0.0,0.0,-3.9088,-3.9034,-3.8849,-3.852,-3.8436,-3.8628,0.0,0.0,0.0,0.0,0.0,0.0,0.0,0.0,0.0,0.0,0.0,0.0,0.0,0.0,0.0,0.0,0.0,0.0,0.0,0.0,0.0,0.0,0.0,0.0,0.0,0.0,0.0,0.0,0.0,0.0,0.0,0.0,0.0,0.0,0.0,0.0,0.0,0.0,0.0,0.0,0.0,0.0,0.0,0.0,0.0,0.0,0.0,0.0,0.0,0.0,0.0,0.0,0.0,0.0,0.0,0.0,0.0,0.0,0.0,0.0,0.0,0.0,0.0,0.0,0.0,0.0,0.0,0.0,0.0,0.0,0.0,0.0,0.0,0.0,0.0,0.0,0.0,0.0,0.0,0.0,0.0,0.0,0.0,0.0,0.0,0.0,0.0,0.0,0.0,0.0,0.0,0.0,0.0,0.0,0.0,0.0,0.0,0.0,0.0,0.0,0.0,0.0,0.0,0.0,0.0,0.0,0.0,0.0,0.0,-4.0204,-3.9696,-3.9584,-3.9952,-3.9487,-3.928,0.0,0.0,0.0,0.0,0.0,0.0,0.0,0.0,0.0,0.0,0.0,0.0,0.0,0.0,0.0,0.0,0.0,0.0,0.0,0.0,0.0,0.0,0.0,0.0,0.0,0.0,0.0,0.0,0.0,0.0,0.0,0.0,0.0,0.0,0.0,0.0,0.0,0.0,0.0,0.0,0.0,0.0,0.0,0.0,0.0,0.0,0.0,0.0,0.0,0.0,0.0,0.0,0.0,0.0,0.0,0.0,0.0,0.0,0.0,0.0,0.0,0.0,0.0,0.0,0.0,0.0,0.0,0.0,0.0,0.0,0.0,0.0,0.0,0.0,0.0,0.0,0.0,0.0,0.0,0.0,0.0,0.0,0.0,0.0,0.0,0.0,0.0,0.0,0.0,0.0,0.0,0.0,0.0,0.0,0.0,0.0,0.0,0.0,0.0,0.0,0.0,0.0,0.0,0.0,0.0,0.0,0.0,0.0,0.0,-4.068,0.0,-3.9893,-4.0427,-3.9657,-3.9345,0.0,0.0,0.0,0.0,0.0,0.0,0.0,0.0,0.0,0.0,0.0,0.0,0.0,0.0,0.0,0.0,0.0,0.0,0.0,0.0,0.0,0.0,0.0,0.0,0.0,0.0,0.0,0.0,0.0,0.0,0.0,0.0,0.0,0.0,0.0,0.0,0.0,0.0,0.0,0.0,0.0,0.0,0.0,0.0,0.0,0.0,0.0,0.0,0.0,0.0,0.0,0.0,0.0,0.0,0.0,0.0,0.0,0.0,0.0,0.0,0.0,0.0,0.0,0.0,0.0,0.0,0.0,0.0,0.0,0.0,0.0,0.0,0.0,0.0,0.0,0.0,0.0,0.0,0.0,0.0,0.0,0.0,0.0,0.0,0.0,0.0,0.0,0.0,0.0,0.0,0.0,0.0,0.0,0.0,0.0,0.0,0.0,0.0,0.0,0.0,0.0,0.0,0.0,0.0,0.0,0.0,0.0,0.0,-4.0728,-4.0313,-3.9876,-3.9662,-3.9603,-3.8966,-3.8715,0.0,0.0,0.0,0.0,0.0,0.0,0.0,0.0,0.0,0.0,0.0,0.0,0.0,0.0,0.0,0.0,0.0,0.0,0.0,0.0,0.0,0.0,0.0,0.0,0.0,0.0,0.0,0.0,0.0,0.0,0.0,0.0,0.0,0.0,0.0,0.0,0.0,0.0,0.0,0.0,0.0,0.0,0.0,0.0,0.0,0.0,0.0,0.0,0.0,0.0,0.0,0.0,0.0,0.0,0.0,0.0,0.0,0.0,0.0,0.0,0.0,0.0,0.0,0.0,0.0,0.0,0.0,0.0,0.0,0.0,0.0,0.0,0.0,0.0,0.0,0.0,0.0,0.0,0.0,0.0,0.0,0.0,0.0,0.0,0.0,0.0,0.0,0.0,0.0,0.0,0.0,0.0,0.0,0.0,0.0,0.0,0.0,0.0,0.0,0.0,0.0,0.0,0.0,0.0,0.0,0.0,0.0,0.0,0.0,-4.0907,-4.0353,-4.0204,-4.0441,-3.9491,-3.9108,0.0,0.0,0.0,0.0,0.0,0.0,0.0,0.0,0.0,0.0,0.0,0.0,0.0,0.0,0.0,0.0,0.0,0.0,0.0,0.0,0.0,0.0,0.0,0.0,0.0,0.0,0.0,0.0,0.0,0.0,0.0,0.0,0.0,0.0,0.0,0.0,0.0,0.0,0.0,0.0,0.0,0.0,0.0,0.0,0.0,0.0,0.0,0.0,0.0,0.0,0.0,0.0,0.0,0.0,0.0,0.0,0.0,0.0,0.0,0.0,0.0,0.0,0.0,0.0,0.0,0.0,0.0,0.0,0.0,0.0,0.0,0.0,0.0,0.0,0.0,0.0,0.0,0.0,0.0,0.0,0.0,0.0,0.0,0.0,0.0,0.0,0.0,0.0,0.0,0.0,0.0,0.0,0.0,0.0,0.0,0.0,0.0,0.0,0.0,0.0,0.0,0.0,0.0,0.0,0.0,0.0,0.0,0.0,0.0,-4.1186,-4.0776,-4.0768,-4.1309,-4.0014,-3.9442,-3.9664,0.0,0.0,0.0,0.0,0.0,0.0,0.0,0.0,0.0,0.0,0.0,0.0,0.0,0.0,0.0,0.0,0.0,0.0,0.0,0.0,0.0,0.0,0.0,0.0,0.0,0.0,0.0,0.0,0.0,0.0,0.0,0.0,0.0,0.0,0.0,0.0,0.0,0.0,0.0,0.0,0.0,0.0,0.0,0.0,0.0,0.0,0.0,0.0,0.0,0.0,0.0,0.0,0.0,0.0,0.0,0.0,0.0,0.0,0.0,0.0,0.0,0.0,0.0,0.0,0.0,0.0,0.0,0.0,0.0,0.0,0.0,0.0,0.0,0.0,0.0,0.0,0.0,0.0,0.0,0.0,0.0,0.0,0.0,0.0,0.0,0.0,0.0,0.0,0.0,0.0,0.0,0.0,0.0,0.0,0.0,0.0,0.0,0.0,0.0,0.0,0.0,0.0,0.0,0.0,0.0,0.0,0.0,0.0,-4.1348,-4.1105,-4.1274,-4.1895,-4.048,-3.9756,0.0,0.0,0.0,0.0,0.0,0.0,0.0,0.0,0.0,0.0,0.0,0.0,0.0,0.0,0.0,0.0,0.0,0.0,0.0,0.0,0.0,0.0,0.0,0.0,0.0,0.0,0.0,0.0,0.0,0.0,0.0,0.0,0.0,0.0,0.0,0.0,0.0,0.0,0.0,0.0,0.0,0.0,0.0,0.0,0.0,0.0,0.0,0.0,0.0,0.0,0.0,0.0,0.0,0.0,0.0,0.0,0.0,0.0,0.0,0.0,0.0,0.0,0.0,0.0,0.0,0.0,0.0,0.0,0.0,0.0,0.0,0.0,0.0,0.0,0.0,0.0,0.0,0.0,0.0,0.0,0.0,0.0,0.0,0.0,0.0,0.0,0.0,0.0,0.0,0.0,0.0,0.0,0.0,0.0,0.0,0.0,0.0,0.0,0.0,0.0,0.0,0.0,0.0,0.0,0.0,0.0,0.0,0.0,0.0,-4.2834,-4.2334,-4.1741,-4.1205,-4.04,-4.0249,0.0,0.0,0.0,0.0,0.0,0.0,0.0,0.0,0.0,0.0,0.0,0.0,0.0,0.0,0.0,0.0,0.0,0.0,0.0,0.0,0.0,0.0,0.0,0.0,0.0,0.0,0.0,0.0,0.0,0.0,0.0,0.0,0.0,0.0,0.0,0.0,0.0,0.0,0.0,0.0,0.0,0.0,0.0,0.0,0.0,0.0,0.0,0.0,0.0,0.0,0.0,0.0,0.0,0.0,0.0,0.0,0.0,0.0,0.0,0.0,0.0,0.0,0.0,0.0,0.0,0.0,0.0,0.0,0.0,0.0,0.0,0.0,0.0,0.0,0.0,0.0,0.0,0.0,0.0,0.0,0.0,0.0,0.0,0.0,0.0,0.0,0.0,0.0,0.0,0.0,0.0,0.0,0.0,0.0,0.0,0.0,0.0,0.0,0.0,0.0,0.0,0.0,0.0,0.0,0.0,0.0,0.0,0.0,-4.2527,-4.3208,-4.2789,-4.244,-4.216,-4.1731,-4.1441,0.0,0.0,0.0,0.0,0.0,0.0,0.0,0.0,0.0,0.0,0.0,0.0,0.0,0.0,0.0,0.0,0.0,0.0,0.0,0.0,0.0,0.0,0.0,0.0,0.0,0.0,0.0,0.0,0.0,0.0,0.0,0.0,0.0,0.0,0.0,0.0,0.0,0.0,0.0,0.0,0.0,0.0,0.0,0.0,0.0,0.0,0.0,0.0,0.0,0.0,0.0,0.0,0.0,0.0,0.0,0.0,0.0,0.0,0.0,0.0,0.0,0.0,0.0,0.0,0.0,0.0,0.0,0.0,0.0,0.0,0.0,0.0,0.0,0.0,0.0,0.0,0.0,0.0,0.0,0.0,0.0,0.0,0.0,0.0,0.0,0.0,0.0,0.0,0.0,0.0,0.0,0.0,0.0,0.0,0.0,0.0,0.0,0.0,0.0,0.0,0.0,0.0,0.0,0.0,0.0,0.0,0.0,0.0,-4.3103,-4.3077,-4.3147,-4.3476,-4.4109,-4.3722,-4.2811,0.0,0.0,0.0,0.0,0.0,0.0,0.0,0.0,0.0,0.0,0.0,0.0,0.0,0.0,0.0,0.0,0.0,0.0,0.0,0.0,0.0,0.0,0.0,0.0,0.0,0.0,0.0,0.0,0.0,0.0,0.0,0.0,0.0,0.0,0.0,0.0,0.0,0.0,0.0,0.0,0.0,0.0,0.0,0.0,0.0,0.0,0.0,0.0,0.0,0.0,0.0,0.0,0.0,0.0,0.0,0.0,0.0,0.0,0.0,0.0,0.0,0.0,0.0,0.0,0.0,0.0,0.0,0.0,0.0,0.0,0.0,0.0,0.0,0.0,0.0,0.0,0.0,0.0,0.0,0.0,0.0,0.0,0.0,0.0,0.0,0.0,0.0,0.0,0.0,0.0,0.0,0.0,0.0,0.0,0.0,0.0,0.0,0.0,0.0,0.0,0.0,0.0,0.0,0.0,0.0,0.0,0.0,0.0,-4.37,-4.4938,-4.5481,-4.5776,-4.5701,-4.4061,-4.2969,0.0,0.0,0.0,0.0,0.0,0.0,0.0,0.0,0.0,0.0,0.0,0.0,0.0,0.0,0.0,0.0,0.0,0.0,0.0,0.0,0.0,0.0,0.0,0.0,0.0,0.0,0.0,0.0,0.0,0.0,0.0,0.0,0.0,0.0,0.0,0.0,0.0,0.0,0.0,0.0,0.0,0.0,0.0,0.0,0.0,0.0,0.0,0.0,-3.3647,0.0,0.0,0.0,0.0,0.0,0.0,0.0,0.0,0.0,0.0,0.0,0.0,0.0,0.0,0.0,0.0,0.0,0.0,0.0,0.0,0.0,0.0,0.0,0.0,0.0,0.0,0.0,0.0,0.0,0.0,0.0,0.0,0.0,0.0,0.0,0.0,0.0,0.0,0.0,0.0,0.0,0.0,0.0,0.0,0.0,0.0,0.0,0.0,0.0,0.0,0.0,0.0,0.0,0.0,0.0,0.0,0.0,0.0,0.0,-4.4574,-4.6161,-4.6564,-4.6838,-4.6857,-4.4822,-4.3318,0.0,0.0,0.0,0.0,0.0,0.0,0.0,0.0,0.0,0.0,0.0,0.0,0.0,0.0,0.0,0.0,0.0,0.0,0.0,0.0,0.0,0.0,0.0,0.0,0.0,0.0,0.0,0.0,0.0,0.0,0.0,0.0,0.0,0.0,0.0,0.0,0.0,0.0,0.0,0.0,0.0,0.0,0.0,0.0,0.0,0.0,0.0,0.0,0.0,0.0,0.0,0.0,0.0,0.0,0.0,0.0,0.0,0.0,0.0,0.0,0.0,0.0,0.0,0.0,0.0,0.0,0.0,0.0,0.0,0.0,0.0,0.0,0.0,0.0,0.0,0.0,0.0,0.0,0.0,0.0,0.0,0.0,0.0,0.0,0.0,0.0,0.0,0.0,0.0,0.0,0.0,0.0,0.0,0.0,0.0,0.0,0.0,0.0,0.0,0.0,0.0,0.0,0.0,0.0,0.0,0.0,0.0,-4.4285,-4.5499,-4.6926,-4.7212,-4.7559,-4.7959,-4.5811,-4.4036,-4.2672,0.0,0.0,0.0,0.0,0.0,0.0,0.0,0.0,0.0,0.0,0.0,0.0,0.0,0.0,0.0,0.0,0.0,0.0,0.0,0.0,0.0,0.0,0.0,0.0,0.0,0.0,0.0,0.0,0.0,0.0,0.0,0.0,0.0,0.0,0.0,0.0,0.0,0.0,-3.4165,-3.5352,0.0,0.0,0.0,0.0,0.0,0.0,0.0,0.0,-3.5013,0.0,0.0,0.0,0.0,0.0,0.0,0.0,0.0,0.0,0.0,0.0,0.0,0.0,0.0,0.0,0.0,0.0,0.0,0.0,0.0,0.0,0.0,0.0,0.0,0.0,0.0,0.0,0.0,0.0,0.0,0.0,0.0,0.0,0.0,0.0,0.0,0.0,0.0,0.0,0.0,0.0,0.0,0.0,0.0,0.0,0.0,0.0,0.0,0.0,0.0,0.0,0.0,0.0,0.0,0.0,0.0,-4.2501,-4.4535,-4.607,-4.6962,-4.8282,-4.8852,-4.8774,-4.7121,-4.5411,-4.3699,0.0,0.0,0.0,0.0,0.0,0.0,0.0,0.0,0.0,0.0,0.0,0.0,0.0,0.0,0.0,0.0,0.0,0.0,0.0,0.0,0.0,0.0,0.0,0.0,0.0,0.0,0.0,0.0,0.0,0.0,0.0,0.0,0.0,0.0,0.0,0.0,0.0,0.0,0.0,-3.5214,-3.5594,0.0,0.0,0.0,0.0,0.0,0.0,0.0,0.0,-3.6678,0.0,0.0,0.0,0.0,0.0,0.0,0.0,0.0,0.0,0.0,0.0,0.0,0.0,0.0,0.0,0.0,0.0,0.0,0.0,0.0,0.0,0.0,0.0,0.0,0.0,0.0,0.0,0.0,0.0,0.0,0.0,0.0,0.0,0.0,0.0,0.0,0.0,0.0,0.0,0.0,0.0,0.0,0.0,0.0,0.0,0.0,0.0,0.0,0.0,0.0,0.0,0.0,0.0,0.0,0.0,-4.3536,-4.5427,-4.6819,-4.7627,-4.8746,-4.9019,-4.836,-4.6718,-4.5399,0.0,0.0,0.0,0.0,0.0,0.0,0.0,0.0,0.0,0.0,0.0,0.0,0.0,0.0,0.0,0.0,0.0,0.0,0.0,0.0,0.0,0.0,0.0,0.0,0.0,0.0,0.0,0.0,0.0,0.0,0.0,0.0,0.0,0.0,0.0,0.0,0.0,0.0,0.0,0.0,-3.587,-3.649,-3.687,0.0,0.0,0.0,0.0,0.0,0.0,-3.761,-3.8077,0.0,0.0,0.0,0.0,0.0,0.0,0.0,0.0,0.0,0.0,0.0,0.0,0.0,0.0,0.0,0.0,0.0,0.0,0.0,0.0,0.0,0.0,0.0,0.0,0.0,0.0,0.0,0.0,0.0,0.0,0.0,0.0,0.0,0.0,0.0,0.0,0.0,0.0,0.0,0.0,0.0,0.0,0.0,0.0,0.0,0.0,0.0,0.0,0.0,0.0,0.0,0.0,0.0,0.0,0.0,-4.4392,-4.6105,-4.7319,-4.7984,-4.871,-4.8687,-4.789,-4.6318,-4.5388,0.0,0.0,0.0,0.0,0.0,0.0,0.0,0.0,0.0,0.0,0.0,0.0,0.0,0.0,0.0,0.0,0.0,0.0,0.0,0.0,0.0,0.0,0.0,0.0,0.0,0.0,0.0,0.0,0.0,0.0,0.0,0.0,0.0,0.0,0.0,0.0,0.0,0.0,0.0,0.0,0.0,-3.7785,-3.7819,-3.8521,0.0,0.0,0.0,0.0,-3.8424,-3.8762,0.0,0.0,0.0,0.0,0.0,0.0,0.0,0.0,0.0,0.0,0.0,0.0,0.0,0.0,0.0,0.0,0.0,0.0,0.0,0.0,0.0,0.0,0.0,0.0,0.0,0.0,0.0,0.0,0.0,0.0,0.0,0.0,0.0,0.0,0.0,0.0,0.0,0.0,0.0,0.0,0.0,0.0,0.0,0.0,0.0,0.0,0.0,0.0,0.0,0.0,0.0,0.0,0.0,0.0,0.0,0.0,-4.3693,-4.5856,-4.7033,-4.7163,-4.7913,-4.8247,-4.8152,-4.7273,-4.6466,0.0,0.0,0.0,0.0,0.0,0.0,0.0,0.0,0.0,0.0,0.0,0.0,0.0,0.0,0.0,0.0,0.0,0.0,0.0,0.0,0.0,0.0,0.0,0.0,0.0,0.0,0.0,0.0,0.0,0.0,0.0,0.0,0.0,0.0,0.0,0.0,0.0,0.0,0.0,0.0,0.0,-3.8842,-3.8821,-3.9048,-3.9168,0.0,0.0,-3.9252,-3.9167,-3.9347,0.0,0.0,0.0,0.0,0.0,0.0,0.0,0.0,0.0,0.0,0.0,0.0,0.0,0.0,0.0,0.0,0.0,0.0,0.0,0.0,0.0,0.0,0.0,0.0,0.0,0.0,0.0,0.0,0.0,0.0,0.0,0.0,0.0,0.0,0.0,0.0,0.0,0.0,0.0,0.0,0.0,0.0,0.0,0.0,0.0,0.0,0.0,0.0,0.0,0.0,0.0,0.0,0.0,0.0,0.0,-4.3693,-4.4157,-4.6034,-4.6929,-4.6813,-4.77,-4.7808,-4.7097,-4.6719,-4.6329,0.0,0.0,0.0,0.0,0.0,0.0,0.0,0.0,0.0,0.0,0.0,0.0,0.0,0.0,0.0,0.0,0.0,0.0,0.0,0.0,0.0,0.0,0.0,0.0,0.0,0.0,0.0,0.0,0.0,0.0,0.0,0.0,0.0,0.0,0.0,0.0,0.0,0.0,0.0,0.0,0.0,0.0,-3.963,-4.0176,0.0,0.0,0.0,-4.0679,-4.0364,0.0,0.0,0.0,0.0,0.0,0.0,0.0,0.0,0.0,0.0,0.0,0.0,0.0,0.0,0.0,0.0,0.0,0.0,0.0,0.0,0.0,0.0,0.0,0.0,0.0,0.0,0.0,0.0,0.0,0.0,0.0,0.0,0.0,0.0,0.0,0.0,0.0,0.0,0.0,0.0,0.0,0.0,0.0,0.0,0.0,0.0,0.0,0.0,0.0,0.0,0.0,0.0,0.0,0.0,0.0,0.0,0.0,-4.4928,-4.6284,-4.687,-4.6743,-4.7499,-4.7441,-4.6423,-4.6423,0.0,0.0,0.0,0.0,0.0,0.0,0.0,0.0,0.0,0.0,0.0,0.0,0.0,0.0,0.0,0.0,0.0,0.0,0.0,0.0,0.0,0.0,0.0,0.0,0.0,0.0,0.0,-3.7789,0.0,0.0,0.0,0.0,0.0,0.0,0.0,0.0,0.0,0.0,0.0,0.0,0.0,0.0,-4.053,-4.0485,-4.1253,-4.1547,0.0,0.0,-4.1866,-4.1446,-4.1751,-4.2079,0.0,0.0,0.0,0.0,0.0,0.0,0.0,0.0,0.0,0.0,0.0,0.0,0.0,0.0,0.0,0.0,0.0,0.0,0.0,0.0,0.0,0.0,0.0,0.0,0.0,0.0,0.0,0.0,0.0,0.0,0.0,0.0,0.0,0.0,0.0,0.0,0.0,0.0,0.0,0.0,0.0,0.0,0.0,0.0,0.0,0.0,0.0,0.0,0.0,0.0,0.0,0.0,0.0,0.0,-4.4906,-4.5713,-4.6569,-4.6998,-4.6975,-4.7033,-4.7033,-4.6952,-4.6916,-4.6801,0.0,0.0,0.0,0.0,0.0,0.0,0.0,0.0,0.0,0.0,0.0,0.0,0.0,0.0,0.0,0.0,0.0,0.0,0.0,0.0,0.0,0.0,0.0,0.0,0.0,0.0,0.0,0.0,0.0,0.0,0.0,0.0,0.0,0.0,0.0,0.0,0.0,0.0,0.0,0.0,0.0,-4.1696,-4.1534,-4.1938,-4.2127,0.0,-4.205,-4.2251,-4.2216,-4.2251,-4.2287,-4.2308,0.0,0.0,0.0,0.0,0.0,0.0,0.0,0.0,0.0,0.0,0.0,0.0,0.0,0.0,0.0,0.0,0.0,0.0,0.0,0.0,0.0,0.0,0.0,0.0,0.0,0.0,0.0,0.0,0.0,0.0,0.0,0.0,0.0,0.0,0.0,0.0,0.0,0.0,0.0,0.0,0.0,0.0,0.0,0.0,0.0,0.0,0.0,0.0,0.0,0.0,0.0,0.0,0.0,-4.5499,-4.582,-4.6433,-4.698,-4.7477,-4.7477,-4.7333,-4.7015,-4.7163,-4.6794,0.0,0.0,0.0,0.0,0.0,0.0,0.0,0.0,0.0,0.0,0.0,0.0,0.0,0.0,0.0,0.0,0.0,0.0,0.0,0.0,0.0,0.0,0.0,0.0,0.0,0.0,0.0,0.0,-3.925,-3.956,-4.0342,0.0,0.0,0.0,0.0,0.0,0.0,0.0,0.0,0.0,0.0,-4.1436,-4.1368,-4.1635,0.0,0.0,-4.2023,-4.2308,-4.2308,-4.2308,-4.2308,-4.2308,-4.2308,0.0,0.0,0.0,0.0,0.0,0.0,0.0,0.0,0.0,0.0,0.0,0.0,0.0,0.0,0.0,0.0,0.0,0.0,0.0,0.0,0.0,0.0,0.0,0.0,0.0,0.0,0.0,0.0,0.0,0.0,0.0,0.0,0.0,0.0,0.0,0.0,0.0,0.0,0.0,0.0,0.0,0.0,0.0,0.0,0.0,0.0,0.0,0.0,0.0,0.0,0.0,0.0,-4.5927,-4.6177,-4.6765,-4.7299,-4.7758,-4.8006,-4.7819,-4.7142,-4.7261,-4.6784,0.0,0.0,0.0,0.0,0.0,0.0,0.0,0.0,0.0,0.0,0.0,0.0,0.0,0.0,0.0,0.0,0.0,0.0,0.0,0.0,0.0,0.0,0.0,0.0,0.0,0.0,0.0,0.0,-4.0066,-4.0296,-4.0919,0.0,0.0,0.0,0.0,0.0,0.0,0.0,0.0,0.0,0.0,-4.1277,-4.1232,-4.1458,-4.1714,-4.1692,-4.2037,-4.2308,-4.2308,-4.2308,-4.2308,-4.2308,0.0,0.0,0.0,0.0,0.0,0.0,0.0,0.0,0.0,0.0,0.0,0.0,0.0,0.0,0.0,0.0,0.0,0.0,0.0,0.0,0.0,0.0,0.0,0.0,0.0,0.0,0.0,-4.4585,0.0,0.0,-4.4656,0.0,0.0,0.0,0.0,0.0,0.0,0.0,0.0,0.0,0.0,0.0,0.0,0.0,0.0,0.0,0.0,0.0,0.0,0.0,0.0,0.0,0.0,-4.6212,-4.6962,-4.7711,-4.7998,-4.7769,-4.8477,-4.8363,-4.7372,-4.7302,-4.685,-4.5838,0.0,0.0,0.0,0.0,0.0,0.0,0.0,0.0,0.0,0.0,0.0,0.0,0.0,0.0,0.0,0.0,0.0,0.0,0.0,0.0,0.0,0.0,0.0,0.0,0.0,0.0,-4.086,-4.086,-4.0931,0.0,0.0,0.0,0.0,0.0,0.0,0.0,0.0,0.0,0.0,-4.1312,-4.1515,-4.1255,-4.1613,-4.1874,-4.1874,-4.2142,-4.2308,-4.2308,-4.2308,-4.2308,0.0,0.0,0.0,0.0,0.0,0.0,0.0,0.0,0.0,0.0,0.0,0.0,0.0,0.0,0.0,0.0,0.0,0.0,0.0,0.0,0.0,0.0,0.0,0.0,0.0,0.0,0.0,-4.6212,-4.6212,0.0,0.0,0.0,0.0,0.0,0.0,0.0,0.0,0.0,0.0,0.0,-4.6605,-4.6855,0.0,0.0,0.0,0.0,0.0,0.0,0.0,0.0,0.0,0.0,0.0,0.0,-4.687,-4.7453,-4.7533,-4.808,-4.8975,-4.91,-4.9003,-4.8652,-4.8617,-4.7998,-4.6664,0.0,0.0,0.0,0.0,0.0,0.0,0.0,0.0,0.0,0.0,0.0,0.0,0.0,0.0,0.0,0.0,0.0,0.0,0.0,0.0,0.0,0.0,0.0,0.0,0.0,-4.0894,0.0,0.0,0.0,0.0,0.0,0.0,0.0,0.0,0.0,0.0,0.0,-4.1277,-4.1117,-4.1232,-4.1368,-4.1471,-4.1701,-4.1895,0.0,0.0,0.0,0.0,0.0,0.0,0.0,0.0,0.0,0.0,0.0,0.0,0.0,0.0,-4.2216,-4.193,-4.1626,-4.1296,-4.1025,0.0,0.0,0.0,0.0,0.0,0.0,0.0,0.0,0.0,0.0,0.0,0.0,0.0,0.0,-4.7283,0.0,-4.7212,0.0,0.0,0.0,0.0,0.0,0.0,0.0,0.0,-4.7033,-4.7413,-4.7449,-4.7676,-4.7818,0.0,-4.7533,-4.738,0.0,0.0,0.0,0.0,0.0,0.0,0.0,0.0,-4.7192,-4.7541,-4.7759,-4.8406,-4.9458,-4.961,-4.9507,-4.9118,-4.866,-4.7897,-4.689,-4.5943,-4.526,0.0,0.0,0.0,0.0,0.0,0.0,0.0,0.0,0.0,0.0,0.0,0.0,0.0,0.0,0.0,0.0,0.0,0.0,0.0,0.0,0.0,0.0,0.0,-4.0894,0.0,0.0,0.0,0.0,0.0,0.0,0.0,0.0,0.0,-4.129,-4.1277,-4.1382,-4.1441,-4.1267,-4.129,-4.1798,0.0,0.0,0.0,0.0,0.0,0.0,0.0,-4.3108,-4.3108,-4.3108,-4.3108,-4.3108,-4.3108,-4.3108,-4.3108,0.0,0.0,-4.2415,-4.202,-4.1779,-4.1779,-4.1594,-4.1451,-4.1557,-4.1443,-4.1376,0.0,0.0,0.0,0.0,0.0,0.0,0.0,0.0,-4.7212,-4.7997,0.0,-4.7747,0.0,0.0,0.0,0.0,0.0,-4.7092,0.0,0.0,-4.7949,-4.827,-4.8377,-4.9067,-4.9364,-4.9329,-4.8639,-4.8164,-4.7889,-4.7322,0.0,0.0,0.0,0.0,0.0,0.0,-4.7133,-4.7362,-4.8408,-4.9055,-4.9326,-4.9994,-4.9916,-4.8872,-4.7493,-4.6734,-4.6631,-4.588,-4.5432,-4.5397,-4.5397,0.0,0.0,0.0,0.0,0.0,0.0,0.0,0.0,0.0,0.0,0.0,0.0,0.0,0.0,0.0,0.0,0.0,0.0,0.0,0.0,-4.0929,0.0,0.0,0.0,0.0,0.0,0.0,0.0,0.0,0.0,0.0,-4.1418,-4.1553,-4.1775,-4.2037,0.0,0.0,0.0,0.0,-4.2044,-4.3006,-4.3351,-4.3765,-4.4478,-4.4549,-4.4549,-4.4549,0.0,0.0,-4.4585,-4.4585,-4.4549,-4.4585,-4.4514,-4.4121,-4.268,-4.245,-4.2415,-4.2415,-4.2641,-4.2861,-4.3123,-4.2899,-4.2673,-5.1208,0.0,0.0,0.0,0.0,-4.9495,-4.9817,-5.0352,-5.0352,-4.9959,-4.9257,-4.8829,0.0,0.0,0.0,0.0,0.0,0.0,-4.8425,-4.9495,-4.9745,-5.0138,-5.0709,-5.0887,-5.103,-5.0994,-5.0012,-4.9533,-4.9422,-4.8519,-4.7516,-4.6482,0.0,0.0,0.0,0.0,-4.7448,-4.7893,-4.9272,-5.0182,-5.0541,-5.0783,-5.0512,-4.9666,-4.8672,-4.7913,-4.7396,-4.6638,-4.5983,-4.5432,-4.5397,0.0,0.0,0.0,0.0,0.0,0.0,0.0,0.0,0.0,0.0,0.0,0.0,0.0,0.0,0.0,0.0,0.0,0.0,0.0,-4.0894,-4.1378,-4.1688,0.0,0.0,0.0,0.0,0.0,0.0,0.0,0.0,0.0,-4.288,-4.2916,-4.2986,0.0,0.0,-4.3139,-4.343,-4.3325,-4.3429,-4.389,-4.4015,0.0,-4.4563,-4.4585,-4.4585,-4.4585,-4.4585,-4.4585,-4.4585,-4.4585,-4.4585,-4.4585,-4.4585,-4.4442,-4.405,-4.3943,-4.3907,-4.395,-4.4202,-4.4429,-4.4529,-4.4598,-4.4765,-5.5095,-5.2287,-5.149,-5.1433,-5.1886,-5.1861,-5.2172,-5.26,-5.26,-5.2422,-5.2065,-5.1137,-5.0816,-5.0887,-4.9841,0.0,0.0,0.0,-5.0412,-5.0994,-5.128,-5.1851,-5.26,-5.2636,-5.2701,-5.2847,-5.1625,-5.0885,-5.0646,-4.982,-4.882,-4.7753,0.0,0.0,-4.6974,-4.7777,-4.8426,-4.891,-5.0146,-5.1067,-5.1528,-5.1222,-5.0907,-5.0424,-4.9361,-4.8603,-4.812,-4.7396,-4.6672,-4.5914,-4.588,-4.5813,0.0,0.0,0.0,0.0,0.0,0.0,0.0,0.0,0.0,0.0,0.0,-4.1343,-4.1343,0.0,0.0,0.0,-4.1826,-4.1826,-4.1826,-4.2206,0.0,0.0,0.0,0.0,0.0,0.0,0.0,-4.3752,-4.3969,-4.4098,-4.4227,-4.4337,-4.4296,-4.4028,-4.3825,-4.3921,-4.4437,0.0,-4.4717,-4.5265,-4.5653,-4.5912,-4.6012,-4.6034,-4.5927,-4.5606,-4.557,-4.557,-4.5534,-4.557,-4.5512,-4.557,-4.557,-4.557,-4.557,-4.5534,-4.5298,-4.4728,-4.4778,-4.4931,-4.5055,-4.5355,-4.5698,-5.8885,-5.7294,-5.5451,-5.4519,-5.4287,-5.4287,-5.4322,-5.4358,-5.4358,-5.5134,-5.6204,-5.4135,-5.3885,-5.5027,-5.3706,0.0,-5.1993,-5.2682,-5.2717,-5.2147,-5.287,-5.3618,-5.4278,-5.4314,-5.4535,-5.4896,-5.3411,-5.2368,-5.1818,-5.1291,-5.0704,-5.0178,-4.9331,-4.867,-4.8352,-4.9229,-4.9826,-5.0114,-5.1107,-5.1869,-5.2287,-5.1632,-5.1252,-5.1114,-4.9706,-4.8947,-4.8775,-4.8155,-4.7431,-4.6734,-4.67,-4.6328,-4.5638,0.0,0.0,0.0,0.0,0.0,0.0,0.0,0.0,0.0,0.0,0.0,0.0,0.0,0.0,0.0,-4.3207,0.0,-4.3207,-4.3241,0.0,0.0,0.0,-4.3379,-4.3379,-4.3379,-4.3655,-4.4311,0.0,0.0,-4.5328,-4.5598,-4.556,-4.4983,-4.4216,-4.4117,-4.5352,-4.5564,-4.5987,-4.6977,-4.7688,-4.8139,-4.7925,-4.7913,-4.7592,-4.6962,-4.6998,-4.689,-4.689,-4.6926,-4.6962,-4.689,-4.6962,-4.6962,-4.6962,-4.689,-4.6534,-4.5084,-4.4878,-4.4972,-4.5338,-4.5698,-4.6026,-6.2383,-6.1432,-6.0642,-5.8951,-5.674,-5.674,-5.7061,-5.7568,-5.7568,-5.7132,-5.6383,-5.5812,-5.5098,-5.4287,-5.4563,-5.4527,-5.4384,-5.4322,-5.4851,-5.578,-5.5694,-5.6071,-5.6781,-5.6816,-5.6892,-5.6907,-5.5784,-5.4834,-5.4156,-5.3216,-5.2408,-5.1735,-5.2027,-5.136,-4.9648,-5.0357,-5.0812,-5.0809,-5.2244,-5.3004,-5.3115,-5.2942,-5.2287,-5.1149,-5.0769,-4.9982,-4.8844,-4.8637,-4.8217,-4.7493,-4.7458,-4.7327,-4.7155,-4.6603,0.0,0.0,0.0,0.0,0.0,0.0,0.0,0.0,0.0,-4.2896,-4.2896,0.0,-4.2792,0.0,-4.3207,-4.3207,-4.3207,-4.3724,0.0,0.0,-4.4527,-4.4846,-4.4906,-4.4846,-4.4975,-4.5147,-4.5121,-4.519,-4.5363,-4.545,-4.5823,-4.658,-4.5885,-4.56,-4.6469,-4.6634,-4.7091,-4.8183,-4.821,-4.7962,-4.8152,-4.7663,-4.7235,-4.7056,-4.6998,-4.6998,-4.6998,-4.6998,-4.6998,-4.6998,-4.6998,-4.6998,-4.6998,-4.6998,-4.689,-4.652,-4.6649,-4.6845,-4.693,-4.7166,-4.7428,-6.4841,-6.44,-6.3613,-6.2017,-5.9929,-5.9574,-5.9556,-5.9744,-5.9597,-5.9076,-5.8259,-5.7723,-5.6821,-5.5724,-5.6467,-5.6644,-5.6325,-5.6644,-5.6988,-5.7334,-5.7268,-5.76,-5.825,-5.7868,-5.7806,-5.7996,-5.7387,-5.6846,-5.6302,-5.5694,-5.5012,-5.4287,-5.4322,-5.3598,-5.2114,-5.2735,-5.2977,-5.2632,-5.4115,-5.4736,-5.4391,-5.3736,-5.2839,-5.1602,-5.0976,-5.0218,-4.939,-4.9327,-4.8982,-4.8224,-4.8155,-4.7879,-4.7224,-4.6837,-4.6458,0.0,0.0,0.0,0.0,0.0,0.0,0.0,0.0,0.0,0.0,0.0,-4.3345,-4.3655,-4.4,-4.4182,-4.4182,-4.4561,-4.4803,-4.4803,-4.5156,-4.5397,-4.5397,-4.5397,-4.5397,-4.5397,-4.5397,-4.5397,-4.5397,-4.5397,-4.5667,-4.643,-4.6005,-4.6169,-4.7516,-4.7735,-4.8118,-4.924,-4.9422,-4.9167,-4.8806,-4.7711,-4.6998,-4.6998,-4.6998,-4.6998,-4.6998,-4.6998,-4.6998,-4.6998,-4.6998,-4.6998,-4.6998,-4.6998,-4.6998,-4.702,-4.7156,-4.7267,-4.7312,-4.7536,-4.7767,-6.6528,-6.6422,-6.5163,-6.4038,-6.3061,-6.222,-6.1632,-6.1229,-6.102,-6.0826,-6.0622,-5.971,-5.8847,-5.8079,-5.8847,-5.8776,-5.8075,-5.8985,-5.8888,-5.7977,-5.8189,-5.851,-5.886,-5.8199,-5.8107,-5.8474,-5.8581,-5.8416,-5.8047,-5.815,-5.7805,-5.7081,-5.6391,-5.5635,-5.5012,-5.5667,-5.5632,-5.4839,-5.6012,-5.6322,-5.5598,-5.4253,-5.3115,-5.2188,-5.0976,-5.0183,-5.0011,-5.0011,-4.97,-4.8982,-4.8947,-4.8361,-4.7148,-4.6941,-4.6569,0.0,-4.5742,0.0,0.0,0.0,0.0,0.0,0.0,0.0,0.0,-4.4104,-4.4069,-4.4691,-4.532,-4.5638,-4.5535,-4.5535,-4.55,-4.5397,-4.5397,-4.5397,-4.5397,-4.5397,-4.5397,-4.5397,-4.5397,-4.5397,-4.5397,-4.5397,-4.5397,-4.571,-4.558,-4.6239,-4.8221,-4.8511,-4.8722,-4.9806,-5.0474,-4.9962,-4.8984,-4.7818,-4.6998,-4.6998,-4.6998,-4.6998,-4.6998,-4.6998,-4.6998,-4.6998,-4.6998,-4.6998,-4.6998,-4.6998,-4.6998,-4.6998,-4.702,-4.7043,-4.7043,-4.7245,-4.7407,-6.728,-6.7113,-6.5422,-6.4528,-6.4249,-6.3239,-6.2502,-6.2061,-6.2358,-6.1941,-6.1119,-6.1511,-6.0917,-5.9756,-6.0426,-6.0388,-5.9619,-5.9566,-5.9437,-5.9232,-5.8967,-5.8869,-5.8974,-5.8802,-5.8769,-5.8942,-5.9564,-5.9495,-5.8806,-5.9461,-5.9392,-5.8668,-5.8461,-5.8012,-5.7322,0.0,0.0,0.0,-5.6012,-5.577,-5.5598,-5.477,-5.3632,-5.2257,-5.1942,0.0,-5.008,-5.0011,-4.9942,-4.9804,-4.9804,0.0,0.0,0.0,0.0,0.0,0.0,0.0,0.0,0.0,0.0,0.0,-4.7079,-4.6803,-4.6251,-4.6596,-4.6906,-4.7044,-4.7189,-4.7017,-4.6431,-4.6389,-4.6086,-4.55,-4.5397,-4.5397,-4.5397,-4.5397,-4.5397,-4.5397,-4.5397,-4.5397,-4.5432,-4.5397,-4.5744,-4.6378,-4.5935,-4.6203,-4.7963,-4.8163,-4.8461,-4.9064,-4.911,-4.8532,-4.7568,-4.7212,-4.6998,-4.6998,-4.6998,-4.6998,-4.6998,-4.6998,-4.6998,-4.6998,-4.6998,-4.6998,-4.6998,-4.6998,-4.6998,-4.6998,-4.6998,-4.6998,-4.6998,-4.703,-4.7111,-6.9185,0.0,-6.6869,-6.5731,0.0,-6.453,-6.3657,-6.2927,-6.2537,-6.191,-6.1291,-6.1639,-6.1396,-6.07,-6.1083,-6.1048,-6.07,-6.0317,-6.0042,-5.9907,-5.9457,-5.9183,-5.9012,-5.9012,-5.9012,-5.9047,-5.9806,-5.9978,-5.9668,-6.0358,-6.0358,-5.9633,-5.9219,-5.8633,-5.7943,-5.8288,-5.8288,-5.7909,-5.7495,-5.6943,-5.6219,-5.546,-5.4149,-5.2287,-5.1808,0.0,0.0,0.0,0.0,0.0,0.0,0.0,0.0,-4.9016,0.0,-4.8258,-4.7913,-4.77,-4.77,-4.77,-4.77,-4.7734,-4.8017,-4.7948,-4.7189,-4.7465,-4.77,-4.77,-4.77,-4.7534,-4.7182,-4.6837,-4.6458,-4.6017,-4.5638,-4.5397,-4.5432,-4.5742,-4.5983,-4.5983,-4.5983,-4.5983,-4.5983,-4.5604,-4.5622,-4.6091,-4.5779,-4.5726,-4.6611,-4.7122,-4.7683,-4.8579,-4.846,-4.8091,-4.7663,-4.7212,-4.6998,-4.6998,-4.6998,-4.6998,-4.6998,-4.6998,-4.6998,-4.6998,-4.6998,-4.6998,-4.6998,-4.6998,-4.6998,-4.6998,-4.6998,-4.6998,-4.6998,-4.6998,-4.6998,-7.0972,-7.1315,-6.8431,-6.6931,-6.6398,-6.5567,-6.4585,-6.3533,0.0,0.0,0.0,-6.1703,-6.1634,-6.1496,-6.1496,-6.1496,-6.1497,-6.0912,-6.0462,-6.0186,-5.9733,-5.9318,-5.9012,-5.9012,-5.9012,-5.9047,-5.9944,-6.0392,-6.0427,-6.1254,-6.1392,-6.0771,-6.0013,-5.9254,-5.853,-5.8495,-5.8806,-5.9357,-5.9012,-5.8219,-5.7012,-5.6081,-5.4667,-5.2666,-5.1908,-5.1149,-5.0424,-5.0287,-5.0183,-5.0183,-5.008,-4.97,-4.9051,-4.9016,-4.8741,-4.8155,-4.8114,-4.8114,-4.8086,-4.8114,-4.8086,-4.8114,-4.8672,-4.8769,-4.812,-4.8086,-4.8114,-4.8086,-4.8086,-4.8051,-4.7907,-4.7389,-4.6941,-4.6803,-4.619,-4.5811,-4.5845,-4.6362,-4.6769,-4.6665,-4.6562,-4.6527,-4.632,-4.5776,-4.5397,-4.5397,-4.5432,-4.5397,-4.5466,-4.609,-4.689,-4.7978,-4.7995,-4.7843,-4.7877,-4.7449,-4.7033,-4.6998,-4.6998,-4.6998,-4.6998,-4.6998,-4.6998,-4.6998,-4.6998,-4.6998,-4.6998,-4.6998,-4.6998,-4.6998,-4.6998,-4.6998,-4.6998,-4.6998,-4.6998,-7.1408,-7.1317,-6.8917,-6.7536,-6.6781,-6.54,-6.4364,-6.3565,-6.3432,-6.3291,-6.3255,-6.3255,-6.291,-6.2324,-6.2324,-6.2324,-6.222,-6.0911,-6.022,-6.0151,-5.9426,-5.9047,-5.9012,-5.9012,-5.9012,-5.9116,-6.0461,-6.1151,-6.1289,-6.2565,-6.322,-6.3013,-6.2358,-6.1565,-6.0875,-6.084,-6.0875,-6.0944,-5.9047,-5.7943,-5.7736,-5.6357,-5.5118,-5.4218,-5.346,-5.2701,-5.1942,-5.1287,-5.0942,-5.0942,-5.0355,-4.9942,-4.9838,-4.9838,-4.9804,-4.97,-4.9666,-4.97,-4.9666,-4.97,-4.9666,-4.97,-4.9769,-4.9804,-4.97,-4.97,-4.9666,-4.97,-4.9597,-4.939,-4.8741,-4.8499,-4.8155,-4.7665,-4.7431,-4.7362,-4.7293,-4.7431,-4.732,-4.6734,-4.6603,-4.6355,-4.5811,-4.5535,-4.5397,-4.5397,-4.5397,-4.5397,-4.5484,-4.5702,-4.6307,-4.7136,-4.7082,-4.6944,-4.7119,-4.7105,-4.6975,-4.6998,-4.6998,-4.6998,-4.6998,-4.6998,-4.6998,-4.6998,-4.6998,-4.6998,-4.6998,-4.6998,-4.6998,-4.6998,-4.6998,-4.6998,-4.6998,-4.6998,-4.6998,-7.1739,-7.1843,-6.967,-6.8532,-6.8049,-6.5704,-6.4531,-6.4152,-6.3772,-6.3841,-6.422,-6.4634,-6.4634,-6.4289,-6.3876,-6.3945,-6.4255,-6.2324,-6.1668,-6.1944,-6.0806,-6.0254,-6.0254,-6.0254,-6.0254,-6.0323,-6.0944,-6.1323,-6.1427,-6.2461,-6.2979,-6.2979,-6.2634,-6.2117,-6.1358,-6.1323,-6.1116,-6.0703,-5.9668,-5.8944,-5.8495,-5.7047,-5.5701,-5.4563,-5.3804,-5.3011,-5.2222,-5.1908,-5.1701,-5.1671,-5.1011,-5.0597,-5.0597,-5.0218,-5.0011,-5.0011,-5.0011,-5.0011,-5.0011,-5.0011,-5.0011,-5.0011,-5.0011,-5.0011,-5.0011,-5.0011,-5.0011,-5.0011,-5.0011,-4.9873,-4.9465,-4.9079,-4.8637,-4.8327,-4.7948,-4.7734,-4.7741,-4.8086,-4.7982,-4.7355,-4.7217,-4.6906,-4.6148,-4.5673,-4.5397,-4.5397,-4.5397,-4.5397,-4.5397,-4.5502,-4.5779,-4.6339,-4.6404,-4.6434,-4.6566,-4.6684,-4.6754,-4.6778,-4.6929,-4.6998,-4.6998,-4.6998,-4.6998,-4.6998,-4.6998,-4.6998,-4.6998,-4.6998,-4.6998,-4.6998,-4.6998,-4.6998,-4.6998,-4.6998,-4.6998,-7.1843,-7.2222,-6.9946,-6.8739,-6.8049,-6.5531,-6.4462,-6.4393,-6.4014,-6.4255,-6.4979,-6.5428,-6.5704,-6.5807,-6.5221,-6.5393,-6.5773,-6.3945,-6.3289,-6.3669,-6.2255,-6.1565,-6.153,-6.1392,-6.1323,-6.1323,-6.1461,-6.1565,-6.1668,-6.2358,-6.2737,-6.2737,-6.2737,-6.2427,-6.1841,-6.1806,-6.153,-6.0978,-6.0599,-5.9978,-5.9012,-5.7736,-5.646,-5.5322,-5.4391,-5.3598,-5.298,-5.2636,-5.2463,-5.2429,-5.1602,-5.1114,-5.108,-5.039,-5.0011,-5.0011,-5.0011,-5.0011,-5.0011,-5.0011,-5.0011,-5.0011,-5.0011,-5.0011,-5.0011,-5.0011,-5.0011,-5.0011,-5.0011,-4.9976,-4.9907,-4.9493,-4.9051,-4.9045,-4.8568,-4.8321,-4.8293,-4.8734,-4.8672,-4.7941,-4.77,-4.7362,-4.6466,-4.5776,-4.5432,-4.5397,-4.5397,-4.5397,-4.5397,-4.5397,-4.5502,-4.5675,-4.592,-4.6154,-4.6168,-4.6374,-4.6495,-4.6518,-4.6661,-4.6731,-4.6778,-4.6824,-4.6929,-4.6906,-4.6975,-4.6998,-4.6998,-4.6998,-4.6998,-4.6998,-4.6998,-4.6998,-4.6998,-4.6998,-4.6998,-7.1532,-7.1256,-6.9187,-6.698,-6.5255,-6.4186,-6.3738,-6.3807,-6.4289,-6.5048,-6.5566,-6.5117,-6.5255,-6.5807,-6.5807,-6.6152,-6.6704,-6.5221,-6.4496,-6.4393,-6.3048,-6.2393,-6.2289,-6.1668,-6.1323,-6.1427,-6.2048,-6.2358,-6.2358,-6.3082,-6.3462,-6.3496,-6.3496,-6.3427,-6.3358,-6.3358,-6.3324,-6.3255,-6.191,-6.0496,-5.9081,-5.8219,-5.7736,-5.7598,-5.615,-5.5359,-5.515,-5.4011,-5.3287,-5.3184,-5.1908,-5.1114,-5.108,-5.0424,-5.0011,-5.0011,-5.0011,-5.0011,-5.0011,-5.0011,-5.0011,-5.0011,-5.0011,-5.0011,-5.0011,-5.0011,-5.0011,-5.0011,-5.0011,-5.0011,-5.0011,-4.9907,-4.9804,-4.9769,-4.97,-4.9804,-4.97,-4.9838,-4.9355,-4.7844,-4.7741,-4.7155,-4.5983,-4.55,-4.5432,-4.5397,-4.5397,-4.5397,-4.5397,-4.5397,-4.5397,-4.5502,-4.5675,-4.5895,-4.607,-4.6228,-4.6253,-4.6217,-4.6242,-4.6374,-4.6447,-4.6566,-4.6637,-4.6801,-4.6883,-4.6998,-4.6998,-4.6998,-4.6998,-4.6998,-4.6998,-4.6998,-4.6998,-4.6998,-4.6998,-7.0567,-7.0153,-6.967,-6.8152,-6.6048,-6.4772,-6.4014,-6.3634,-6.391,-6.422,-6.4531,-6.4634,-6.5635,-6.7118,-6.6738,-6.6704,-6.6876,-6.5393,-6.4703,-6.46,-6.36,-6.3151,-6.3117,-6.2841,-6.2461,-6.2082,-6.2772,-6.291,-6.2668,-6.3255,-6.36,-6.36,-6.36,-6.36,-6.36,-6.36,-6.3151,-6.2255,-6.1634,-6.0565,-5.9116,-5.8288,-5.7909,-5.7736,-5.6391,-5.5632,-5.5529,-5.4598,-5.4046,-5.4011,-5.3046,-5.2459,-5.2459,-5.1735,-5.1114,-5.07,-5.0252,-5.0011,-5.0011,-5.0011,-5.0011,-5.0011,-5.0011,-5.0011,-5.0011,-5.0011,-5.0011,-5.0011,-5.0011,-5.0011,-5.0011,-5.0011,-5.0011,-5.0011,-5.0011,-5.0011,-5.0011,-5.0011,-4.9528,-4.8499,-4.7948,-4.7355,-4.6293,-4.5673,-4.5432,-4.5397,-4.5397,-4.5397,-4.5397,-4.5397,-4.5397,-4.5397,-4.5502,-4.5572,-4.5727,-4.5879,-4.5955,-4.6005,-4.613,-4.6228,-4.6398,-4.6495,-4.6637,-4.6813,-4.6929,-4.6998,-4.6998,-4.6998,-4.6998,-4.6962,-4.6998,-4.6998,-4.6998,-4.6998,-4.6998,-6.9773,-6.9291,-6.9262,-6.798,-6.5979,-6.4876,-6.4083,-6.3634,-6.36,-6.3703,-6.3945,-6.4462,-6.5704,-6.7256,-6.6911,-6.6669,-6.6531,-6.5531,-6.5014,-6.4945,-6.4255,-6.3876,-6.3876,-6.3669,-6.3324,-6.2944,-6.3324,-6.3324,-6.291,-6.3289,-6.36,-6.36,-6.36,-6.36,-6.36,-6.36,-6.3048,-6.2013,-6.1565,-6.0737,-5.9702,-5.8702,-5.8219,-5.8081,-5.6943,-5.615,-5.5908,-5.5219,-5.4701,-5.4494,-5.3804,-5.3425,-5.3391,-5.2666,-5.1873,-5.1149,-5.0424,-5.0011,-5.0011,-5.0011,-5.0011,-5.0011,-5.0011,-5.0011,-5.0011,-5.0011,-5.0011,-5.0011,-5.0011,-5.0011,-5.0011,-5.0011,-5.0011,-5.0011,-5.0011,-5.0011,-5.0011,-5.0011,-4.9671,-4.8879,-4.812,-4.7293,-4.6397,-4.5742,-4.5397,-4.5397,-4.5397,-4.5397,-4.5397,-4.5397,-4.5397,-4.5397,-4.5397,-4.5423,-4.5423,-4.5546,-4.5675,-4.5727,-4.5854,-4.6005,-4.6277,-4.635,-4.6495,-4.6542,-4.6836,-4.6998,-4.6998,-4.6998,-4.6783,-4.6748,-4.6748,-4.6783,-4.6605,-4.6783,-4.6962,-6.9365,-6.8946,-6.698,-6.5324,-6.3772,-6.3738,-6.3669,-6.36,-6.36,-6.3945,-6.4496,-6.4669,-6.5186,-6.5983,-6.5911,-6.5911,-6.5911,-6.5807,-6.5776,-6.5635,-6.4979,-6.4669,-6.46,-6.3945,-6.36,-6.3565,-6.3738,-6.3703,-6.3565,-6.36,-6.36,-6.36,-6.36,-6.36,-6.36,-6.3565,-6.3531,-6.3151,-6.191,-6.1185,-6.0944,-5.9668,-5.8909,-5.884,-5.8185,-5.7357,-5.6736,-5.5977,-5.5253,-5.4529,-5.3839,-5.3425,-5.3356,-5.2701,-5.1912,-5.1183,-5.0459,-5.0011,-5.0011,-5.0011,-5.0011,-5.0011,-5.0011,-5.0011,-5.0011,-5.0011,-5.0011,-5.0011,-5.0011,-5.0011,-5.0011,-5.0011,-5.0011,-5.0011,-5.0011,-5.0011,-5.0011,-5.0011,-4.9666,-4.8947,-4.8189,-4.7121,-4.5742,-4.5432,-4.5397,-4.5397,-4.5397,-4.5397,-4.5397,-4.5397,-4.5397,-4.5397,-4.5397,-4.5397,-4.5397,-4.5476,-4.545,-4.5502,-4.5554,-4.5554,-4.5624,-4.5803,-4.608,-4.6374,-4.6684,-4.6893,-4.6975,-4.6783,-4.6391,-4.632,-4.6427,-4.6391,-4.5927,-4.6534,-4.6676,-6.8256,-6.7601,-6.5359,-6.4358,-6.4255,-6.3807,-6.36,-6.36,-6.36,-6.3738,-6.4048,-6.4462,-6.46,-6.4427,-6.491,-6.5117,-6.5152,-6.5669,-6.56,-6.5186,-6.5324,-6.5462,-6.5428,-6.5152,-6.4772,-6.4427,-6.4807,-6.4807,-6.4324,-6.4289,-6.4048,-6.3634,-6.36,-6.36,-6.3531,-6.3117,-6.2875,-6.2737,-6.1358,-6.0599,-6.053,-5.9564,-5.9012,-5.8978,-5.8288,-5.7564,-5.684,-5.6046,-5.5288,-5.4529,-5.4253,-5.4115,-5.4046,-5.3391,-5.2632,-5.1873,-5.1114,-5.0493,-5.008,-5.0011,-5.0011,-5.0011,-5.0011,-5.0011,-5.0011,-5.0011,-5.0011,-5.0011,-5.0011,-5.0011,-5.0011,-5.0011,-5.0011,-5.0011,-5.0011,-5.0011,-5.0011,-5.0011,-4.9873,-4.9459,-4.8499,-4.7086,-4.588,-4.5397,-4.5397,-4.5397,-4.5397,-4.5397,-4.5397,-4.5397,-4.5397,-4.5397,-4.5397,-4.5476,-4.5649,-4.5502,-4.5397,-4.5397,-4.545,-4.5546,-4.5675,-4.5648,-4.59,-4.6052,-4.6401,-4.6447,-4.6328,-4.5989,-4.5668,-4.5463,-4.5606,-4.5677,-4.5106,-4.5784,-4.5856,-6.7669,-6.6773,-6.5083,-6.4462,-6.46,-6.391,-6.36,-6.36,-6.36,-6.36,-6.3703,-6.4117,-6.4048,-6.3738,-6.4117,-6.4324,-6.4393,-6.491,-6.4979,-6.4772,-6.5255,-6.5635,-6.5842,-6.5876,-6.56,-6.5152,-6.5324,-6.5221,-6.4738,-6.4462,-6.4083,-6.3634,-6.36,-6.36,-6.3496,-6.3082,-6.2737,-6.2289,-6.1185,-6.0461,-6.0151,-5.9426,-5.9012,-5.8944,-5.853,-5.7805,-5.684,-5.6253,-5.5529,-5.4667,-5.4494,-5.4494,-5.4425,-5.3563,-5.277,-5.2188,-5.1287,-5.0562,-5.0114,-5.0011,-5.0011,-5.0011,-5.0011,-5.0011,-5.0011,-5.0011,-5.0011,-5.0011,-5.0011,-5.0011,-5.0011,-5.0011,-5.0011,-5.0011,-5.0011,-5.0011,-5.0011,-5.0011,-4.9735,-4.9148,-4.8293,-4.7052,-4.5776,-4.5466,-4.5397,-4.5397,-4.5397,-4.5397,-4.5397,-4.5397,-4.5397,-4.5397,-4.5397,-4.5554,-4.5701,-4.5649,-4.5675,-4.5736,-4.5581,-4.5649,-4.5571,-4.5578,-4.5566,-4.573,-4.5785,-4.5741,-4.5538,-4.5165,-4.4862,-4.4585,-4.4763,-4.4977,-4.4892,-4.5071,-4.5071,-6.7601,-6.6842,-6.6152,-6.5186,-6.4531,-6.3876,-6.36,-6.36,-6.36,-6.36,-6.36,-6.3703,-6.3807,-6.3703,-6.3945,-6.3772,-6.391,-6.3979,-6.4289,-6.4807,-6.4945,-6.5393,-6.6048,-6.6117,-6.6117,-6.5979,-6.5221,-6.4841,-6.4772,-6.4255,-6.3876,-6.3634,-6.36,-6.36,-6.36,-6.3427,-6.3117,-6.2427,-6.1565,-6.084,-6.022,-5.9426,-5.9012,-5.9012,-5.8944,-5.8254,-5.6874,-5.6771,-5.6012,-5.4701,-5.4494,-5.4494,-5.4322,-5.3287,-5.2321,-5.205,-5.0907,-5.0183,-5.0011,-5.0011,-5.0011,-5.0011,-5.0011,-5.0011,-5.0011,-5.0011,-5.0011,-5.0011,-5.0011,-5.0011,-5.0011,-5.0011,-5.0011,-5.0011,-5.0011,-5.0011,-5.0011,-5.0011,-4.9459,-4.8286,-4.7775,-4.7052,-4.5914,-4.5432,-4.5397,-4.5397,-4.5397,-4.5397,-4.5397,-4.5397,-4.5397,-4.5397,-4.5423,-4.5528,-4.5675,-4.5829,-4.6005,-4.608,-4.5854,-4.5743,-4.5467,-4.5388,-4.5006,-4.5043,-4.4751,-4.4671,-4.4807,-4.4467,-4.4385,-4.4214,-4.4335,-4.4228,-4.4214,-4.4214,-4.4392,-6.6428,-6.6083,-6.4841,-6.4186,-6.3945,-6.3703,-6.36,-6.36,-6.36,-6.36,-6.3703,-6.4117,-6.4358,-6.4496,-6.491,-6.5152,-6.5117,-6.4669,-6.4772,-6.5497,-6.6014,-6.66,-6.7221,-6.7359,-6.7428,-6.7359,-6.7152,-6.6462,-6.56,-6.5255,-6.4703,-6.3807,-6.36,-6.36,-6.3565,-6.3082,-6.2668,-6.2358,-6.1185,-6.0427,-6.0151,-5.9426,-5.9012,-5.9012,-5.9012,-5.8323,-5.6943,-5.6805,-5.6046,-5.4598,-5.4494,-5.4494,-5.4391,-5.4046,-5.3322,-5.2291,-5.1808,-5.0947,-5.0149,-5.0011,-5.0011,-5.0011,-5.0011,-5.0011,-5.0011,-5.0011,-5.0011,-5.0011,-5.0011,-5.0011,-5.0011,-5.0011,-5.0011,-5.0011,-5.0011,-5.0011,-5.0011,-5.0011,-4.9528,-4.8637,-4.8017,-4.7258,-4.6397,-4.5845,-4.5397,-4.5397,-4.5397,-4.5397,-4.5397,-4.5397,-4.5397,-4.5397,-4.545,-4.5554,-4.5778,-4.598,-4.6105,-4.6154,-4.6005,-4.5829,-4.5553,-4.487,-4.4489,-4.4138,-4.3849,-4.3792,-4.3867,-4.3948,-4.3936,-4.35,-4.3251,-4.3179,-4.3108,-4.3286,-4.3572,-6.6117,-6.5776,-6.4531,-6.4014,-6.4014,-6.4014,-6.3841,-6.3669,-6.391,-6.4014,-6.4117,-6.4496,-6.4876,-6.5186,-6.5669,-6.5876,-6.5807,-6.5324,-6.5566,-6.6186,-6.6393,-6.7118,-6.7945,-6.8083,-6.8083,-6.8014,-6.7807,-6.7221,-6.6324,-6.5979,-6.5221,-6.4186,-6.4014,-6.3841,-6.36,-6.3151,-6.2703,-6.2013,-6.1116,-6.0323,-5.9771,-5.9288,-5.9012,-5.8978,-5.8737,-5.7978,-5.6909,-5.6529,-5.577,-5.477,-5.4494,-5.4494,-5.4494,-5.4218,-5.3667,-5.2839,-5.208,-5.1356,-5.0528,-5.0183,-5.0011,-5.0011,-5.0011,-5.0011,-5.0011,-5.0011,-5.0011,-5.0011,-5.0011,-5.0011,-5.0011,-5.0011,-5.0011,-5.0011,-5.0011,-5.0011,-5.0011,-5.0011,-4.9602,-4.8844,-4.8155,-4.7396,-4.6672,-4.5914,-4.5432,-4.5397,-4.5397,-4.5397,-4.5397,-4.5397,-4.5397,-4.5397,-4.5423,-4.5632,-4.5955,-4.6105,-4.6204,-4.6179,-4.608,-4.5905,-4.5683,-4.4498,-4.374,-4.3336,-4.2997,-4.3185,-4.3283,-4.3734,-4.3822,-4.3108,-4.268,-4.3179,-4.35,-4.2965,-4.3072,-6.6497,-6.5738,-6.4945,-6.4531,-6.4531,-6.46,-6.422,-6.3772,-6.4324,-6.4565,-6.4565,-6.4496,-6.5048,-6.5704,-6.5842,-6.5979,-6.6014,-6.5842,-6.6152,-6.6497,-6.6324,-6.6566,-6.7911,-6.8083,-6.8083,-6.798,-6.7497,-6.7118,-6.6842,-6.6324,-6.5497,-6.4703,-6.4565,-6.4289,-6.3703,-6.3565,-6.2806,-6.1565,-6.1289,-6.053,-5.9219,-5.9012,-5.9012,-5.8978,-5.8426,-5.7736,-5.6874,-5.6012,-5.5253,-5.4598,-5.4494,-5.4494,-5.4391,-5.3839,-5.3563,-5.3287,-5.1977,-5.1356,-5.0947,-5.039,-5.0011,-5.0011,-5.0011,-5.0011,-5.0011,-5.0011,-5.0011,-5.0011,-5.0011,-5.0011,-5.0011,-5.0011,-5.0011,-5.0011,-5.0011,-5.0011,-5.0011,-5.0011,-4.9671,-4.9016,-4.8224,-4.75,-4.6872,-4.6052,-4.5638,-4.5397,-4.5397,-4.5397,-4.5397,-4.5397,-4.5397,-4.5397,-4.5397,-4.5572,-4.5879,-4.6005,-4.608,-4.6055,-4.591,-4.568,-4.531,-4.4067,-4.2896,-4.249,-4.266,-4.2753,-4.2863,-4.3279,-4.3601,-4.3393,-4.3429,-4.3893,-4.3714,-4.3179,-4.2858,-6.5704,-6.4945,-6.4186,-6.3876,-6.3979,-6.4462,-6.4289,-6.3738,-6.4393,-6.4496,-6.4048,-6.3876,-6.4703,-6.5807,-6.5911,-6.6428,-6.6911,-6.6324,-6.629,-6.6669,-6.56,-6.6255,-6.7738,-6.8083,-6.8083,-6.8049,-6.7842,-6.7497,-6.7014,-6.6807,-6.6014,-6.4738,-6.4738,-6.4324,-6.3703,-6.36,-6.2806,-6.153,-6.1323,-6.0565,-5.9288,-5.9012,-5.9012,-5.8978,-5.8771,-5.7978,-5.6805,-5.5495,-5.4736,-5.4563,-5.4494,-5.4494,-5.4494,-5.4287,-5.3942,-5.3391,-5.2528,-5.1666,-5.1114,-5.0424,-5.0045,-5.0011,-5.0011,-5.0011,-5.0011,-5.0011,-5.0011,-5.0011,-5.0011,-5.0011,-5.0011,-5.0011,-5.0011,-5.0011,-5.0011,-5.0011,-5.0011,-5.0011,-4.9878,-4.9602,-4.8947,-4.8155,-4.7465,-4.6734,-4.6052,-4.5604,-4.5432,-4.5397,-4.5397,-4.5397,-4.5397,-4.5397,-4.5423,-4.5546,-4.5727,-4.5829,-4.5905,-4.5879,-4.5689,-4.537,-4.4593,-4.3464,-4.2344,-4.146,-4.2626,-4.3009,-4.2745,-4.281,-4.3059,-4.3693,-4.38,-4.4071,-4.38,-4.3393,-4.3108,-6.5428,-6.4634,-6.391,-6.36,-6.3738,-6.4738,-6.4772,-6.4324,-6.4841,-6.5186,-6.491,-6.4289,-6.491,-6.6221,-6.6048,-6.6324,-6.6945,-6.6255,-6.6324,-6.6842,-6.6462,-6.6807,-6.7566,-6.7876,-6.8083,-6.8083,-6.8083,-6.7842,-6.7532,-6.7463,-6.6635,-6.5497,-6.5186,-6.4634,-6.3634,-6.3565,-6.2841,-6.1599,-6.1254,-6.0565,-5.915,-5.9012,-5.9012,-5.884,-5.8461,-5.7391,-5.5908,-5.4943,-5.4494,-5.4494,-5.4494,-5.4494,-5.4494,-5.4494,-5.4287,-5.3839,-5.2839,-5.1981,-5.1494,-5.0631,-5.0045,-5.0011,-5.0011,-5.0011,-5.0011,-5.0011,-5.0011,-5.0011,-5.0011,-5.0011,-5.0011,-5.0011,-5.0011,-5.0011,-5.0011,-5.0011,-5.0011,-5.0011,-5.0011,-4.9838,-4.9321,-4.8672,-4.8155,-4.7258,-4.6527,-4.601,-4.5604,-4.55,-4.5397,-4.5432,-4.5397,-4.5397,-4.5397,-4.5502,-4.5598,-4.5701,-4.5701,-4.5701,-4.5432,-4.5078,-4.4265,-4.3207,-4.2585,-4.2096,-4.2777,-4.316,-4.2921,-4.2992,-4.3764,-4.4193,-4.4193,-4.4335,-4.4357,-4.3979,-4.3679,-6.5428,-6.4634,-6.391,-6.3634,-6.3945,-6.5117,-6.529,-6.5048,-6.5497,-6.6117,-6.6255,-6.5324,-6.5531,-6.6807,-6.6083,-6.5911,-6.5945,-6.5773,-6.6083,-6.6635,-6.7083,-6.7497,-6.7152,-6.7807,-6.8049,-6.8083,-6.8083,-6.8049,-6.7911,-6.7945,-6.7187,-6.6014,-6.5704,-6.4945,-6.3876,-6.36,-6.2806,-6.1772,-6.1358,-6.0668,-5.9495,-5.9116,-5.9012,-5.884,-5.7874,-5.6667,-5.5495,-5.477,-5.4632,-5.4494,-5.4494,-5.4494,-5.4494,-5.4494,-5.4494,-5.4184,-5.308,-5.2153,-5.1946,-5.0804,-5.0011,-5.0011,-5.0011,-5.0011,-5.0011,-5.0011,-5.0011,-5.0011,-5.0011,-5.0011,-5.0011,-5.0011,-5.0011,-5.0011,-5.0011,-5.0011,-5.0011,-5.0011,-5.0011,-4.9976,-4.9327,-4.8982,-4.8465,-4.7741,-4.6837,-4.6769,-4.6328,-4.6121,-4.5949,-4.5811,-4.5638,-4.5397,-4.5397,-4.5397,-4.5502,-4.5572,-4.5581,-4.5494,-4.5183,-4.4811,-4.4189,-4.3448,-4.3138,-4.3044,-4.3206,-4.3279,-4.3172,-4.3597,-4.4383,-4.4821,-4.4856,-4.5285,-4.5606,-4.5035,-4.4607,-6.5428,-6.4634,-6.3876,-6.391,-6.4462,-6.4841,-6.5221,-6.5669,-6.5807,-6.6083,-6.6048,-6.5738,-6.5807,-6.6152,-6.5945,-6.5876,-6.5669,-6.529,-6.5083,-6.5324,-6.6635,-6.7083,-6.7118,-6.7704,-6.8049,-6.8083,-6.8083,-6.8083,-6.798,-6.7497,-6.6807,-6.5979,-6.529,-6.4531,-6.3738,-6.3565,-6.3186,-6.2255,-6.1634,-6.084,-5.9978,-5.9288,-5.8978,-5.8875,-5.8081,-5.7219,-5.6391,-5.5701,-5.5115,-5.4667,-5.4494,-5.4494,-5.4494,-5.4494,-5.4494,-5.4184,-5.3118,-5.2222,-5.1946,-5.0942,-5.0011,-5.0011,-5.0011,-5.0011,-5.0011,-5.0011,-5.0011,-5.0011,-5.0011,-5.0011,-5.0011,-5.0011,-5.0011,-5.0011,-5.0011,-5.0011,-5.0011,-5.0011,-5.0011,-4.9942,-4.9838,-4.9528,-4.8913,-4.8603,-4.7976,-4.7596,-4.7182,-4.6906,-4.65,-4.6121,-4.5811,-4.5432,-4.5397,-4.5397,-4.5423,-4.5528,-4.5476,-4.545,-4.5147,-4.4906,-4.4285,-4.3897,-4.3621,-4.3444,-4.3339,-4.3428,-4.3629,-4.4059,-4.4813,-4.5174,-4.5477,-4.582,-4.5963,-4.5606,-4.5534,-6.6152,-6.5669,-6.4565,-6.4565,-6.5186,-6.529,-6.5704,-6.629,-6.6393,-6.66,-6.6704,-6.6255,-6.5876,-6.5842,-6.5497,-6.5152,-6.4876,-6.4807,-6.4703,-6.4979,-6.5945,-6.6428,-6.6635,-6.7221,-6.7704,-6.798,-6.8083,-6.8083,-6.7911,-6.7325,-6.6635,-6.5876,-6.5083,-6.4393,-6.3703,-6.36,-6.3186,-6.2461,-6.1703,-6.0944,-6.0185,-5.9426,-5.8771,-5.853,-5.8047,-5.7426,-5.6253,-5.5839,-5.5219,-5.4701,-5.4494,-5.4494,-5.4494,-5.4494,-5.4494,-5.4287,-5.3494,-5.2563,-5.2046,-5.1188,-5.039,-5.0011,-5.0011,-5.0011,-5.0011,-5.0011,-5.0011,-5.0011,-5.0011,-5.0011,-5.0011,-5.0011,-5.0011,-5.0011,-5.0011,-5.0011,-5.0011,-5.0011,-5.0011,-5.0011,-4.9976,-4.9804,-4.9493,-4.912,-4.8499,-4.781,-4.7113,-4.6803,-4.6017,-4.5707,-4.5673,-4.5466,-4.5432,-4.5397,-4.5397,-4.5423,-4.5423,-4.5423,-4.5354,-4.519,-4.4906,-4.4527,-4.4216,-4.4067,-4.396,-4.4212,-4.4478,-4.4882,-4.5103,-4.5394,-4.5698,-4.6074,-4.632,-4.6284,-4.6248,-6.6544,-6.6415,-6.5004,-6.4904,-6.5635,-6.5531,-6.5911,-6.6704,-6.6807,-6.6911,-6.7497,-6.6462,-6.6014,-6.56,-6.5048,-6.4289,-6.4014,-6.4393,-6.4703,-6.4841,-6.56,-6.5979,-6.6186,-6.6738,-6.7325,-6.7911,-6.8049,-6.8083,-6.7876,-6.7256,-6.6428,-6.5773,-6.491,-6.4186,-6.3703,-6.3565,-6.3324,-6.2737,-6.1806,-6.1082,-6.0358,-5.9564,-5.8771,-5.8392,-5.8185,-5.746,-5.6391,-5.5874,-5.5426,-5.4598,-5.4494,-5.4494,-5.4494,-5.4494,-5.4494,-5.446,-5.3736,-5.2977,-5.2188,-5.1464,-5.0769,-5.008,-5.0011,-5.0011,-5.0011,-5.0011,-5.0011,-5.0011,-5.0011,-5.0011,-5.0011,-5.0011,-5.0011,-5.0011,-5.0011,-5.0011,-5.0011,-5.0011,-5.0011,-5.0011,-5.0011,-4.9907,-4.9735,-4.9459,-4.8741,-4.8086,-4.7424,-4.6769,-4.6086,-4.5673,-4.588,-4.5673,-4.5604,-4.5432,-4.5397,-4.5397,-4.5397,-4.5397,-4.5397,-4.5363,-4.5294,-4.5052,-4.4734,-4.4716,-4.4715,-4.4833,-4.4998,-4.522,-4.5435,-4.5646,-4.6044,-4.6524,-4.6783,-4.6962,-4.6855,-6.4377,-6.4249,-6.3324,-6.37,-6.47,-6.4289,-6.4876,-6.5945,-6.6117,-6.6117,-6.6324,-6.66,-6.5979,-6.5152,-6.4807,-6.4289,-6.391,-6.4255,-6.46,-6.4738,-6.5359,-6.5669,-6.5773,-6.6324,-6.6911,-6.729,-6.7635,-6.7911,-6.7669,-6.6773,-6.6083,-6.56,-6.4496,-6.3703,-6.3669,-6.3565,-6.3427,-6.2944,-6.1875,-6.1082,-6.0668,-5.9702,-5.8944,-5.8702,-5.8702,-5.7909,-5.6909,-5.6495,-5.5943,-5.4701,-5.4529,-5.4494,-5.4494,-5.4494,-5.4494,-5.4356,-5.3908,-5.3184,-5.236,-5.1567,-5.0838,-5.0218,-5.0011,-5.0011,-5.0011,-5.0011,-5.0011,-5.0011,-5.0011,-5.0011,-5.0011,-5.0011,-5.0011,-5.0011,-5.0011,-5.0011,-5.0011,-5.0011,-5.0011,-5.0011,-5.0011,-5.0011,-4.9873,-4.9735,-4.9292,-4.8879,-4.8562,-4.801,-4.7431,-4.6983,-4.6776,-4.6362,-4.5837,-4.5604,-4.5397,-4.5397,-4.5397,-4.5397,-4.5397,-4.5397,-4.5363,-4.5397,-4.5285,-4.5105,-4.4949,-4.4888,-4.5142,-4.5485,-4.5774,-4.5976,-4.6459,-4.6998,-4.6998,-4.6998,-4.6998,-6.4228,-6.3775,-6.2999,-6.3532,-6.4551,-6.4042,-6.4542,-6.5773,-6.5876,-6.5876,-6.5979,-6.6186,-6.5807,-6.491,-6.4703,-6.4289,-6.3876,-6.391,-6.4117,-6.4255,-6.4531,-6.4703,-6.4841,-6.5497,-6.5738,-6.6014,-6.6531,-6.7221,-6.7394,-6.6462,-6.5704,-6.5083,-6.4117,-6.36,-6.3462,-6.3186,-6.3082,-6.2703,-6.1599,-6.0737,-6.0668,-5.9564,-5.9081,-5.9012,-5.8909,-5.8219,-5.7116,-5.6805,-5.6046,-5.4839,-5.4494,-5.4494,-5.4494,-5.4494,-5.4494,-5.4425,-5.4149,-5.3632,-5.2873,-5.2114,-5.139,-5.0636,-5.0287,-5.0011,-5.0011,-5.0011,-5.0011,-5.0011,-5.0011,-5.0011,-5.0011,-5.0011,-5.0011,-5.0011,-5.0011,-5.0011,-5.0011,-5.0011,-5.0011,-5.0011,-5.0011,-5.0011,-5.0011,-4.9873,-4.9706,-4.9597,-4.9493,-4.9079,-4.8534,-4.7948,-4.7362,-4.6631,-4.5949,-4.5604,-4.5397,-4.5397,-4.5397,-4.5397,-4.5397,-4.5397,-4.5397,-4.5397,-4.5397,-4.5354,-4.5174,-4.5019,-4.5226,-4.5585,-4.593,-4.6233,-4.6519,-4.6778,-4.6952,-4.6998,-4.6998,-6.3924,-6.3217,-6.2749,-6.3262,-6.4097,-6.3781,-6.405,-6.498,-6.5302,-6.5271,-6.5275,-6.5378,-6.5072,-6.4562,-6.4393,-6.4117,-6.36,-6.3634,-6.3669,-6.3669,-6.3703,-6.3669,-6.3807,-6.4255,-6.4841,-6.5117,-6.5704,-6.6186,-6.6531,-6.5945,-6.529,-6.4738,-6.3979,-6.3462,-6.322,-6.2841,-6.253,-6.2013,-6.1013,-6.022,-5.9806,-5.9357,-5.9012,-5.9012,-5.8978,-5.8323,-5.6978,-5.6805,-5.5977,-5.4977,-5.4494,-5.4494,-5.4494,-5.4494,-5.4494,-5.4494,-5.4494,-5.408,-5.3425,-5.2873,-5.2149,-5.139,-5.0804,-5.0493,-5.0183,-5.0183,-5.0011,-5.0011,-5.0011,-5.0011,-5.0011,-5.0011,-5.0011,-5.0011,-5.0011,-5.0011,-5.0011,-5.0011,-5.0011,-5.0011,-5.0011,-5.0011,-5.0011,-4.9976,-4.9838,-4.9804,-4.9666,-4.9528,-4.8976,-4.812,-4.7465,-4.6672,-4.6017,-4.5604,-4.5397,-4.5397,-4.5397,-4.5397,-4.5397,-4.5397,-4.5397,-4.5397,-4.5397,-4.5397,-4.5363,-4.5277,-4.5494,-4.5624,-4.592,-4.6182,-4.6411,-4.6661,-4.687,-4.6998,-4.6998,-6.1764,-6.1141,-6.1626,-6.1949,-6.2173,-6.2555,-6.2522,-6.2447,-6.3605,-6.3631,-6.3217,-6.3733,-6.3935,-6.3686,-6.3661,-6.3632,-6.3563,-6.3526,-6.3526,-6.36,-6.36,-6.36,-6.3703,-6.4358,-6.4531,-6.4634,-6.5359,-6.5876,-6.5807,-6.5186,-6.4841,-6.4496,-6.391,-6.3324,-6.2944,-6.2634,-6.2496,-6.222,-6.0978,-5.9909,-5.9357,-5.9116,-5.9012,-5.9012,-5.8909,-5.8323,-5.7047,-5.6736,-5.6046,-5.4736,-5.4494,-5.4494,-5.4494,-5.4494,-5.4494,-5.4494,-5.4425,-5.4184,-5.3598,-5.3253,-5.2873,-5.2218,-5.1873,-5.1567,-5.0942,-5.0287,-5.0011,-5.0011,-5.0011,-5.0011,-5.0011,-5.0011,-5.0011,-5.0011,-5.0011,-5.0011,-5.0011,-5.0011,-5.0011,-5.0011,-5.0011,-5.0011,-5.0011,-5.0011,-4.9976,-4.9907,-4.9838,-4.97,-4.9286,-4.8396,-4.7293,-4.6397,-4.5949,-4.5535,-4.5397,-4.5397,-4.5397,-4.5397,-4.5397,-4.5397,-4.5397,-4.5397,-4.5397,-4.5397,-4.5397,-4.5397,-4.545,-4.5598,-4.5905,-4.6119,-4.6374,-4.6637,-4.6952,-4.6998,-4.6998,-6.0801,-6.0152,-6.0446,-6.0768,-6.1177,-6.1432,-6.1602,-6.1823,-6.2333,-6.2419,-6.2183,-6.2419,-6.2578,-6.2581,-6.2508,-6.2702,-6.2969,-6.3045,-6.3305,-6.3563,-6.36,-6.36,-6.3669,-6.391,-6.4048,-6.422,-6.4393,-6.4462,-6.4531,-6.4703,-6.4565,-6.4083,-6.3772,-6.3496,-6.291,-6.2668,-6.253,-6.2048,-6.1047,-6.0082,-5.9668,-5.9254,-5.9012,-5.9012,-5.9012,-5.8185,-5.7219,-5.6771,-5.6046,-5.4839,-5.4494,-5.4494,-5.4494,-5.4494,-5.4494,-5.4494,-5.4494,-5.4356,-5.4046,-5.3667,-5.3253,-5.2873,-5.2494,-5.1839,-5.1183,-5.0459,-5.0011,-5.0011,-5.0011,-5.0011,-5.0011,-5.0011,-5.0011,-5.0011,-5.0011,-5.0011,-5.0011,-5.0011,-5.0011,-5.0011,-5.0011,-5.0011,-5.0011,-5.0011,-5.0011,-4.9976,-4.9942,-4.9873,-4.9355,-4.8562,-4.7293,-4.5949,-4.5638,-4.5432,-4.5397,-4.5397,-4.5397,-4.5397,-4.5397,-4.5397,-4.5397,-4.5397,-4.5397,-4.5397,-4.5397,-4.5397,-4.5423,-4.5528,-4.5701,-4.6005,-4.6301,-4.659,-4.6847,-4.6998,-4.6998,-5.9813,-5.9363,-5.9822,-6.0185,-6.0463,-6.0633,-6.0853,-6.1185,-6.1391,-6.1473,-6.1513,-6.1669,-6.179,-6.1716,-6.1837,-6.2122,-6.2629,-6.2591,-6.3007,-6.338,-6.36,-6.36,-6.3634,-6.3634,-6.3634,-6.36,-6.3772,-6.3807,-6.3876,-6.4014,-6.4083,-6.3634,-6.3634,-6.3427,-6.3151,-6.2737,-6.2324,-6.1599,-6.0978,-6.0289,-5.9771,-5.9288,-5.9081,-5.9012,-5.8875,-5.8392,-5.7288,-5.684,-5.6081,-5.515,-5.4598,-5.4494,-5.4494,-5.4494,-5.4494,-5.4494,-5.4494,-5.4494,-5.4322,-5.4046,-5.3736,-5.3391,-5.2739,-5.1946,-5.1464,-5.0602,-5.0011,-5.0011,-5.0011,-5.0011,-5.0011,-5.0011,-5.0011,-5.0011,-5.0011,-5.0011,-5.0011,-5.0011,-5.0011,-5.0011,-5.0011,-5.0011,-5.0011,-5.0011,-5.0011,-5.0011,-5.0011,-5.0011,-4.9424,-4.8631,-4.7665,-4.6362,-4.5673,-4.55,-4.5432,-4.5432,-4.5432,-4.5397,-4.5397,-4.5397,-4.5397,-4.5397,-4.5397,-4.5397,-4.5397,-4.5397,-4.5397,-4.5476,-4.552,-4.5955,-4.6326,-4.6542,-4.6754,-4.6929,-4.6998,-5.8335,-5.8459,-6.0039,-6.0267,-5.9804,-6.042,-6.0335,-6.0033,-6.0506,-6.076,-6.0886,-6.1309,-6.1513,-6.1595,-6.1513,-6.1803,-6.2513,-6.2591,-6.2931,-6.3343,-6.36,-6.36,-6.36,-6.36,-6.36,-6.36,-6.36,-6.36,-6.36,-6.3703,-6.3703,-6.36,-6.36,-6.3151,-6.291,-6.2772,-6.2013,-6.1392,-6.0978,-6.0392,-5.9668,-5.9116,-5.9012,-5.9012,-5.8944,-5.8633,-5.784,-5.715,-5.6391,-5.5426,-5.4805,-5.4494,-5.4494,-5.4494,-5.4494,-5.4494,-5.4494,-5.4494,-5.4425,-5.4391,-5.4425,-5.4011,-5.3222,-5.2326,-5.2084,-5.0804,-5.0149,-5.008,-5.0114,-5.0011,-5.0011,-5.0011,-5.0011,-5.0011,-5.0011,-5.0011,-5.0011,-5.0011,-5.0011,-5.0011,-5.0011,-5.0011,-5.0011,-5.0011,-5.0011,-5.0011,-4.9976,-4.9976,-4.9459,-4.8734,-4.8148,-4.7148,-4.6086,-4.5638,-4.55,-4.5466,-4.5432,-4.5397,-4.5397,-4.5397,-4.5397,-4.5397,-4.5432,-4.5397,-4.5397,-4.5397,-4.5397,-4.545,-4.5607,-4.6005,-4.6326,-4.6518,-4.6708,-4.6906,-4.6952,-5.8026,-5.7903,-5.8804,-5.9015,-5.876,-5.9075,-5.9209,-5.9286,-5.9552,-5.9816,-6.012,-6.0335,-6.0506,-6.0506,-6.0548,-6.0811,-6.1439,-6.1883,-6.2397,-6.2969,-6.3305,-6.3563,-6.36,-6.3526,-6.36,-6.3563,-6.3563,-6.36,-6.36,-6.3526,-6.36,-6.36,-6.3563,-6.3496,-6.322,-6.3048,-6.2427,-6.1772,-6.1289,-6.0703,-5.9944,-5.9219,-5.9012,-5.9012,-5.9012,-5.8633,-5.7909,-5.7185,-5.6426,-5.5667,-5.4943,-5.4632,-5.4494,-5.4494,-5.4494,-5.4494,-5.4494,-5.4494,-5.4494,-5.4494,-5.4494,-5.4322,-5.3598,-5.2942,-5.277,-5.1528,-5.0838,-5.0597,-5.0287,-5.0114,-5.0011,-5.0011,-5.0011,-5.0011,-5.0011,-5.0011,-5.0011,-5.0011,-5.0011,-5.0011,-5.0011,-5.0011,-5.0011,-5.0011,-5.0011,-5.0011,-4.9976,-4.9838,-4.939,-4.8907,-4.8286,-4.7596,-4.6596,-4.5983,-4.5811,-4.5638,-4.5432,-4.5432,-4.5432,-4.5535,-4.5604,-4.5432,-4.5432,-4.5432,-4.5466,-4.5466,-4.5466,-4.5432,-4.5658,-4.6055,-4.6277,-4.6447,-4.6637,-4.6824,-4.6778,-5.7559,-5.7322,-5.7433,-5.7744,-5.8133,-5.8211,-5.8518,-5.8959,-5.9017,-5.9241,-5.9673,-5.9673,-5.9673,-5.9673,-5.976,-6.012,-6.0769,-6.1227,-6.1763,-6.224,-6.2702,-6.3042,-6.3042,-6.3004,-6.2889,-6.3042,-6.3042,-6.2966,-6.2928,-6.3193,-6.323,-6.3305,-6.3491,-6.3565,-6.3565,-6.3565,-6.3117,-6.2186,-6.1634,-6.0737,-5.9909,-5.9323,-5.9012,-5.9012,-5.9012,-5.884,-5.815,-5.7426,-5.6633,-5.5874,-5.5184,-5.4598,-5.4494,-5.4494,-5.4494,-5.4494,-5.4494,-5.4494,-5.4494,-5.4494,-5.4494,-5.4391,-5.3804,-5.3425,-5.308,-5.2183,-5.1429,-5.1011,-5.0597,-5.0252,-5.0114,-5.0011,-5.0011,-5.0011,-5.0011,-5.0011,-5.0011,-5.0011,-5.0011,-5.0011,-5.0011,-5.0011,-5.0011,-5.0011,-5.0011,-5.0011,-4.9976,-4.9873,-4.9631,-4.9079,-4.8459,-4.7769,-4.6941,-4.65,-4.619,-4.5845,-4.5535,-4.5569,-4.5638,-4.588,-4.5914,-4.5811,-4.5811,-4.5914,-4.5914,-4.5673,-4.5535,-4.5466,-4.5736,-4.6105,-4.6301,-4.6471,-4.6518,-4.6661,-4.6542,-5.6827,-5.6717,-5.6118,-5.67,-5.7946,-5.8133,-5.8346,-5.8659,-5.8857,-5.9157,-5.9543,-5.9619,-5.9684,-5.9684,-5.9673,-5.999,-6.0463,-6.076,-6.1144,-6.1676,-6.1997,-6.1843,-6.1917,-6.1997,-6.2156,-6.1837,-6.1997,-6.2076,-6.1917,-6.2397,-6.2591,-6.2817,-6.3155,-6.3526,-6.36,-6.36,-6.2806,-6.1599,-6.1427,-6.0496,-5.9599,-5.9185,-5.9012,-5.9012,-5.9012,-5.8875,-5.8564,-5.7633,-5.6909,-5.6426,-5.5322,-5.4736,-5.4529,-5.4529,-5.4494,-5.4494,-5.4494,-5.4494,-5.4494,-5.4494,-5.4494,-5.446,-5.3942,-5.3632,-5.3322,-5.2632,-5.1843,-5.1425,-5.0942,-5.0562,-5.0287,-5.0011,-5.0011,-5.0011,-5.0011,-5.0011,-5.0011,-5.0011,-5.0011,-5.0011,-5.0011,-5.0011,-5.0011,-5.0011,-5.0011,-5.0011,-5.0011,-4.9907,-4.9735,-4.9459,-4.8879,-4.843,-4.7769,-4.7258,-4.6879,-4.6017,-4.5673,-4.5707,-4.5949,-4.6362,-4.6672,-4.681,-4.6776,-4.6631,-4.6527,-4.6397,-4.5914,-4.5492,-4.5831,-4.6195,-4.635,-4.6495,-4.6518,-4.6447,-4.6301,-5.633,-5.6748,-5.5992,-5.5997,-5.6528,-5.6371,-5.6658,-5.7198,-5.7804,-5.8421,-5.8896,-5.8961,-5.9284,-5.9543,-5.9684,-5.9783,-6.0033,-6.0633,-6.0969,-6.102,-6.1391,-6.1676,-6.1676,-6.1554,-6.1635,-6.1716,-6.1716,-6.1595,-6.1756,-6.1923,-6.1963,-6.2195,-6.274,-6.3158,-6.3454,-6.3531,-6.3013,-6.2151,-6.1565,-6.0806,-5.984,-5.9323,-5.9012,-5.9012,-5.9012,-5.9012,-5.8944,-5.7909,-5.7288,-5.6771,-5.5632,-5.5012,-5.4632,-5.4494,-5.4494,-5.4494,-5.4494,-5.4494,-5.4494,-5.4494,-5.4494,-5.4425,-5.4287,-5.4046,-5.4046,-5.2908,-5.2252,-5.1735,-5.1149,-5.0666,-5.008,-5.0011,-5.0011,-5.0011,-5.0011,-5.0011,-5.0011,-5.0011,-5.0011,-5.0011,-5.0011,-5.0011,-5.0011,-5.0011,-5.0011,-5.0011,-5.0011,-5.0011,-4.9873,-4.9873,-4.9597,-4.9292,-4.881,-4.8258,-4.7638,-4.681,-4.65,-4.6672,-4.6914,-4.7224,-4.7527,-4.7741,-4.7362,-4.7044,-4.7113,-4.7113,-4.6458,-4.5925,-4.6022,-4.626,-4.6259,-4.6301,-4.6301,-4.6179,-4.6005,-5.5622,-5.5961,-5.5284,-5.5007,-5.507,-5.527,-5.5754,-5.6467,-5.7238,-5.7871,-5.8194,-5.8259,-5.8486,-5.8907,-5.9231,-5.9317,-5.9404,-6.0011,-6.0335,-6.042,-6.0727,-6.0853,-6.0936,-6.1061,-6.0811,-6.102,-6.102,-6.0978,-6.0894,-6.1227,-6.1513,-6.1837,-6.2313,-6.2817,-6.3193,-6.3277,-6.322,-6.2393,-6.1703,-6.0909,-6.0116,-5.953,-5.9012,-5.9012,-5.9012,-5.9012,-5.8806,-5.8288,-5.7564,-5.6805,-5.6046,-5.5288,-5.477,-5.4494,-5.4494,-5.4494,-5.4494,-5.4494,-5.4494,-5.4494,-5.4494,-5.4494,-5.4494,-5.4494,-5.4425,-5.3632,-5.308,-5.2459,-5.1563,-5.0942,-5.0528,-5.0459,-5.0252,-5.0252,-5.0011,-5.0011,-5.0011,-5.0011,-5.0011,-5.0011,-5.0011,-5.0011,-5.0011,-5.0011,-5.0011,-5.0011,-5.0011,-5.0011,-5.0011,-5.0011,-4.9878,-4.9568,-4.9258,-4.8603,-4.8086,-4.7638,-4.7465,-4.7665,-4.7872,-4.8079,-4.8293,-4.8465,-4.7948,-4.7569,-4.7775,-4.77,-4.6865,-4.6454,-4.6248,-4.5988,-4.5822,-4.5905,-4.603,-4.593,-4.5727,-5.4683,-5.456,-5.3991,-5.3775,-5.3959,-5.4849,-5.5789,-5.6689,-5.7205,-5.745,-5.7547,-5.7547,-5.7709,-5.7806,-5.8324,-5.854,-5.8702,-5.9339,-5.9577,-5.9707,-5.9968,-5.9914,-5.9903,-5.9935,-6.0076,-5.9935,-5.9892,-6.0163,-5.9892,-6.0378,-6.0978,-6.1473,-6.1883,-6.224,-6.2547,-6.2689,-6.279,-6.232,-6.1559,-6.0766,-5.9974,-5.9183,-5.8805,-5.8737,-5.8806,-5.8875,-5.8737,-5.8392,-5.7633,-5.6874,-5.6115,-5.5322,-5.4805,-5.4529,-5.4494,-5.4494,-5.4494,-5.4494,-5.4494,-5.4494,-5.4494,-5.4494,-5.4494,-5.4494,-5.4391,-5.4115,-5.3598,-5.3218,-5.2563,-5.1942,-5.1395,-5.105,-5.0735,-5.0459,-5.008,-5.0045,-5.0011,-5.0011,-5.0011,-5.0011,-5.0011,-5.0011,-5.0011,-5.0011,-5.0011,-5.0011,-5.0011,-5.0011,-5.0011,-5.0011,-4.9809,-4.943,-4.9085,-4.8769,-4.8424,-4.8361,-4.8424,-4.8562,-4.87,-4.8879,-4.9085,-4.912,-4.8741,-4.8499,-4.8637,-4.8355,-4.7596,-4.6803,-4.614,-4.5951,-4.61,-4.5702,-4.5917,-4.5684,-4.5528,-5.4252,-5.4621,-5.3945,-5.3714,-5.3774,-5.4259,-5.4801,-5.5431,-5.5818,-5.6284,-5.6802,-5.6802,-5.7071,-5.7579,-5.7806,-5.7871,-5.8162,-5.8518,-5.8842,-5.9058,-5.949,-5.9652,-5.9673,-5.9673,-5.9673,-5.9673,-5.9673,-5.9673,-5.976,-6.0022,-6.0033,-6.0335,-6.1144,-6.1309,-6.1361,-6.1419,-6.1817,-6.1821,-6.1063,-6.0303,-5.9405,-5.8475,-5.8275,-5.8315,-5.8457,-5.8597,-5.8772,-5.8737,-5.8047,-5.6909,-5.6598,-5.5943,-5.4598,-5.4494,-5.4494,-5.4494,-5.4494,-5.4494,-5.4494,-5.4494,-5.4494,-5.4494,-5.4494,-5.4494,-5.4391,-5.4115,-5.377,-5.3563,-5.3253,-5.2563,-5.1977,-5.1597,-5.1183,-5.0769,-5.0355,-5.0011,-5.0011,-5.0011,-5.0011,-5.0011,-5.0011,-5.0011,-5.0011,-5.0011,-5.0011,-5.0011,-5.0011,-5.0011,-5.0011,-5.0011,-4.9942,-4.9533,-4.9396,-4.9183,-4.9355,-4.9361,-4.9424,-4.9459,-4.9459,-4.9465,-4.9568,-4.9568,-4.943,-4.9223,-4.8982,-4.8741,-4.8459,-4.7638,-4.6776,-4.6776,-4.6857,-4.6201,-4.5683,-4.5561,-4.5432,-5.356,-5.3868,-5.368,-5.372,-5.3895,-5.4218,-5.4571,-5.4864,-5.5205,-5.5701,-5.6025,-5.6057,-5.6316,-5.6672,-5.6964,-5.7158,-5.7255,-5.8184,-5.8669,-5.8831,-5.9393,-5.9619,-5.9673,-5.9673,-5.9673,-5.9716,-5.9716,-5.9673,-5.964,-5.9673,-5.9716,-5.9848,-6.0378,-6.0436,-6.0514,-6.0612,-6.0632,-6.0502,-5.9997,-5.9441,-5.8643,-5.7812,-5.7769,-5.7923,-5.8067,-5.8422,-5.8909,-5.8978,-5.8185,-5.7081,-5.6805,-5.595,-5.4615,-5.4175,-5.4367,-5.4399,-5.4494,-5.4494,-5.4494,-5.4494,-5.4494,-5.4494,-5.4494,-5.4494,-5.4425,-5.4218,-5.408,-5.3908,-5.346,-5.3011,-5.2528,-5.2046,-5.1597,-5.1114,-5.0597,-5.0045,-5.0011,-5.0011,-5.0011,-5.0011,-5.0011,-5.0011,-5.0011,-5.0011,-5.0011,-5.0011,-5.0011,-5.0011,-5.0011,-5.0011,-5.0011,-4.9809,-4.9809,-4.9838,-5.0011,-5.0011,-4.9873,-4.9769,-4.9804,-4.9838,-5.0011,-4.9942,-4.9706,-4.9396,-4.9051,-4.8879,-4.8775,-4.8327,-4.7707,-4.7707,-4.7534,-4.7044,-4.6382,-4.5768,-4.5638,-5.2667,-5.276,-5.3157,-5.3615,-5.4146,-5.4497,-5.4781,-5.4874,-5.5246,-5.5409,-5.5442,-5.5442,-5.5539,-5.583,-5.6187,-5.6381,-5.6834,-5.7709,-5.8356,-5.8572,-5.9393,-5.9716,-5.9673,-5.9673,-5.9543,-5.9619,-5.9555,-5.9381,-5.9587,-5.9652,-5.9716,-5.976,-6.0043,-6.0079,-5.967,-5.9554,-5.9252,-5.8591,-5.8341,-5.793,-5.7912,-5.7586,-5.7372,-5.785,-5.8067,-5.8246,-5.8771,-5.8737,-5.8255,-5.7256,-5.6367,-5.5516,-5.446,-5.3816,-5.4045,-5.4335,-5.4463,-5.4494,-5.4494,-5.4494,-5.4494,-5.4494,-5.4494,-5.4494,-5.4425,-5.4391,-5.4287,-5.4253,-5.3908,-5.3736,-5.3356,-5.2735,-5.2218,-5.1563,-5.0907,-5.0355,-5.0011,-5.0011,-5.0011,-5.0011,-5.0011,-5.0011,-5.0011,-5.0011,-5.0011,-5.0011,-5.0011,-5.0011,-5.0011,-5.0011,-5.0011,-5.0011,-5.0011,-5.0011,-5.0011,-5.0011,-5.0011,-4.9976,-5.0011,-5.0011,-5.0011,-5.0011,-5.0011,-4.9671,-4.9396,-4.9189,-4.8982,-4.8741,-4.8568,-4.839,-4.8183,-4.7879,-4.7258,-4.6535,-4.6017,-5.2236,-5.2729,-5.2833,-5.3365,-5.406,-5.4231,-5.4665,-5.5246,-5.5328,-5.5409,-5.5409,-5.5409,-5.5409,-5.5474,-5.5636,-5.5766,-5.6089,-5.7126,-5.7709,-5.8259,-5.9004,-5.9457,-5.9652,-5.9522,-5.936,-5.8993,-5.8863,-5.8863,-5.8972,-5.9295,-5.9652,-5.9587,-5.9534,-5.8991,-5.8698,-5.8379,-5.7568,-5.7051,-5.669,-5.6692,-5.6828,-5.6455,-5.6224,-5.7034,-5.745,-5.7959,-5.8352,-5.8424,-5.7499,-5.6406,-5.5683,-5.4803,-5.382,-5.3718,-5.398,-5.4367,-5.4494,-5.4494,-5.4494,-5.4494,-5.4494,-5.4494,-5.4494,-5.4494,-5.4494,-5.4494,-5.4494,-5.4494,-5.446,-5.4356,-5.408,-5.3425,-5.2804,-5.2046,-5.1257,-5.07,-5.0149,-5.0045,-5.0045,-5.0011,-5.0011,-5.0011,-5.0011,-5.0011,-5.0011,-5.0011,-5.0011,-5.0011,-5.0011,-5.0011,-5.0011,-5.0011,-5.0011,-5.0011,-5.0011,-5.0011,-5.0011,-5.0011,-5.0011,-5.0011,-5.0011,-5.0011,-5.0011,-4.9976,-4.9804,-4.9597,-4.9499,-4.9637,-4.9459,-4.9114,-4.8872,-4.8603,-4.8293,-4.7672,-4.7017,-5.1652,-5.2281,-5.2709,-5.3432,-5.4264,-5.4294,-5.4668,-5.5295,-5.5409,-5.5409,-5.5409,-5.5409,-5.5409,-5.5409,-5.5409,-5.5409,-5.5604,-5.6575,-5.6964,-5.7514,-5.8356,-5.8745,-5.8972,-5.9101,-5.868,-5.8324,-5.8194,-5.8194,-5.8292,-5.8421,-5.8648,-5.8777,-5.8356,-5.8,-5.7709,-5.6834,-5.6284,-5.6033,-5.5604,-5.5645,-5.5941,-5.5701,-5.5821,-5.6575,-5.6996,-5.7446,-5.7704,-5.7816,-5.7101,-5.5873,-5.4907,-5.4288,-5.3619,-5.3416,-5.3783,-5.4239,-5.4494,-5.4494,-5.4494,-5.4494,-5.4494,-5.4494,-5.4494,-5.4494,-5.4494,-5.4494,-5.4494,-5.4494,-5.4494,-5.4391,-5.4218,-5.3667,-5.3287,-5.2701,-5.1981,-5.139,-5.0735,-5.0252,-5.0149,-5.0011,-5.0011,-5.0011,-5.0011,-5.0011,-5.0011,-5.0011,-5.0011,-5.0011,-5.0011,-5.0011,-5.0011,-5.0011,-5.0011,-5.0011,-5.0011,-5.0011,-5.0011,-5.0011,-5.0011,-5.0011,-5.0011,-5.0011,-5.0011,-4.9976,-4.9976,-4.9942,-4.9942,-5.0011,-5.0011,-4.9666,-4.9493,-4.9355,-4.9045,-4.8734,-4.8155,-5.0974,-5.166,-5.2394,-5.3418,-5.4323,-5.422,-5.4487,-5.5021,-5.5118,-5.5086,-5.5053,-5.5183,-5.5312,-5.5409,-5.5409,-5.5409,-5.5668,-5.6349,-5.6543,-5.6931,-5.7903,-5.8162,-5.8194,-5.8194,-5.7903,-5.7676,-5.7482,-5.7579,-5.7709,-5.7838,-5.7871,-5.7676,-5.7385,-5.7126,-5.6672,-5.6316,-5.6057,-5.5701,-5.5409,-5.5409,-5.5409,-5.5409,-5.5821,-5.6106,-5.6342,-5.6614,-5.7034,-5.7047,-5.6675,-5.5551,-5.4192,-5.3561,-5.3344,-5.3179,-5.3716,-5.4175,-5.4494,-5.4494,-5.4494,-5.4494,-5.4494,-5.4494,-5.4494,-5.4463,-5.4463,-5.4494,-5.4494,-5.4494,-5.4494,-5.446,-5.4253,-5.408,-5.3736,-5.3184,-5.2528,-5.1843,-5.1149,-5.0459,-5.0183,-5.0011,-5.0011,-5.0011,-5.0011,-5.0011,-5.0011,-5.0011,-5.0011,-5.0011,-5.0011,-5.0011,-5.0011,-5.0011,-5.0011,-5.0011,-5.0011,-5.0011,-5.0011,-5.0011,-5.0011,-5.0011,-5.0011,-5.0011,-5.0011,-5.0011,-5.0011,-5.0011,-5.0011,-5.0011,-5.0011,-5.0011,-4.9873,-4.97,-4.9631,-4.9321,-4.912,-5.0266,-5.0925,-5.1452,-5.201,-5.2562,-5.2812,-5.3278,-5.3653,-5.3751,-5.3725,-5.4017,-5.4438,-5.4859,-5.5409,-5.5409,-5.5409,-5.5539,-5.6122,-5.6381,-5.6705,-5.7352,-5.7547,-5.7514,-5.7385,-5.7223,-5.6964,-5.677,-5.7029,-5.7061,-5.7395,-5.7806,-5.8097,-5.6964,-5.6608,-5.6478,-5.6089,-5.5636,-5.5409,-5.5409,-5.5409,-5.5409,-5.5499,-5.5781,-5.606,-5.6303,-5.6691,-5.692,-5.6691,-5.6106,-5.5084,-5.3738,-5.302,-5.2892,-5.3009,-5.3517,-5.4175,-5.4494,-5.4494,-5.4494,-5.4399,-5.4367,-5.4367,-5.4367,-5.4367,-5.4399,-5.4497,-5.4463,-5.4494,-5.4494,-5.4494,-5.4391,-5.4391,-5.4115,-5.3253,-5.2528,-5.1808,-5.1183,-5.0528,-5.0045,-5.0011,-5.0011,-5.0011,-5.0011,-5.0011,-5.0011,-5.0011,-5.0011,-5.0011,-5.0011,-5.0011,-5.0011,-5.0011,-5.0011,-5.0011,-5.0011,-5.0011,-5.0011,-5.0011,-5.0011,-5.0011,-5.0011,-5.0011,-5.0011,-5.0011,-5.0011,-5.0011,-5.0011,-5.0011,-5.0011,-5.0011,-5.0011,-4.9942,-4.9942,-4.9873,-4.9597]}]]